<?xml version="1.0" encoding="UTF-8" standalone="no" ?>
<gpx xmlns="http://www.topografix.com/GPX/1/1" xmlns:xsi="http://www.w3.org/2001/XMLSchema-instance" xsi:schemaLocation="http://www.topografix.com/GPX/1/1 http://www.topografix.com/GPX/1/1/gpx.xsd" version="1.1" creator="VisuGPX - https://www.visugpx.com">
  <metadata>
    <name>Ut4M 160 Challenge - Belledonne</name>
  </metadata>
  <trk>
    <name><![CDATA[Ultra Tour des 4 Massifs 2021 - Ut4M 160 Challenge - Etape 3 sur TraceDeTrail.fr]]></name>
    <trkseg>
      <trkpt lat="45.08693" lon="5.8971">
        <ele>546</ele>
        <time>2000-01-01T00:56:32.000Z</time>
      </trkpt>
      <trkpt lat="45.08672" lon="5.89682">
        <ele>546</ele>
        <time>2000-01-01T00:56:42.000Z</time>
      </trkpt>
      <trkpt lat="45.08638" lon="5.89637">
        <ele>543</ele>
        <time>2000-01-01T00:56:52.000Z</time>
      </trkpt>
      <trkpt lat="45.08607" lon="5.89602">
        <ele>541</ele>
        <time>2000-01-01T00:57:02.000Z</time>
      </trkpt>
      <trkpt lat="45.08577" lon="5.89568">
        <ele>538</ele>
        <time>2000-01-01T00:57:12.000Z</time>
      </trkpt>
      <trkpt lat="45.08546" lon="5.89534">
        <ele>535</ele>
        <time>2000-01-01T00:57:22.000Z</time>
      </trkpt>
      <trkpt lat="45.08516" lon="5.89499">
        <ele>533</ele>
        <time>2000-01-01T00:57:32.000Z</time>
      </trkpt>
      <trkpt lat="45.08467" lon="5.89444">
        <ele>531</ele>
        <time>2000-01-01T00:57:42.000Z</time>
      </trkpt>
      <trkpt lat="45.08444" lon="5.89413">
        <ele>529</ele>
        <time>2000-01-01T00:57:52.000Z</time>
      </trkpt>
      <trkpt lat="45.08421" lon="5.89381">
        <ele>528</ele>
        <time>2000-01-01T00:58:02.000Z</time>
      </trkpt>
      <trkpt lat="45.08397" lon="5.89349">
        <ele>527</ele>
        <time>2000-01-01T00:58:12.000Z</time>
      </trkpt>
      <trkpt lat="45.08378" lon="5.89316">
        <ele>525</ele>
        <time>2000-01-01T00:58:22.000Z</time>
      </trkpt>
      <trkpt lat="45.08344" lon="5.89259">
        <ele>523</ele>
        <time>2000-01-01T00:58:32.000Z</time>
      </trkpt>
      <trkpt lat="45.08326" lon="5.89226">
        <ele>521</ele>
        <time>2000-01-01T00:58:42.000Z</time>
      </trkpt>
      <trkpt lat="45.08297" lon="5.89173">
        <ele>519</ele>
        <time>2000-01-01T00:58:52.000Z</time>
      </trkpt>
      <trkpt lat="45.08275" lon="5.89142">
        <ele>518</ele>
        <time>2000-01-01T00:59:02.000Z</time>
      </trkpt>
      <trkpt lat="45.08232" lon="5.89081">
        <ele>515</ele>
        <time>2000-01-01T00:59:12.000Z</time>
      </trkpt>
      <trkpt lat="45.08216" lon="5.89047">
        <ele>514</ele>
        <time>2000-01-01T00:59:22.000Z</time>
      </trkpt>
      <trkpt lat="45.08191" lon="5.88993">
        <ele>512</ele>
        <time>2000-01-01T00:59:32.000Z</time>
      </trkpt>
      <trkpt lat="45.08159" lon="5.88963">
        <ele>507</ele>
        <time>2000-01-01T00:59:42.000Z</time>
      </trkpt>
      <trkpt lat="45.0815" lon="5.88915">
        <ele>507</ele>
        <time>2000-01-01T00:59:52.000Z</time>
      </trkpt>
      <trkpt lat="45.08141" lon="5.88868">
        <ele>506</ele>
        <time>2000-01-01T01:00:02.000Z</time>
      </trkpt>
      <trkpt lat="45.08126" lon="5.88787">
        <ele>505</ele>
        <time>2000-01-01T01:00:12.000Z</time>
      </trkpt>
      <trkpt lat="45.08115" lon="5.88755">
        <ele>503</ele>
        <time>2000-01-01T01:00:22.000Z</time>
      </trkpt>
      <trkpt lat="45.08103" lon="5.88718">
        <ele>503</ele>
        <time>2000-01-01T01:00:32.000Z</time>
      </trkpt>
      <trkpt lat="45.08083" lon="5.88679">
        <ele>501</ele>
        <time>2000-01-01T01:00:42.000Z</time>
      </trkpt>
      <trkpt lat="45.08063" lon="5.8864">
        <ele>500</ele>
        <time>2000-01-01T01:00:52.000Z</time>
      </trkpt>
      <trkpt lat="45.08032" lon="5.88579">
        <ele>499</ele>
        <time>2000-01-01T01:01:02.000Z</time>
      </trkpt>
      <trkpt lat="45.08013" lon="5.88559">
        <ele>497</ele>
        <time>2000-01-01T01:01:12.000Z</time>
      </trkpt>
      <trkpt lat="45.07993" lon="5.88538">
        <ele>495</ele>
        <time>2000-01-01T01:01:22.000Z</time>
      </trkpt>
      <trkpt lat="45.07961" lon="5.88545">
        <ele>494</ele>
        <time>2000-01-01T01:01:32.000Z</time>
      </trkpt>
      <trkpt lat="45.0798" lon="5.88585">
        <ele>494</ele>
        <time>2000-01-01T01:01:42.000Z</time>
      </trkpt>
      <trkpt lat="45.07999" lon="5.88626">
        <ele>496</ele>
        <time>2000-01-01T01:01:52.000Z</time>
      </trkpt>
      <trkpt lat="45.08028" lon="5.88688">
        <ele>496</ele>
        <time>2000-01-01T01:02:02.000Z</time>
      </trkpt>
      <trkpt lat="45.0804" lon="5.88717">
        <ele>499</ele>
        <time>2000-01-01T01:02:12.000Z</time>
      </trkpt>
      <trkpt lat="45.08053" lon="5.88748">
        <ele>499</ele>
        <time>2000-01-01T01:02:22.000Z</time>
      </trkpt>
      <trkpt lat="45.08066" lon="5.88802">
        <ele>488</ele>
        <time>2000-01-01T01:02:32.000Z</time>
      </trkpt>
      <trkpt lat="45.08064" lon="5.88842">
        <ele>482</ele>
        <time>2000-01-01T01:02:42.000Z</time>
      </trkpt>
      <trkpt lat="45.08061" lon="5.88899">
        <ele>482</ele>
        <time>2000-01-01T01:02:52.000Z</time>
      </trkpt>
      <trkpt lat="45.08066" lon="5.88963">
        <ele>483</ele>
        <time>2000-01-01T01:03:02.000Z</time>
      </trkpt>
      <trkpt lat="45.08075" lon="5.88993">
        <ele>484</ele>
        <time>2000-01-01T01:03:12.000Z</time>
      </trkpt>
      <trkpt lat="45.08097" lon="5.88993">
        <ele>484</ele>
        <time>2000-01-01T01:03:22.000Z</time>
      </trkpt>
      <trkpt lat="45.08105" lon="5.88935">
        <ele>490</ele>
        <time>2000-01-01T01:03:32.000Z</time>
      </trkpt>
      <trkpt lat="45.08131" lon="5.88954">
        <ele>493</ele>
        <time>2000-01-01T01:03:42.000Z</time>
      </trkpt>
      <trkpt lat="45.08148" lon="5.88981">
        <ele>496</ele>
        <time>2000-01-01T01:03:52.000Z</time>
      </trkpt>
      <trkpt lat="45.08169" lon="5.89012">
        <ele>501</ele>
        <time>2000-01-01T01:04:02.000Z</time>
      </trkpt>
      <trkpt lat="45.08181" lon="5.89043">
        <ele>510</ele>
        <time>2000-01-01T01:04:12.000Z</time>
      </trkpt>
      <trkpt lat="45.08194" lon="5.89079">
        <ele>510</ele>
        <time>2000-01-01T01:04:22.000Z</time>
      </trkpt>
      <trkpt lat="45.0821" lon="5.89111">
        <ele>515</ele>
        <time>2000-01-01T01:04:32.000Z</time>
      </trkpt>
      <trkpt lat="45.08234" lon="5.89156">
        <ele>517</ele>
        <time>2000-01-01T01:04:42.000Z</time>
      </trkpt>
      <trkpt lat="45.08255" lon="5.89183">
        <ele>518</ele>
        <time>2000-01-01T01:04:52.000Z</time>
      </trkpt>
      <trkpt lat="45.08285" lon="5.89223">
        <ele>520</ele>
        <time>2000-01-01T01:05:02.000Z</time>
      </trkpt>
      <trkpt lat="45.08302" lon="5.89254">
        <ele>521</ele>
        <time>2000-01-01T01:05:12.000Z</time>
      </trkpt>
      <trkpt lat="45.08326" lon="5.89298">
        <ele>523</ele>
        <time>2000-01-01T01:05:22.000Z</time>
      </trkpt>
      <trkpt lat="45.08346" lon="5.89331">
        <ele>525</ele>
        <time>2000-01-01T01:05:32.000Z</time>
      </trkpt>
      <trkpt lat="45.08382" lon="5.89392">
        <ele>527</ele>
        <time>2000-01-01T01:05:42.000Z</time>
      </trkpt>
      <trkpt lat="45.08405" lon="5.89422">
        <ele>529</ele>
        <time>2000-01-01T01:05:52.000Z</time>
      </trkpt>
      <trkpt lat="45.08449" lon="5.89478">
        <ele>531</ele>
        <time>2000-01-01T01:06:02.000Z</time>
      </trkpt>
      <trkpt lat="45.08467" lon="5.89511">
        <ele>533</ele>
        <time>2000-01-01T01:06:12.000Z</time>
      </trkpt>
      <trkpt lat="45.08497" lon="5.89566">
        <ele>535</ele>
        <time>2000-01-01T01:06:22.000Z</time>
      </trkpt>
      <trkpt lat="45.08515" lon="5.8959">
        <ele>536</ele>
        <time>2000-01-01T01:06:32.000Z</time>
      </trkpt>
      <trkpt lat="45.08535" lon="5.89617">
        <ele>537</ele>
        <time>2000-01-01T01:06:42.000Z</time>
      </trkpt>
      <trkpt lat="45.0856" lon="5.89642">
        <ele>538</ele>
        <time>2000-01-01T01:06:52.000Z</time>
      </trkpt>
      <trkpt lat="45.08603" lon="5.89686">
        <ele>538</ele>
        <time>2000-01-01T01:07:02.000Z</time>
      </trkpt>
      <trkpt lat="45.08616" lon="5.89731">
        <ele>538</ele>
        <time>2000-01-01T01:07:12.000Z</time>
      </trkpt>
      <trkpt lat="45.08628" lon="5.89776">
        <ele>533</ele>
        <time>2000-01-01T01:07:22.000Z</time>
      </trkpt>
      <trkpt lat="45.08649" lon="5.89849">
        <ele>523</ele>
        <time>2000-01-01T01:07:32.000Z</time>
      </trkpt>
      <trkpt lat="45.08674" lon="5.89855">
        <ele>523</ele>
        <time>2000-01-01T01:07:42.000Z</time>
      </trkpt>
      <trkpt lat="45.08702" lon="5.89862">
        <ele>520</ele>
        <time>2000-01-01T01:07:52.000Z</time>
      </trkpt>
      <trkpt lat="45.08693" lon="5.89895">
        <ele>520</ele>
        <time>2000-01-01T01:08:02.000Z</time>
      </trkpt>
      <trkpt lat="45.08682" lon="5.89933">
        <ele>518</ele>
        <time>2000-01-01T01:08:12.000Z</time>
      </trkpt>
      <trkpt lat="45.08704" lon="5.89954">
        <ele>518</ele>
        <time>2000-01-01T01:08:22.000Z</time>
      </trkpt>
      <trkpt lat="45.08732" lon="5.8998">
        <ele>517</ele>
        <time>2000-01-01T01:08:32.000Z</time>
      </trkpt>
      <trkpt lat="45.08753" lon="5.89953">
        <ele>518</ele>
        <time>2000-01-01T01:08:42.000Z</time>
      </trkpt>
      <trkpt lat="45.08785" lon="5.89914">
        <ele>520</ele>
        <time>2000-01-01T01:08:52.000Z</time>
      </trkpt>
      <trkpt lat="45.08805" lon="5.89885">
        <ele>523</ele>
        <time>2000-01-01T01:09:02.000Z</time>
      </trkpt>
      <trkpt lat="45.08834" lon="5.89841">
        <ele>540</ele>
        <time>2000-01-01T01:09:12.000Z</time>
      </trkpt>
      <trkpt lat="45.08809" lon="5.89817">
        <ele>543</ele>
        <time>2000-01-01T01:09:22.000Z</time>
      </trkpt>
      <trkpt lat="45.08764" lon="5.89774">
        <ele>547</ele>
        <time>2000-01-01T01:09:32.000Z</time>
      </trkpt>
      <trkpt lat="45.08744" lon="5.89748">
        <ele>547</ele>
        <time>2000-01-01T01:09:42.000Z</time>
      </trkpt>
      <trkpt lat="45.08719" lon="5.89716">
        <ele>546</ele>
        <time>2000-01-01T01:09:52.000Z</time>
      </trkpt>
      <trkpt lat="45.08694" lon="5.89713">
        <ele>546</ele>
        <time>2000-01-01T01:10:02.000Z</time>
      </trkpt>
      <trkpt lat="45.08666" lon="5.89709">
        <ele>546</ele>
        <time>2000-01-01T01:10:12.000Z</time>
      </trkpt>
      <trkpt lat="45.0868" lon="5.89703">
        <ele>546.2</ele>
        <time>2000-01-01T01:10:22.000Z</time>
      </trkpt>
      <trkpt lat="45.08688" lon="5.89709">
        <ele>546</ele>
        <time>2000-01-01T01:10:32.000Z</time>
      </trkpt>
      <trkpt lat="45.08699" lon="5.89702">
        <ele>547</ele>
        <time>2000-01-01T01:10:42.000Z</time>
      </trkpt>
      <trkpt lat="45.08714" lon="5.89638">
        <ele>551</ele>
        <time>2000-01-01T01:10:52.000Z</time>
      </trkpt>
      <trkpt lat="45.08758" lon="5.89644">
        <ele>556</ele>
        <time>2000-01-01T01:11:02.000Z</time>
      </trkpt>
      <trkpt lat="45.08773" lon="5.89685">
        <ele>556</ele>
        <time>2000-01-01T01:11:12.000Z</time>
      </trkpt>
      <trkpt lat="45.08788" lon="5.89678">
        <ele>563.3</ele>
        <time>2000-01-01T01:11:22.000Z</time>
      </trkpt>
      <trkpt lat="45.08801" lon="5.89682">
        <ele>568</ele>
        <time>2000-01-01T01:11:32.000Z</time>
      </trkpt>
      <trkpt lat="45.08813" lon="5.89717">
        <ele>569</ele>
        <time>2000-01-01T01:11:42.000Z</time>
      </trkpt>
      <trkpt lat="45.08843" lon="5.89751">
        <ele>571</ele>
        <time>2000-01-01T01:11:52.000Z</time>
      </trkpt>
      <trkpt lat="45.08848" lon="5.89736">
        <ele>586.2</ele>
        <time>2000-01-01T01:12:02.000Z</time>
      </trkpt>
      <trkpt lat="45.08836" lon="5.89753">
        <ele>573</ele>
        <time>2000-01-01T01:12:12.000Z</time>
      </trkpt>
      <trkpt lat="45.08854" lon="5.89725">
        <ele>593</ele>
        <time>2000-01-01T01:12:22.000Z</time>
      </trkpt>
      <trkpt lat="45.08893" lon="5.89748">
        <ele>602</ele>
        <time>2000-01-01T01:12:32.000Z</time>
      </trkpt>
      <trkpt lat="45.08893" lon="5.89716">
        <ele>616</ele>
        <time>2000-01-01T01:12:42.000Z</time>
      </trkpt>
      <trkpt lat="45.08884" lon="5.89705">
        <ele>615.8</ele>
        <time>2000-01-01T01:12:52.000Z</time>
      </trkpt>
      <trkpt lat="45.08953" lon="5.89641">
        <ele>669</ele>
        <time>2000-01-01T01:13:02.000Z</time>
      </trkpt>
      <trkpt lat="45.08964" lon="5.8961">
        <ele>686</ele>
        <time>2000-01-01T01:13:12.000Z</time>
      </trkpt>
      <trkpt lat="45.08975" lon="5.89579">
        <ele>705</ele>
        <time>2000-01-01T01:13:22.000Z</time>
      </trkpt>
      <trkpt lat="45.08995" lon="5.89599">
        <ele>702</ele>
        <time>2000-01-01T01:13:32.000Z</time>
      </trkpt>
      <trkpt lat="45.09018" lon="5.89622">
        <ele>713</ele>
        <time>2000-01-01T01:13:42.000Z</time>
      </trkpt>
      <trkpt lat="45.09017" lon="5.89618">
        <ele>708.8</ele>
        <time>2000-01-01T01:13:52.000Z</time>
      </trkpt>
      <trkpt lat="45.0902" lon="5.89618">
        <ele>710.7</ele>
        <time>2000-01-01T01:14:02.000Z</time>
      </trkpt>
      <trkpt lat="45.09022" lon="5.89614">
        <ele>713.9</ele>
        <time>2000-01-01T01:14:12.000Z</time>
      </trkpt>
      <trkpt lat="45.09026" lon="5.89594">
        <ele>724</ele>
        <time>2000-01-01T01:14:22.000Z</time>
      </trkpt>
      <trkpt lat="45.09023" lon="5.89576">
        <ele>746.1</ele>
        <time>2000-01-01T01:14:32.000Z</time>
      </trkpt>
      <trkpt lat="45.09025" lon="5.8954">
        <ele>753</ele>
        <time>2000-01-01T01:14:42.000Z</time>
      </trkpt>
      <trkpt lat="45.09023" lon="5.89513">
        <ele>760</ele>
        <time>2000-01-01T01:14:52.000Z</time>
      </trkpt>
      <trkpt lat="45.09027" lon="5.89483">
        <ele>761</ele>
        <time>2000-01-01T01:15:02.000Z</time>
      </trkpt>
      <trkpt lat="45.09018" lon="5.89443">
        <ele>770</ele>
        <time>2000-01-01T01:15:12.000Z</time>
      </trkpt>
      <trkpt lat="45.0902" lon="5.89415">
        <ele>775</ele>
        <time>2000-01-01T01:15:22.000Z</time>
      </trkpt>
      <trkpt lat="45.09008" lon="5.894">
        <ele>777.2</ele>
        <time>2000-01-01T01:15:32.000Z</time>
      </trkpt>
      <trkpt lat="45.0901" lon="5.89396">
        <ele>764</ele>
        <time>2000-01-01T01:15:42.000Z</time>
      </trkpt>
      <trkpt lat="45.09005" lon="5.89386">
        <ele>777.3</ele>
        <time>2000-01-01T01:15:52.000Z</time>
      </trkpt>
      <trkpt lat="45.0898" lon="5.89382">
        <ele>766</ele>
        <time>2000-01-01T01:16:02.000Z</time>
      </trkpt>
      <trkpt lat="45.08964" lon="5.89375">
        <ele>757</ele>
        <time>2000-01-01T01:16:12.000Z</time>
      </trkpt>
      <trkpt lat="45.08967" lon="5.89365">
        <ele>768</ele>
        <time>2000-01-01T01:16:22.000Z</time>
      </trkpt>
      <trkpt lat="45.08962" lon="5.89346">
        <ele>771.7</ele>
        <time>2000-01-01T01:16:32.000Z</time>
      </trkpt>
      <trkpt lat="45.08947" lon="5.89334">
        <ele>790</ele>
        <time>2000-01-01T01:16:42.000Z</time>
      </trkpt>
      <trkpt lat="45.08926" lon="5.89323">
        <ele>793</ele>
        <time>2000-01-01T01:16:52.000Z</time>
      </trkpt>
      <trkpt lat="45.08913" lon="5.8931">
        <ele>800.2</ele>
        <time>2000-01-01T01:17:02.000Z</time>
      </trkpt>
      <trkpt lat="45.08911" lon="5.89304">
        <ele>806</ele>
        <time>2000-01-01T01:17:12.000Z</time>
      </trkpt>
      <trkpt lat="45.0893" lon="5.89288">
        <ele>814</ele>
        <time>2000-01-01T01:17:22.000Z</time>
      </trkpt>
      <trkpt lat="45.08934" lon="5.89282">
        <ele>814.2</ele>
        <time>2000-01-01T01:17:32.000Z</time>
      </trkpt>
      <trkpt lat="45.0892" lon="5.89275">
        <ele>821</ele>
        <time>2000-01-01T01:17:42.000Z</time>
      </trkpt>
      <trkpt lat="45.08934" lon="5.89252">
        <ele>831</ele>
        <time>2000-01-01T01:17:52.000Z</time>
      </trkpt>
      <trkpt lat="45.08946" lon="5.89246">
        <ele>832.6</ele>
        <time>2000-01-01T01:18:02.000Z</time>
      </trkpt>
      <trkpt lat="45.08937" lon="5.89231">
        <ele>843</ele>
        <time>2000-01-01T01:18:12.000Z</time>
      </trkpt>
      <trkpt lat="45.08952" lon="5.89198">
        <ele>859</ele>
        <time>2000-01-01T01:18:22.000Z</time>
      </trkpt>
      <trkpt lat="45.08935" lon="5.89199">
        <ele>857.8</ele>
        <time>2000-01-01T01:18:32.000Z</time>
      </trkpt>
      <trkpt lat="45.0892" lon="5.89182">
        <ele>872</ele>
        <time>2000-01-01T01:18:42.000Z</time>
      </trkpt>
      <trkpt lat="45.08902" lon="5.89179">
        <ele>870</ele>
        <time>2000-01-01T01:18:52.000Z</time>
      </trkpt>
      <trkpt lat="45.08892" lon="5.89164">
        <ele>877</ele>
        <time>2000-01-01T01:19:02.000Z</time>
      </trkpt>
      <trkpt lat="45.08884" lon="5.89143">
        <ele>881.9</ele>
        <time>2000-01-01T01:19:12.000Z</time>
      </trkpt>
      <trkpt lat="45.08888" lon="5.89138">
        <ele>885</ele>
        <time>2000-01-01T01:19:22.000Z</time>
      </trkpt>
      <trkpt lat="45.0889" lon="5.89141">
        <ele>885.4</ele>
        <time>2000-01-01T01:19:32.000Z</time>
      </trkpt>
      <trkpt lat="45.08889" lon="5.8911">
        <ele>894</ele>
        <time>2000-01-01T01:19:42.000Z</time>
      </trkpt>
      <trkpt lat="45.08885" lon="5.89086">
        <ele>902.9</ele>
        <time>2000-01-01T01:19:52.000Z</time>
      </trkpt>
      <trkpt lat="45.08869" lon="5.89065">
        <ele>901</ele>
        <time>2000-01-01T01:20:02.000Z</time>
      </trkpt>
      <trkpt lat="45.08859" lon="5.8906">
        <ele>901.5</ele>
        <time>2000-01-01T01:20:12.000Z</time>
      </trkpt>
      <trkpt lat="45.08861" lon="5.89057">
        <ele>903.3</ele>
        <time>2000-01-01T01:20:22.000Z</time>
      </trkpt>
      <trkpt lat="45.08857" lon="5.89049">
        <ele>906</ele>
        <time>2000-01-01T01:20:32.000Z</time>
      </trkpt>
      <trkpt lat="45.08844" lon="5.89042">
        <ele>911.5</ele>
        <time>2000-01-01T01:20:42.000Z</time>
      </trkpt>
      <trkpt lat="45.08826" lon="5.89041">
        <ele>912</ele>
        <time>2000-01-01T01:20:52.000Z</time>
      </trkpt>
      <trkpt lat="45.0882" lon="5.8902">
        <ele>927.2</ele>
        <time>2000-01-01T01:21:02.000Z</time>
      </trkpt>
      <trkpt lat="45.08833" lon="5.89009">
        <ele>942</ele>
        <time>2000-01-01T01:21:12.000Z</time>
      </trkpt>
      <trkpt lat="45.08838" lon="5.89001">
        <ele>942.5</ele>
        <time>2000-01-01T01:21:22.000Z</time>
      </trkpt>
      <trkpt lat="45.08837" lon="5.88982">
        <ele>954</ele>
        <time>2000-01-01T01:21:32.000Z</time>
      </trkpt>
      <trkpt lat="45.08836" lon="5.88979">
        <ele>957.4</ele>
        <time>2000-01-01T01:21:42.000Z</time>
      </trkpt>
      <trkpt lat="45.08826" lon="5.88978">
        <ele>957.4</ele>
        <time>2000-01-01T01:21:52.000Z</time>
      </trkpt>
      <trkpt lat="45.08802" lon="5.88963">
        <ele>976</ele>
        <time>2000-01-01T01:22:02.000Z</time>
      </trkpt>
      <trkpt lat="45.08801" lon="5.88956">
        <ele>976.1</ele>
        <time>2000-01-01T01:22:12.000Z</time>
      </trkpt>
      <trkpt lat="45.08804" lon="5.88943">
        <ele>985.5</ele>
        <time>2000-01-01T01:22:22.000Z</time>
      </trkpt>
      <trkpt lat="45.08798" lon="5.88929">
        <ele>998</ele>
        <time>2000-01-01T01:22:32.000Z</time>
      </trkpt>
      <trkpt lat="45.08796" lon="5.88914">
        <ele>1005.1</ele>
        <time>2000-01-01T01:22:42.000Z</time>
      </trkpt>
      <trkpt lat="45.08784" lon="5.88889">
        <ele>1010</ele>
        <time>2000-01-01T01:22:52.000Z</time>
      </trkpt>
      <trkpt lat="45.08777" lon="5.88831">
        <ele>1016</ele>
        <time>2000-01-01T01:23:02.000Z</time>
      </trkpt>
      <trkpt lat="45.08779" lon="5.88818">
        <ele>1025.3</ele>
        <time>2000-01-01T01:23:12.000Z</time>
      </trkpt>
      <trkpt lat="45.08782" lon="5.88822">
        <ele>1026.4</ele>
        <time>2000-01-01T01:23:22.000Z</time>
      </trkpt>
      <trkpt lat="45.08786" lon="5.88823">
        <ele>1029</ele>
        <time>2000-01-01T01:23:32.000Z</time>
      </trkpt>
      <trkpt lat="45.08791" lon="5.88821">
        <ele>1030</ele>
        <time>2000-01-01T01:23:42.000Z</time>
      </trkpt>
      <trkpt lat="45.08794" lon="5.88811">
        <ele>1037.4</ele>
        <time>2000-01-01T01:23:52.000Z</time>
      </trkpt>
      <trkpt lat="45.08797" lon="5.8881">
        <ele>1039.6</ele>
        <time>2000-01-01T01:24:02.000Z</time>
      </trkpt>
      <trkpt lat="45.08796" lon="5.88813">
        <ele>1038.4</ele>
        <time>2000-01-01T01:24:12.000Z</time>
      </trkpt>
      <trkpt lat="45.08805" lon="5.88834">
        <ele>1035</ele>
        <time>2000-01-01T01:24:22.000Z</time>
      </trkpt>
      <trkpt lat="45.08814" lon="5.88839">
        <ele>1044.8</ele>
        <time>2000-01-01T01:24:32.000Z</time>
      </trkpt>
      <trkpt lat="45.08819" lon="5.88832">
        <ele>1050</ele>
        <time>2000-01-01T01:24:42.000Z</time>
      </trkpt>
      <trkpt lat="45.08826" lon="5.888">
        <ele>1060</ele>
        <time>2000-01-01T01:24:52.000Z</time>
      </trkpt>
      <trkpt lat="45.08835" lon="5.88806">
        <ele>1065.3</ele>
        <time>2000-01-01T01:25:02.000Z</time>
      </trkpt>
      <trkpt lat="45.08843" lon="5.88806">
        <ele>1067.3</ele>
        <time>2000-01-01T01:25:12.000Z</time>
      </trkpt>
      <trkpt lat="45.08853" lon="5.88802">
        <ele>1073</ele>
        <time>2000-01-01T01:25:22.000Z</time>
      </trkpt>
      <trkpt lat="45.0886" lon="5.88793">
        <ele>1077.1</ele>
        <time>2000-01-01T01:25:32.000Z</time>
      </trkpt>
      <trkpt lat="45.08858" lon="5.88778">
        <ele>1084</ele>
        <time>2000-01-01T01:25:42.000Z</time>
      </trkpt>
      <trkpt lat="45.08872" lon="5.88765">
        <ele>1092.3</ele>
        <time>2000-01-01T01:25:52.000Z</time>
      </trkpt>
      <trkpt lat="45.08898" lon="5.88764">
        <ele>1095</ele>
        <time>2000-01-01T01:26:02.000Z</time>
      </trkpt>
      <trkpt lat="45.08895" lon="5.88753">
        <ele>1103.6</ele>
        <time>2000-01-01T01:26:12.000Z</time>
      </trkpt>
      <trkpt lat="45.0888" lon="5.88745">
        <ele>1111</ele>
        <time>2000-01-01T01:26:22.000Z</time>
      </trkpt>
      <trkpt lat="45.0887" lon="5.88728">
        <ele>1116</ele>
        <time>2000-01-01T01:26:32.000Z</time>
      </trkpt>
      <trkpt lat="45.08867" lon="5.88695">
        <ele>1129</ele>
        <time>2000-01-01T01:26:42.000Z</time>
      </trkpt>
      <trkpt lat="45.08863" lon="5.88678">
        <ele>1135.5</ele>
        <time>2000-01-01T01:26:52.000Z</time>
      </trkpt>
      <trkpt lat="45.08864" lon="5.88669">
        <ele>1141</ele>
        <time>2000-01-01T01:27:02.000Z</time>
      </trkpt>
      <trkpt lat="45.08873" lon="5.88672">
        <ele>1143.8</ele>
        <time>2000-01-01T01:27:12.000Z</time>
      </trkpt>
      <trkpt lat="45.08877" lon="5.88667">
        <ele>1148.6</ele>
        <time>2000-01-01T01:27:22.000Z</time>
      </trkpt>
      <trkpt lat="45.08875" lon="5.8864">
        <ele>1160</ele>
        <time>2000-01-01T01:27:32.000Z</time>
      </trkpt>
      <trkpt lat="45.08878" lon="5.88647">
        <ele>1159.8</ele>
        <time>2000-01-01T01:27:42.000Z</time>
      </trkpt>
      <trkpt lat="45.08895" lon="5.88657">
        <ele>1167</ele>
        <time>2000-01-01T01:27:52.000Z</time>
      </trkpt>
      <trkpt lat="45.08904" lon="5.8866">
        <ele>1169.1</ele>
        <time>2000-01-01T01:28:02.000Z</time>
      </trkpt>
      <trkpt lat="45.08917" lon="5.88658">
        <ele>1180</ele>
        <time>2000-01-01T01:28:12.000Z</time>
      </trkpt>
      <trkpt lat="45.08916" lon="5.8865">
        <ele>1182.2</ele>
        <time>2000-01-01T01:28:22.000Z</time>
      </trkpt>
      <trkpt lat="45.08925" lon="5.88636">
        <ele>1194</ele>
        <time>2000-01-01T01:28:32.000Z</time>
      </trkpt>
      <trkpt lat="45.08922" lon="5.88613">
        <ele>1203.2</ele>
        <time>2000-01-01T01:28:42.000Z</time>
      </trkpt>
      <trkpt lat="45.08947" lon="5.88595">
        <ele>1219</ele>
        <time>2000-01-01T01:28:52.000Z</time>
      </trkpt>
      <trkpt lat="45.08948" lon="5.88583">
        <ele>1223.7</ele>
        <time>2000-01-01T01:29:02.000Z</time>
      </trkpt>
      <trkpt lat="45.08937" lon="5.88568">
        <ele>1234</ele>
        <time>2000-01-01T01:29:12.000Z</time>
      </trkpt>
      <trkpt lat="45.08941" lon="5.88562">
        <ele>1236.1</ele>
        <time>2000-01-01T01:29:22.000Z</time>
      </trkpt>
      <trkpt lat="45.08946" lon="5.88561">
        <ele>1236.6</ele>
        <time>2000-01-01T01:29:32.000Z</time>
      </trkpt>
      <trkpt lat="45.08954" lon="5.88552">
        <ele>1244</ele>
        <time>2000-01-01T01:29:42.000Z</time>
      </trkpt>
      <trkpt lat="45.08954" lon="5.88542">
        <ele>1248.9</ele>
        <time>2000-01-01T01:29:52.000Z</time>
      </trkpt>
      <trkpt lat="45.08957" lon="5.88535">
        <ele>1253.5</ele>
        <time>2000-01-01T01:30:02.000Z</time>
      </trkpt>
      <trkpt lat="45.08962" lon="5.88531">
        <ele>1255.2</ele>
        <time>2000-01-01T01:30:12.000Z</time>
      </trkpt>
      <trkpt lat="45.08959" lon="5.88521">
        <ele>1265</ele>
        <time>2000-01-01T01:30:22.000Z</time>
      </trkpt>
      <trkpt lat="45.08949" lon="5.88515">
        <ele>1269.7</ele>
        <time>2000-01-01T01:30:32.000Z</time>
      </trkpt>
      <trkpt lat="45.08947" lon="5.88511">
        <ele>1272.9</ele>
        <time>2000-01-01T01:30:42.000Z</time>
      </trkpt>
      <trkpt lat="45.08948" lon="5.88505">
        <ele>1276.9</ele>
        <time>2000-01-01T01:30:52.000Z</time>
      </trkpt>
      <trkpt lat="45.0893" lon="5.88488">
        <ele>1293</ele>
        <time>2000-01-01T01:31:02.000Z</time>
      </trkpt>
      <trkpt lat="45.08928" lon="5.88482">
        <ele>1292.9</ele>
        <time>2000-01-01T01:31:12.000Z</time>
      </trkpt>
      <trkpt lat="45.08929" lon="5.88474">
        <ele>1298.9</ele>
        <time>2000-01-01T01:31:22.000Z</time>
      </trkpt>
      <trkpt lat="45.08922" lon="5.8847">
        <ele>1300.6</ele>
        <time>2000-01-01T01:31:32.000Z</time>
      </trkpt>
      <trkpt lat="45.08917" lon="5.88461">
        <ele>1306</ele>
        <time>2000-01-01T01:31:42.000Z</time>
      </trkpt>
      <trkpt lat="45.08908" lon="5.88439">
        <ele>1317.4</ele>
        <time>2000-01-01T01:31:52.000Z</time>
      </trkpt>
      <trkpt lat="45.08917" lon="5.88432">
        <ele>1321</ele>
        <time>2000-01-01T01:32:02.000Z</time>
      </trkpt>
      <trkpt lat="45.08917" lon="5.88425">
        <ele>1328.9</ele>
        <time>2000-01-01T01:32:12.000Z</time>
      </trkpt>
      <trkpt lat="45.08901" lon="5.88396">
        <ele>1344</ele>
        <time>2000-01-01T01:32:22.000Z</time>
      </trkpt>
      <trkpt lat="45.0891" lon="5.88384">
        <ele>1350.8</ele>
        <time>2000-01-01T01:32:32.000Z</time>
      </trkpt>
      <trkpt lat="45.08905" lon="5.88378">
        <ele>1351.6</ele>
        <time>2000-01-01T01:32:42.000Z</time>
      </trkpt>
      <trkpt lat="45.08905" lon="5.88351">
        <ele>1361</ele>
        <time>2000-01-01T01:32:52.000Z</time>
      </trkpt>
      <trkpt lat="45.08911" lon="5.88339">
        <ele>1369.9</ele>
        <time>2000-01-01T01:33:02.000Z</time>
      </trkpt>
      <trkpt lat="45.08927" lon="5.88273">
        <ele>1376</ele>
        <time>2000-01-01T01:33:12.000Z</time>
      </trkpt>
      <trkpt lat="45.08936" lon="5.88253">
        <ele>1391.1</ele>
        <time>2000-01-01T01:33:22.000Z</time>
      </trkpt>
      <trkpt lat="45.08944" lon="5.88246">
        <ele>1394</ele>
        <time>2000-01-01T01:33:32.000Z</time>
      </trkpt>
      <trkpt lat="45.08947" lon="5.88252">
        <ele>1404.8</ele>
        <time>2000-01-01T01:33:42.000Z</time>
      </trkpt>
      <trkpt lat="45.08944" lon="5.88266">
        <ele>1408.6</ele>
        <time>2000-01-01T01:33:52.000Z</time>
      </trkpt>
      <trkpt lat="45.08955" lon="5.88297">
        <ele>1420</ele>
        <time>2000-01-01T01:34:02.000Z</time>
      </trkpt>
      <trkpt lat="45.08964" lon="5.883">
        <ele>1425.4</ele>
        <time>2000-01-01T01:34:12.000Z</time>
      </trkpt>
      <trkpt lat="45.08969" lon="5.88292">
        <ele>1431.6</ele>
        <time>2000-01-01T01:34:22.000Z</time>
      </trkpt>
      <trkpt lat="45.08991" lon="5.88204">
        <ele>1451</ele>
        <time>2000-01-01T01:34:32.000Z</time>
      </trkpt>
      <trkpt lat="45.09001" lon="5.88197">
        <ele>1461.5</ele>
        <time>2000-01-01T01:34:42.000Z</time>
      </trkpt>
      <trkpt lat="45.09011" lon="5.88203">
        <ele>1465</ele>
        <time>2000-01-01T01:34:52.000Z</time>
      </trkpt>
      <trkpt lat="45.09005" lon="5.88228">
        <ele>1473.5</ele>
        <time>2000-01-01T01:35:02.000Z</time>
      </trkpt>
      <trkpt lat="45.09011" lon="5.88243">
        <ele>1478</ele>
        <time>2000-01-01T01:35:12.000Z</time>
      </trkpt>
      <trkpt lat="45.09022" lon="5.88236">
        <ele>1481.2</ele>
        <time>2000-01-01T01:35:22.000Z</time>
      </trkpt>
      <trkpt lat="45.09028" lon="5.88226">
        <ele>1480</ele>
        <time>2000-01-01T01:35:32.000Z</time>
      </trkpt>
      <trkpt lat="45.09033" lon="5.88224">
        <ele>1489.4</ele>
        <time>2000-01-01T01:35:42.000Z</time>
      </trkpt>
      <trkpt lat="45.0904" lon="5.88235">
        <ele>1487.6</ele>
        <time>2000-01-01T01:35:52.000Z</time>
      </trkpt>
      <trkpt lat="45.09043" lon="5.88234">
        <ele>1489</ele>
        <time>2000-01-01T01:36:02.000Z</time>
      </trkpt>
      <trkpt lat="45.09045" lon="5.88228">
        <ele>1499</ele>
        <time>2000-01-01T01:36:12.000Z</time>
      </trkpt>
      <trkpt lat="45.09051" lon="5.88226">
        <ele>1497.5</ele>
        <time>2000-01-01T01:36:22.000Z</time>
      </trkpt>
      <trkpt lat="45.0905" lon="5.8821">
        <ele>1502.4</ele>
        <time>2000-01-01T01:36:32.000Z</time>
      </trkpt>
      <trkpt lat="45.09066" lon="5.88203">
        <ele>1515</ele>
        <time>2000-01-01T01:36:42.000Z</time>
      </trkpt>
      <trkpt lat="45.09081" lon="5.88185">
        <ele>1521</ele>
        <time>2000-01-01T01:36:52.000Z</time>
      </trkpt>
      <trkpt lat="45.09093" lon="5.88183">
        <ele>1511.7</ele>
        <time>2000-01-01T01:37:02.000Z</time>
      </trkpt>
      <trkpt lat="45.09116" lon="5.88167">
        <ele>1521</ele>
        <time>2000-01-01T01:37:12.000Z</time>
      </trkpt>
      <trkpt lat="45.09129" lon="5.88165">
        <ele>1516.2</ele>
        <time>2000-01-01T01:37:22.000Z</time>
      </trkpt>
      <trkpt lat="45.09128" lon="5.8814">
        <ele>1540</ele>
        <time>2000-01-01T01:37:32.000Z</time>
      </trkpt>
      <trkpt lat="45.09141" lon="5.88136">
        <ele>1549</ele>
        <time>2000-01-01T01:37:42.000Z</time>
      </trkpt>
      <trkpt lat="45.09143" lon="5.88131">
        <ele>1551.4</ele>
        <time>2000-01-01T01:37:52.000Z</time>
      </trkpt>
      <trkpt lat="45.09135" lon="5.88103">
        <ele>1561</ele>
        <time>2000-01-01T01:38:02.000Z</time>
      </trkpt>
      <trkpt lat="45.09147" lon="5.88104">
        <ele>1565.7</ele>
        <time>2000-01-01T01:38:12.000Z</time>
      </trkpt>
      <trkpt lat="45.09158" lon="5.88099">
        <ele>1573</ele>
        <time>2000-01-01T01:38:22.000Z</time>
      </trkpt>
      <trkpt lat="45.09166" lon="5.88089">
        <ele>1573.1</ele>
        <time>2000-01-01T01:38:32.000Z</time>
      </trkpt>
      <trkpt lat="45.09175" lon="5.88069">
        <ele>1576</ele>
        <time>2000-01-01T01:38:42.000Z</time>
      </trkpt>
      <trkpt lat="45.09183" lon="5.88043">
        <ele>1579</ele>
        <time>2000-01-01T01:38:52.000Z</time>
      </trkpt>
      <trkpt lat="45.09198" lon="5.88016">
        <ele>1583</ele>
        <time>2000-01-01T01:39:02.000Z</time>
      </trkpt>
      <trkpt lat="45.09226" lon="5.87982">
        <ele>1587</ele>
        <time>2000-01-01T01:39:12.000Z</time>
      </trkpt>
      <trkpt lat="45.09261" lon="5.87996">
        <ele>1592</ele>
        <time>2000-01-01T01:39:22.000Z</time>
      </trkpt>
      <trkpt lat="45.09271" lon="5.87994">
        <ele>1593.4</ele>
        <time>2000-01-01T01:39:32.000Z</time>
      </trkpt>
      <trkpt lat="45.09286" lon="5.88">
        <ele>1595</ele>
        <time>2000-01-01T01:39:42.000Z</time>
      </trkpt>
      <trkpt lat="45.0933" lon="5.87999">
        <ele>1603</ele>
        <time>2000-01-01T01:39:52.000Z</time>
      </trkpt>
      <trkpt lat="45.09343" lon="5.87996">
        <ele>1603.6</ele>
        <time>2000-01-01T01:40:02.000Z</time>
      </trkpt>
      <trkpt lat="45.09342" lon="5.87992">
        <ele>1603.9</ele>
        <time>2000-01-01T01:40:12.000Z</time>
      </trkpt>
      <trkpt lat="45.09307" lon="5.87968">
        <ele>1602</ele>
        <time>2000-01-01T01:40:22.000Z</time>
      </trkpt>
      <trkpt lat="45.09285" lon="5.87943">
        <ele>1601</ele>
        <time>2000-01-01T01:40:32.000Z</time>
      </trkpt>
      <trkpt lat="45.09273" lon="5.8792">
        <ele>1601</ele>
        <time>2000-01-01T01:40:42.000Z</time>
      </trkpt>
      <trkpt lat="45.09266" lon="5.87895">
        <ele>1598.3</ele>
        <time>2000-01-01T01:40:52.000Z</time>
      </trkpt>
      <trkpt lat="45.09255" lon="5.8782">
        <ele>1602</ele>
        <time>2000-01-01T01:41:02.000Z</time>
      </trkpt>
      <trkpt lat="45.09241" lon="5.8778">
        <ele>1608</ele>
        <time>2000-01-01T01:41:12.000Z</time>
      </trkpt>
      <trkpt lat="45.09215" lon="5.87702">
        <ele>1612</ele>
        <time>2000-01-01T01:41:22.000Z</time>
      </trkpt>
      <trkpt lat="45.09201" lon="5.8767">
        <ele>1612</ele>
        <time>2000-01-01T01:41:32.000Z</time>
      </trkpt>
      <trkpt lat="45.09184" lon="5.87632">
        <ele>1612</ele>
        <time>2000-01-01T01:41:42.000Z</time>
      </trkpt>
      <trkpt lat="45.092" lon="5.87595">
        <ele>1615</ele>
        <time>2000-01-01T01:41:52.000Z</time>
      </trkpt>
      <trkpt lat="45.09227" lon="5.8753">
        <ele>1626</ele>
        <time>2000-01-01T01:42:02.000Z</time>
      </trkpt>
      <trkpt lat="45.09249" lon="5.87504">
        <ele>1627</ele>
        <time>2000-01-01T01:42:12.000Z</time>
      </trkpt>
      <trkpt lat="45.09282" lon="5.87466">
        <ele>1627</ele>
        <time>2000-01-01T01:42:22.000Z</time>
      </trkpt>
      <trkpt lat="45.09315" lon="5.87472">
        <ele>1624</ele>
        <time>2000-01-01T01:42:32.000Z</time>
      </trkpt>
      <trkpt lat="45.09348" lon="5.87479">
        <ele>1624</ele>
        <time>2000-01-01T01:42:42.000Z</time>
      </trkpt>
      <trkpt lat="45.09395" lon="5.87488">
        <ele>1624</ele>
        <time>2000-01-01T01:42:52.000Z</time>
      </trkpt>
      <trkpt lat="45.09411" lon="5.87513">
        <ele>1624</ele>
        <time>2000-01-01T01:43:02.000Z</time>
      </trkpt>
      <trkpt lat="45.09427" lon="5.87538">
        <ele>1622</ele>
        <time>2000-01-01T01:43:12.000Z</time>
      </trkpt>
      <trkpt lat="45.09451" lon="5.8755">
        <ele>1618</ele>
        <time>2000-01-01T01:43:22.000Z</time>
      </trkpt>
      <trkpt lat="45.0948" lon="5.87565">
        <ele>1618</ele>
        <time>2000-01-01T01:43:32.000Z</time>
      </trkpt>
      <trkpt lat="45.09509" lon="5.8755">
        <ele>1618</ele>
        <time>2000-01-01T01:43:42.000Z</time>
      </trkpt>
      <trkpt lat="45.09565" lon="5.87521">
        <ele>1617</ele>
        <time>2000-01-01T01:43:52.000Z</time>
      </trkpt>
      <trkpt lat="45.09588" lon="5.87492">
        <ele>1616</ele>
        <time>2000-01-01T01:44:02.000Z</time>
      </trkpt>
      <trkpt lat="45.09632" lon="5.87438">
        <ele>1616</ele>
        <time>2000-01-01T01:44:12.000Z</time>
      </trkpt>
      <trkpt lat="45.09656" lon="5.87416">
        <ele>1615</ele>
        <time>2000-01-01T01:44:22.000Z</time>
      </trkpt>
      <trkpt lat="45.09691" lon="5.87385">
        <ele>1614</ele>
        <time>2000-01-01T01:44:32.000Z</time>
      </trkpt>
      <trkpt lat="45.09709" lon="5.87345">
        <ele>1614</ele>
        <time>2000-01-01T01:44:42.000Z</time>
      </trkpt>
      <trkpt lat="45.09727" lon="5.87306">
        <ele>1613</ele>
        <time>2000-01-01T01:44:52.000Z</time>
      </trkpt>
      <trkpt lat="45.0975" lon="5.87255">
        <ele>1613</ele>
        <time>2000-01-01T01:45:02.000Z</time>
      </trkpt>
      <trkpt lat="45.09765" lon="5.87284">
        <ele>1616</ele>
        <time>2000-01-01T01:45:12.000Z</time>
      </trkpt>
      <trkpt lat="45.09783" lon="5.87319">
        <ele>1618</ele>
        <time>2000-01-01T01:45:22.000Z</time>
      </trkpt>
      <trkpt lat="45.09805" lon="5.87348">
        <ele>1619</ele>
        <time>2000-01-01T01:45:32.000Z</time>
      </trkpt>
      <trkpt lat="45.09843" lon="5.87398">
        <ele>1619</ele>
        <time>2000-01-01T01:45:42.000Z</time>
      </trkpt>
      <trkpt lat="45.09847" lon="5.87439">
        <ele>1620</ele>
        <time>2000-01-01T01:45:52.000Z</time>
      </trkpt>
      <trkpt lat="45.09854" lon="5.87508">
        <ele>1620</ele>
        <time>2000-01-01T01:46:02.000Z</time>
      </trkpt>
      <trkpt lat="45.09862" lon="5.87547">
        <ele>1622</ele>
        <time>2000-01-01T01:46:12.000Z</time>
      </trkpt>
      <trkpt lat="45.09874" lon="5.87607">
        <ele>1625</ele>
        <time>2000-01-01T01:46:22.000Z</time>
      </trkpt>
      <trkpt lat="45.09883" lon="5.87642">
        <ele>1628</ele>
        <time>2000-01-01T01:46:32.000Z</time>
      </trkpt>
      <trkpt lat="45.09895" lon="5.87687">
        <ele>1629</ele>
        <time>2000-01-01T01:46:42.000Z</time>
      </trkpt>
      <trkpt lat="45.0991" lon="5.87719">
        <ele>1632</ele>
        <time>2000-01-01T01:46:52.000Z</time>
      </trkpt>
      <trkpt lat="45.09931" lon="5.87764">
        <ele>1633</ele>
        <time>2000-01-01T01:47:02.000Z</time>
      </trkpt>
      <trkpt lat="45.0995" lon="5.87785">
        <ele>1636</ele>
        <time>2000-01-01T01:47:12.000Z</time>
      </trkpt>
      <trkpt lat="45.09971" lon="5.87807">
        <ele>1640</ele>
        <time>2000-01-01T01:47:22.000Z</time>
      </trkpt>
      <trkpt lat="45.09981" lon="5.87851">
        <ele>1641</ele>
        <time>2000-01-01T01:47:32.000Z</time>
      </trkpt>
      <trkpt lat="45.09992" lon="5.87895">
        <ele>1641</ele>
        <time>2000-01-01T01:47:42.000Z</time>
      </trkpt>
      <trkpt lat="45.10004" lon="5.87949">
        <ele>1642</ele>
        <time>2000-01-01T01:47:52.000Z</time>
      </trkpt>
      <trkpt lat="45.10015" lon="5.87979">
        <ele>1643</ele>
        <time>2000-01-01T01:48:02.000Z</time>
      </trkpt>
      <trkpt lat="45.10027" lon="5.88011">
        <ele>1643</ele>
        <time>2000-01-01T01:48:12.000Z</time>
      </trkpt>
      <trkpt lat="45.10052" lon="5.8806">
        <ele>1648</ele>
        <time>2000-01-01T01:48:22.000Z</time>
      </trkpt>
      <trkpt lat="45.1006" lon="5.88093">
        <ele>1649</ele>
        <time>2000-01-01T01:48:32.000Z</time>
      </trkpt>
      <trkpt lat="45.10069" lon="5.8813">
        <ele>1650</ele>
        <time>2000-01-01T01:48:42.000Z</time>
      </trkpt>
      <trkpt lat="45.10076" lon="5.88164">
        <ele>1650</ele>
        <time>2000-01-01T01:48:52.000Z</time>
      </trkpt>
      <trkpt lat="45.10083" lon="5.88202">
        <ele>1650</ele>
        <time>2000-01-01T01:49:02.000Z</time>
      </trkpt>
      <trkpt lat="45.10088" lon="5.88239">
        <ele>1648</ele>
        <time>2000-01-01T01:49:12.000Z</time>
      </trkpt>
      <trkpt lat="45.10095" lon="5.88288">
        <ele>1648</ele>
        <time>2000-01-01T01:49:22.000Z</time>
      </trkpt>
      <trkpt lat="45.10109" lon="5.88343">
        <ele>1647</ele>
        <time>2000-01-01T01:49:32.000Z</time>
      </trkpt>
      <trkpt lat="45.10114" lon="5.8839">
        <ele>1646</ele>
        <time>2000-01-01T01:49:42.000Z</time>
      </trkpt>
      <trkpt lat="45.10118" lon="5.88437">
        <ele>1644</ele>
        <time>2000-01-01T01:49:52.000Z</time>
      </trkpt>
      <trkpt lat="45.10125" lon="5.88501">
        <ele>1643</ele>
        <time>2000-01-01T01:50:02.000Z</time>
      </trkpt>
      <trkpt lat="45.10126" lon="5.88538">
        <ele>1643</ele>
        <time>2000-01-01T01:50:12.000Z</time>
      </trkpt>
      <trkpt lat="45.10127" lon="5.88585">
        <ele>1643</ele>
        <time>2000-01-01T01:50:22.000Z</time>
      </trkpt>
      <trkpt lat="45.10123" lon="5.8862">
        <ele>1643</ele>
        <time>2000-01-01T01:50:32.000Z</time>
      </trkpt>
      <trkpt lat="45.10121" lon="5.88671">
        <ele>1642</ele>
        <time>2000-01-01T01:50:42.000Z</time>
      </trkpt>
      <trkpt lat="45.10126" lon="5.88688">
        <ele>1642.4</ele>
        <time>2000-01-01T01:50:52.000Z</time>
      </trkpt>
      <trkpt lat="45.10127" lon="5.88705">
        <ele>1641</ele>
        <time>2000-01-01T01:51:02.000Z</time>
      </trkpt>
      <trkpt lat="45.10134" lon="5.88723">
        <ele>1642.3</ele>
        <time>2000-01-01T01:51:12.000Z</time>
      </trkpt>
      <trkpt lat="45.10124" lon="5.88739">
        <ele>1642</ele>
        <time>2000-01-01T01:51:22.000Z</time>
      </trkpt>
      <trkpt lat="45.1008" lon="5.88756">
        <ele>1643</ele>
        <time>2000-01-01T01:51:32.000Z</time>
      </trkpt>
      <trkpt lat="45.10089" lon="5.88772">
        <ele>1645.8</ele>
        <time>2000-01-01T01:51:42.000Z</time>
      </trkpt>
      <trkpt lat="45.10088" lon="5.88781">
        <ele>1646</ele>
        <time>2000-01-01T01:51:52.000Z</time>
      </trkpt>
      <trkpt lat="45.10095" lon="5.88797">
        <ele>1647</ele>
        <time>2000-01-01T01:52:02.000Z</time>
      </trkpt>
      <trkpt lat="45.10105" lon="5.88805">
        <ele>1647</ele>
        <time>2000-01-01T01:52:12.000Z</time>
      </trkpt>
      <trkpt lat="45.10122" lon="5.88829">
        <ele>1647</ele>
        <time>2000-01-01T01:52:22.000Z</time>
      </trkpt>
      <trkpt lat="45.10141" lon="5.88855">
        <ele>1650</ele>
        <time>2000-01-01T01:52:32.000Z</time>
      </trkpt>
      <trkpt lat="45.10143" lon="5.88863">
        <ele>1651.3</ele>
        <time>2000-01-01T01:52:42.000Z</time>
      </trkpt>
      <trkpt lat="45.10153" lon="5.88877">
        <ele>1652</ele>
        <time>2000-01-01T01:52:52.000Z</time>
      </trkpt>
      <trkpt lat="45.10163" lon="5.88885">
        <ele>1654.3</ele>
        <time>2000-01-01T01:53:02.000Z</time>
      </trkpt>
      <trkpt lat="45.10169" lon="5.88907">
        <ele>1655</ele>
        <time>2000-01-01T01:53:12.000Z</time>
      </trkpt>
      <trkpt lat="45.10176" lon="5.88916">
        <ele>1659.6</ele>
        <time>2000-01-01T01:53:22.000Z</time>
      </trkpt>
      <trkpt lat="45.10174" lon="5.88932">
        <ele>1660</ele>
        <time>2000-01-01T01:53:32.000Z</time>
      </trkpt>
      <trkpt lat="45.10175" lon="5.88951">
        <ele>1664.5</ele>
        <time>2000-01-01T01:53:42.000Z</time>
      </trkpt>
      <trkpt lat="45.10193" lon="5.88971">
        <ele>1670</ele>
        <time>2000-01-01T01:53:52.000Z</time>
      </trkpt>
      <trkpt lat="45.10225" lon="5.88993">
        <ele>1675</ele>
        <time>2000-01-01T01:54:02.000Z</time>
      </trkpt>
      <trkpt lat="45.10242" lon="5.89019">
        <ele>1675</ele>
        <time>2000-01-01T01:54:12.000Z</time>
      </trkpt>
      <trkpt lat="45.10245" lon="5.89025">
        <ele>1674.8</ele>
        <time>2000-01-01T01:54:22.000Z</time>
      </trkpt>
      <trkpt lat="45.1025" lon="5.89067">
        <ele>1675</ele>
        <time>2000-01-01T01:54:32.000Z</time>
      </trkpt>
      <trkpt lat="45.10258" lon="5.89084">
        <ele>1677.3</ele>
        <time>2000-01-01T01:54:42.000Z</time>
      </trkpt>
      <trkpt lat="45.1026" lon="5.89108">
        <ele>1677</ele>
        <time>2000-01-01T01:54:52.000Z</time>
      </trkpt>
      <trkpt lat="45.10257" lon="5.89122">
        <ele>1681.5</ele>
        <time>2000-01-01T01:55:02.000Z</time>
      </trkpt>
      <trkpt lat="45.10262" lon="5.89138">
        <ele>1680</ele>
        <time>2000-01-01T01:55:12.000Z</time>
      </trkpt>
      <trkpt lat="45.10266" lon="5.89139">
        <ele>1681.6</ele>
        <time>2000-01-01T01:55:22.000Z</time>
      </trkpt>
      <trkpt lat="45.10271" lon="5.89157">
        <ele>1682.6</ele>
        <time>2000-01-01T01:55:32.000Z</time>
      </trkpt>
      <trkpt lat="45.10282" lon="5.8917">
        <ele>1681</ele>
        <time>2000-01-01T01:55:42.000Z</time>
      </trkpt>
      <trkpt lat="45.1029" lon="5.89186">
        <ele>1684</ele>
        <time>2000-01-01T01:55:52.000Z</time>
      </trkpt>
      <trkpt lat="45.10318" lon="5.89208">
        <ele>1685</ele>
        <time>2000-01-01T01:56:02.000Z</time>
      </trkpt>
      <trkpt lat="45.1032" lon="5.89216">
        <ele>1689.2</ele>
        <time>2000-01-01T01:56:12.000Z</time>
      </trkpt>
      <trkpt lat="45.10335" lon="5.89219">
        <ele>1690</ele>
        <time>2000-01-01T01:56:22.000Z</time>
      </trkpt>
      <trkpt lat="45.10351" lon="5.89218">
        <ele>1695</ele>
        <time>2000-01-01T01:56:32.000Z</time>
      </trkpt>
      <trkpt lat="45.10357" lon="5.89214">
        <ele>1694</ele>
        <time>2000-01-01T01:56:42.000Z</time>
      </trkpt>
      <trkpt lat="45.10389" lon="5.89222">
        <ele>1699</ele>
        <time>2000-01-01T01:56:52.000Z</time>
      </trkpt>
      <trkpt lat="45.10399" lon="5.89226">
        <ele>1703.3</ele>
        <time>2000-01-01T01:57:02.000Z</time>
      </trkpt>
      <trkpt lat="45.10409" lon="5.89237">
        <ele>1704</ele>
        <time>2000-01-01T01:57:12.000Z</time>
      </trkpt>
      <trkpt lat="45.10418" lon="5.8924">
        <ele>1707.2</ele>
        <time>2000-01-01T01:57:22.000Z</time>
      </trkpt>
      <trkpt lat="45.10435" lon="5.89253">
        <ele>1709</ele>
        <time>2000-01-01T01:57:32.000Z</time>
      </trkpt>
      <trkpt lat="45.10459" lon="5.89283">
        <ele>1713</ele>
        <time>2000-01-01T01:57:42.000Z</time>
      </trkpt>
      <trkpt lat="45.10467" lon="5.89297">
        <ele>1714</ele>
        <time>2000-01-01T01:57:52.000Z</time>
      </trkpt>
      <trkpt lat="45.10502" lon="5.8933">
        <ele>1717</ele>
        <time>2000-01-01T01:58:02.000Z</time>
      </trkpt>
      <trkpt lat="45.10511" lon="5.89334">
        <ele>1717.5</ele>
        <time>2000-01-01T01:58:12.000Z</time>
      </trkpt>
      <trkpt lat="45.10516" lon="5.89349">
        <ele>1719</ele>
        <time>2000-01-01T01:58:22.000Z</time>
      </trkpt>
      <trkpt lat="45.10523" lon="5.89358">
        <ele>1723</ele>
        <time>2000-01-01T01:58:32.000Z</time>
      </trkpt>
      <trkpt lat="45.10526" lon="5.89371">
        <ele>1723</ele>
        <time>2000-01-01T01:58:42.000Z</time>
      </trkpt>
      <trkpt lat="45.10532" lon="5.89373">
        <ele>1724.9</ele>
        <time>2000-01-01T01:58:52.000Z</time>
      </trkpt>
      <trkpt lat="45.10537" lon="5.89387">
        <ele>1726.7</ele>
        <time>2000-01-01T01:59:02.000Z</time>
      </trkpt>
      <trkpt lat="45.10542" lon="5.89391">
        <ele>1727</ele>
        <time>2000-01-01T01:59:12.000Z</time>
      </trkpt>
      <trkpt lat="45.10553" lon="5.89409">
        <ele>1730.4</ele>
        <time>2000-01-01T01:59:22.000Z</time>
      </trkpt>
      <trkpt lat="45.10553" lon="5.89415">
        <ele>1730</ele>
        <time>2000-01-01T01:59:32.000Z</time>
      </trkpt>
      <trkpt lat="45.1056" lon="5.89427">
        <ele>1732.1</ele>
        <time>2000-01-01T01:59:42.000Z</time>
      </trkpt>
      <trkpt lat="45.10559" lon="5.89434">
        <ele>1732.9</ele>
        <time>2000-01-01T01:59:52.000Z</time>
      </trkpt>
      <trkpt lat="45.10562" lon="5.8944">
        <ele>1732</ele>
        <time>2000-01-01T02:00:02.000Z</time>
      </trkpt>
      <trkpt lat="45.10577" lon="5.89463">
        <ele>1736</ele>
        <time>2000-01-01T02:00:12.000Z</time>
      </trkpt>
      <trkpt lat="45.10583" lon="5.89468">
        <ele>1735.8</ele>
        <time>2000-01-01T02:00:22.000Z</time>
      </trkpt>
      <trkpt lat="45.10583" lon="5.89474">
        <ele>1736.7</ele>
        <time>2000-01-01T02:00:32.000Z</time>
      </trkpt>
      <trkpt lat="45.10597" lon="5.8948">
        <ele>1736</ele>
        <time>2000-01-01T02:00:42.000Z</time>
      </trkpt>
      <trkpt lat="45.10598" lon="5.89484">
        <ele>1742.7</ele>
        <time>2000-01-01T02:00:52.000Z</time>
      </trkpt>
      <trkpt lat="45.10594" lon="5.8949">
        <ele>1743.9</ele>
        <time>2000-01-01T02:01:02.000Z</time>
      </trkpt>
      <trkpt lat="45.10599" lon="5.89496">
        <ele>1747</ele>
        <time>2000-01-01T02:01:12.000Z</time>
      </trkpt>
      <trkpt lat="45.10602" lon="5.89495">
        <ele>1747.3</ele>
        <time>2000-01-01T02:01:22.000Z</time>
      </trkpt>
      <trkpt lat="45.10606" lon="5.89502">
        <ele>1746</ele>
        <time>2000-01-01T02:01:32.000Z</time>
      </trkpt>
      <trkpt lat="45.10616" lon="5.89502">
        <ele>1753</ele>
        <time>2000-01-01T02:01:42.000Z</time>
      </trkpt>
      <trkpt lat="45.10623" lon="5.89507">
        <ele>1756.6</ele>
        <time>2000-01-01T02:01:52.000Z</time>
      </trkpt>
      <trkpt lat="45.10635" lon="5.89508">
        <ele>1756</ele>
        <time>2000-01-01T02:02:02.000Z</time>
      </trkpt>
      <trkpt lat="45.1064" lon="5.89517">
        <ele>1763.8</ele>
        <time>2000-01-01T02:02:12.000Z</time>
      </trkpt>
      <trkpt lat="45.10638" lon="5.89523">
        <ele>1765.4</ele>
        <time>2000-01-01T02:02:22.000Z</time>
      </trkpt>
      <trkpt lat="45.10641" lon="5.89523">
        <ele>1765.5</ele>
        <time>2000-01-01T02:02:32.000Z</time>
      </trkpt>
      <trkpt lat="45.10643" lon="5.89529">
        <ele>1765</ele>
        <time>2000-01-01T02:02:42.000Z</time>
      </trkpt>
      <trkpt lat="45.1065" lon="5.89535">
        <ele>1769.4</ele>
        <time>2000-01-01T02:02:52.000Z</time>
      </trkpt>
      <trkpt lat="45.10655" lon="5.89549">
        <ele>1770</ele>
        <time>2000-01-01T02:03:02.000Z</time>
      </trkpt>
      <trkpt lat="45.10663" lon="5.89552">
        <ele>1776.4</ele>
        <time>2000-01-01T02:03:12.000Z</time>
      </trkpt>
      <trkpt lat="45.10667" lon="5.8956">
        <ele>1779.8</ele>
        <time>2000-01-01T02:03:22.000Z</time>
      </trkpt>
      <trkpt lat="45.10673" lon="5.89559">
        <ele>1777</ele>
        <time>2000-01-01T02:03:32.000Z</time>
      </trkpt>
      <trkpt lat="45.1068" lon="5.89564">
        <ele>1782.3</ele>
        <time>2000-01-01T02:03:42.000Z</time>
      </trkpt>
      <trkpt lat="45.10682" lon="5.89563">
        <ele>1781.9</ele>
        <time>2000-01-01T02:03:52.000Z</time>
      </trkpt>
      <trkpt lat="45.10689" lon="5.8957">
        <ele>1785.8</ele>
        <time>2000-01-01T02:04:02.000Z</time>
      </trkpt>
      <trkpt lat="45.1069" lon="5.89576">
        <ele>1786</ele>
        <time>2000-01-01T02:04:12.000Z</time>
      </trkpt>
      <trkpt lat="45.10694" lon="5.8958">
        <ele>1791.3</ele>
        <time>2000-01-01T02:04:22.000Z</time>
      </trkpt>
      <trkpt lat="45.10701" lon="5.89584">
        <ele>1793.3</ele>
        <time>2000-01-01T02:04:32.000Z</time>
      </trkpt>
      <trkpt lat="45.10706" lon="5.89581">
        <ele>1791.9</ele>
        <time>2000-01-01T02:04:42.000Z</time>
      </trkpt>
      <trkpt lat="45.10719" lon="5.89591">
        <ele>1795</ele>
        <time>2000-01-01T02:04:52.000Z</time>
      </trkpt>
      <trkpt lat="45.10719" lon="5.89594">
        <ele>1797.6</ele>
        <time>2000-01-01T02:05:02.000Z</time>
      </trkpt>
      <trkpt lat="45.10727" lon="5.89595">
        <ele>1798.2</ele>
        <time>2000-01-01T02:05:12.000Z</time>
      </trkpt>
      <trkpt lat="45.10741" lon="5.89604">
        <ele>1800</ele>
        <time>2000-01-01T02:05:22.000Z</time>
      </trkpt>
      <trkpt lat="45.10755" lon="5.89621">
        <ele>1807.5</ele>
        <time>2000-01-01T02:05:32.000Z</time>
      </trkpt>
      <trkpt lat="45.10755" lon="5.89624">
        <ele>1807</ele>
        <time>2000-01-01T02:05:42.000Z</time>
      </trkpt>
      <trkpt lat="45.10763" lon="5.89626">
        <ele>1809.1</ele>
        <time>2000-01-01T02:05:52.000Z</time>
      </trkpt>
      <trkpt lat="45.10775" lon="5.89635">
        <ele>1808</ele>
        <time>2000-01-01T02:06:02.000Z</time>
      </trkpt>
      <trkpt lat="45.10788" lon="5.89653">
        <ele>1818.3</ele>
        <time>2000-01-01T02:06:12.000Z</time>
      </trkpt>
      <trkpt lat="45.10793" lon="5.89653">
        <ele>1815</ele>
        <time>2000-01-01T02:06:22.000Z</time>
      </trkpt>
      <trkpt lat="45.10793" lon="5.8965">
        <ele>1818.5</ele>
        <time>2000-01-01T02:06:32.000Z</time>
      </trkpt>
      <trkpt lat="45.10795" lon="5.89651">
        <ele>1819.2</ele>
        <time>2000-01-01T02:06:42.000Z</time>
      </trkpt>
      <trkpt lat="45.10793" lon="5.89653">
        <ele>1819.4</ele>
        <time>2000-01-01T02:06:52.000Z</time>
      </trkpt>
      <trkpt lat="45.10795" lon="5.89658">
        <ele>1821.2</ele>
        <time>2000-01-01T02:07:02.000Z</time>
      </trkpt>
      <trkpt lat="45.10803" lon="5.89662">
        <ele>1820</ele>
        <time>2000-01-01T02:07:12.000Z</time>
      </trkpt>
      <trkpt lat="45.10811" lon="5.89662">
        <ele>1826.5</ele>
        <time>2000-01-01T02:07:22.000Z</time>
      </trkpt>
      <trkpt lat="45.10811" lon="5.89665">
        <ele>1827.2</ele>
        <time>2000-01-01T02:07:32.000Z</time>
      </trkpt>
      <trkpt lat="45.10817" lon="5.89665">
        <ele>1829</ele>
        <time>2000-01-01T02:07:42.000Z</time>
      </trkpt>
      <trkpt lat="45.10827" lon="5.89674">
        <ele>1831</ele>
        <time>2000-01-01T02:07:52.000Z</time>
      </trkpt>
      <trkpt lat="45.10831" lon="5.89673">
        <ele>1834.9</ele>
        <time>2000-01-01T02:08:02.000Z</time>
      </trkpt>
      <trkpt lat="45.10839" lon="5.89681">
        <ele>1837.5</ele>
        <time>2000-01-01T02:08:12.000Z</time>
      </trkpt>
      <trkpt lat="45.10841" lon="5.89695">
        <ele>1837</ele>
        <time>2000-01-01T02:08:22.000Z</time>
      </trkpt>
      <trkpt lat="45.10848" lon="5.89706">
        <ele>1843.1</ele>
        <time>2000-01-01T02:08:32.000Z</time>
      </trkpt>
      <trkpt lat="45.10849" lon="5.89713">
        <ele>1845.1</ele>
        <time>2000-01-01T02:08:42.000Z</time>
      </trkpt>
      <trkpt lat="45.10845" lon="5.89717">
        <ele>1847</ele>
        <time>2000-01-01T02:08:52.000Z</time>
      </trkpt>
      <trkpt lat="45.10849" lon="5.89725">
        <ele>1848.7</ele>
        <time>2000-01-01T02:09:02.000Z</time>
      </trkpt>
      <trkpt lat="45.10847" lon="5.89728">
        <ele>1850.2</ele>
        <time>2000-01-01T02:09:12.000Z</time>
      </trkpt>
      <trkpt lat="45.1085" lon="5.89734">
        <ele>1851.2</ele>
        <time>2000-01-01T02:09:22.000Z</time>
      </trkpt>
      <trkpt lat="45.10845" lon="5.89736">
        <ele>1854</ele>
        <time>2000-01-01T02:09:32.000Z</time>
      </trkpt>
      <trkpt lat="45.10845" lon="5.89753">
        <ele>1857.6</ele>
        <time>2000-01-01T02:09:42.000Z</time>
      </trkpt>
      <trkpt lat="45.10848" lon="5.89769">
        <ele>1856</ele>
        <time>2000-01-01T02:09:52.000Z</time>
      </trkpt>
      <trkpt lat="45.10863" lon="5.89789">
        <ele>1859</ele>
        <time>2000-01-01T02:10:02.000Z</time>
      </trkpt>
      <trkpt lat="45.10878" lon="5.89818">
        <ele>1864</ele>
        <time>2000-01-01T02:10:12.000Z</time>
      </trkpt>
      <trkpt lat="45.10888" lon="5.89832">
        <ele>1867.7</ele>
        <time>2000-01-01T02:10:22.000Z</time>
      </trkpt>
      <trkpt lat="45.10893" lon="5.89835">
        <ele>1866</ele>
        <time>2000-01-01T02:10:32.000Z</time>
      </trkpt>
      <trkpt lat="45.10898" lon="5.89849">
        <ele>1871.5</ele>
        <time>2000-01-01T02:10:42.000Z</time>
      </trkpt>
      <trkpt lat="45.10898" lon="5.89858">
        <ele>1873.4</ele>
        <time>2000-01-01T02:10:52.000Z</time>
      </trkpt>
      <trkpt lat="45.10894" lon="5.8987">
        <ele>1875</ele>
        <time>2000-01-01T02:11:02.000Z</time>
      </trkpt>
      <trkpt lat="45.10895" lon="5.89877">
        <ele>1876.2</ele>
        <time>2000-01-01T02:11:12.000Z</time>
      </trkpt>
      <trkpt lat="45.10901" lon="5.89889">
        <ele>1876.7</ele>
        <time>2000-01-01T02:11:22.000Z</time>
      </trkpt>
      <trkpt lat="45.10908" lon="5.89893">
        <ele>1875</ele>
        <time>2000-01-01T02:11:32.000Z</time>
      </trkpt>
      <trkpt lat="45.10913" lon="5.89905">
        <ele>1875</ele>
        <time>2000-01-01T02:11:42.000Z</time>
      </trkpt>
      <trkpt lat="45.10919" lon="5.89911">
        <ele>1875</ele>
        <time>2000-01-01T02:11:52.000Z</time>
      </trkpt>
      <trkpt lat="45.10923" lon="5.89925">
        <ele>1878</ele>
        <time>2000-01-01T02:12:02.000Z</time>
      </trkpt>
      <trkpt lat="45.10927" lon="5.8993">
        <ele>1877.3</ele>
        <time>2000-01-01T02:12:12.000Z</time>
      </trkpt>
      <trkpt lat="45.10927" lon="5.89943">
        <ele>1879.6</ele>
        <time>2000-01-01T02:12:22.000Z</time>
      </trkpt>
      <trkpt lat="45.10934" lon="5.89966">
        <ele>1879</ele>
        <time>2000-01-01T02:12:32.000Z</time>
      </trkpt>
      <trkpt lat="45.10943" lon="5.89978">
        <ele>1882.3</ele>
        <time>2000-01-01T02:12:42.000Z</time>
      </trkpt>
      <trkpt lat="45.10958" lon="5.89983">
        <ele>1878</ele>
        <time>2000-01-01T02:12:52.000Z</time>
      </trkpt>
      <trkpt lat="45.10964" lon="5.89989">
        <ele>1879.5</ele>
        <time>2000-01-01T02:13:02.000Z</time>
      </trkpt>
      <trkpt lat="45.10974" lon="5.8999">
        <ele>1877.6</ele>
        <time>2000-01-01T02:13:12.000Z</time>
      </trkpt>
      <trkpt lat="45.1098" lon="5.90002">
        <ele>1878</ele>
        <time>2000-01-01T02:13:22.000Z</time>
      </trkpt>
      <trkpt lat="45.10993" lon="5.90018">
        <ele>1880</ele>
        <time>2000-01-01T02:13:32.000Z</time>
      </trkpt>
      <trkpt lat="45.10997" lon="5.9002">
        <ele>1878</ele>
        <time>2000-01-01T02:13:42.000Z</time>
      </trkpt>
      <trkpt lat="45.11009" lon="5.90045">
        <ele>1882</ele>
        <time>2000-01-01T02:13:52.000Z</time>
      </trkpt>
      <trkpt lat="45.11035" lon="5.90063">
        <ele>1887</ele>
        <time>2000-01-01T02:14:02.000Z</time>
      </trkpt>
      <trkpt lat="45.11051" lon="5.90069">
        <ele>1888.9</ele>
        <time>2000-01-01T02:14:12.000Z</time>
      </trkpt>
      <trkpt lat="45.11054" lon="5.90078">
        <ele>1888</ele>
        <time>2000-01-01T02:14:22.000Z</time>
      </trkpt>
      <trkpt lat="45.11053" lon="5.90104">
        <ele>1891.8</ele>
        <time>2000-01-01T02:14:32.000Z</time>
      </trkpt>
      <trkpt lat="45.11056" lon="5.90109">
        <ele>1891</ele>
        <time>2000-01-01T02:14:42.000Z</time>
      </trkpt>
      <trkpt lat="45.11064" lon="5.9011">
        <ele>1896</ele>
        <time>2000-01-01T02:14:52.000Z</time>
      </trkpt>
      <trkpt lat="45.11067" lon="5.90116">
        <ele>1897</ele>
        <time>2000-01-01T02:15:02.000Z</time>
      </trkpt>
      <trkpt lat="45.11071" lon="5.90116">
        <ele>1898.4</ele>
        <time>2000-01-01T02:15:12.000Z</time>
      </trkpt>
      <trkpt lat="45.11074" lon="5.90112">
        <ele>1895</ele>
        <time>2000-01-01T02:15:22.000Z</time>
      </trkpt>
      <trkpt lat="45.11081" lon="5.90112">
        <ele>1902.1</ele>
        <time>2000-01-01T02:15:32.000Z</time>
      </trkpt>
      <trkpt lat="45.11089" lon="5.9012">
        <ele>1904.8</ele>
        <time>2000-01-01T02:15:42.000Z</time>
      </trkpt>
      <trkpt lat="45.11093" lon="5.90114">
        <ele>1906</ele>
        <time>2000-01-01T02:15:52.000Z</time>
      </trkpt>
      <trkpt lat="45.11096" lon="5.90116">
        <ele>1907.9</ele>
        <time>2000-01-01T02:16:02.000Z</time>
      </trkpt>
      <trkpt lat="45.111" lon="5.90126">
        <ele>1909.5</ele>
        <time>2000-01-01T02:16:12.000Z</time>
      </trkpt>
      <trkpt lat="45.1111" lon="5.90129">
        <ele>1913</ele>
        <time>2000-01-01T02:16:22.000Z</time>
      </trkpt>
      <trkpt lat="45.1113" lon="5.90141">
        <ele>1916</ele>
        <time>2000-01-01T02:16:32.000Z</time>
      </trkpt>
      <trkpt lat="45.11136" lon="5.90138">
        <ele>1916.7</ele>
        <time>2000-01-01T02:16:42.000Z</time>
      </trkpt>
      <trkpt lat="45.11179" lon="5.90154">
        <ele>1917</ele>
        <time>2000-01-01T02:16:52.000Z</time>
      </trkpt>
      <trkpt lat="45.11194" lon="5.9017">
        <ele>1918</ele>
        <time>2000-01-01T02:17:02.000Z</time>
      </trkpt>
      <trkpt lat="45.112" lon="5.9018">
        <ele>1915</ele>
        <time>2000-01-01T02:17:12.000Z</time>
      </trkpt>
      <trkpt lat="45.11217" lon="5.90189">
        <ele>1917.7</ele>
        <time>2000-01-01T02:17:22.000Z</time>
      </trkpt>
      <trkpt lat="45.11242" lon="5.90169">
        <ele>1915</ele>
        <time>2000-01-01T02:17:32.000Z</time>
      </trkpt>
      <trkpt lat="45.11262" lon="5.90166">
        <ele>1915</ele>
        <time>2000-01-01T02:17:42.000Z</time>
      </trkpt>
      <trkpt lat="45.11281" lon="5.90188">
        <ele>1916</ele>
        <time>2000-01-01T02:17:52.000Z</time>
      </trkpt>
      <trkpt lat="45.11286" lon="5.90201">
        <ele>1918.4</ele>
        <time>2000-01-01T02:18:02.000Z</time>
      </trkpt>
      <trkpt lat="45.1129" lon="5.90204">
        <ele>1918.9</ele>
        <time>2000-01-01T02:18:12.000Z</time>
      </trkpt>
      <trkpt lat="45.11302" lon="5.90236">
        <ele>1920</ele>
        <time>2000-01-01T02:18:22.000Z</time>
      </trkpt>
      <trkpt lat="45.11309" lon="5.90239">
        <ele>1921.7</ele>
        <time>2000-01-01T02:18:32.000Z</time>
      </trkpt>
      <trkpt lat="45.11322" lon="5.90254">
        <ele>1922</ele>
        <time>2000-01-01T02:18:42.000Z</time>
      </trkpt>
      <trkpt lat="45.1133" lon="5.90258">
        <ele>1924.1</ele>
        <time>2000-01-01T02:18:52.000Z</time>
      </trkpt>
      <trkpt lat="45.11342" lon="5.9026">
        <ele>1923</ele>
        <time>2000-01-01T02:19:02.000Z</time>
      </trkpt>
      <trkpt lat="45.11354" lon="5.90267">
        <ele>1927.7</ele>
        <time>2000-01-01T02:19:12.000Z</time>
      </trkpt>
      <trkpt lat="45.11365" lon="5.90281">
        <ele>1931</ele>
        <time>2000-01-01T02:19:22.000Z</time>
      </trkpt>
      <trkpt lat="45.11395" lon="5.90304">
        <ele>1938</ele>
        <time>2000-01-01T02:19:32.000Z</time>
      </trkpt>
      <trkpt lat="45.11405" lon="5.90318">
        <ele>1947</ele>
        <time>2000-01-01T02:19:42.000Z</time>
      </trkpt>
      <trkpt lat="45.1142" lon="5.90326">
        <ele>1944</ele>
        <time>2000-01-01T02:19:52.000Z</time>
      </trkpt>
      <trkpt lat="45.11428" lon="5.90338">
        <ele>1949.5</ele>
        <time>2000-01-01T02:20:02.000Z</time>
      </trkpt>
      <trkpt lat="45.11433" lon="5.90369">
        <ele>1949</ele>
        <time>2000-01-01T02:20:12.000Z</time>
      </trkpt>
      <trkpt lat="45.11436" lon="5.90371">
        <ele>1950.3</ele>
        <time>2000-01-01T02:20:22.000Z</time>
      </trkpt>
      <trkpt lat="45.1145" lon="5.90369">
        <ele>1949.8</ele>
        <time>2000-01-01T02:20:32.000Z</time>
      </trkpt>
      <trkpt lat="45.11461" lon="5.90383">
        <ele>1950</ele>
        <time>2000-01-01T02:20:42.000Z</time>
      </trkpt>
      <trkpt lat="45.11484" lon="5.9039">
        <ele>1952</ele>
        <time>2000-01-01T02:20:52.000Z</time>
      </trkpt>
      <trkpt lat="45.11488" lon="5.90395">
        <ele>1954.5</ele>
        <time>2000-01-01T02:21:02.000Z</time>
      </trkpt>
      <trkpt lat="45.1149" lon="5.90406">
        <ele>1955.1</ele>
        <time>2000-01-01T02:21:12.000Z</time>
      </trkpt>
      <trkpt lat="45.11502" lon="5.90427">
        <ele>1954</ele>
        <time>2000-01-01T02:21:22.000Z</time>
      </trkpt>
      <trkpt lat="45.11516" lon="5.90437">
        <ele>1960</ele>
        <time>2000-01-01T02:21:32.000Z</time>
      </trkpt>
      <trkpt lat="45.11525" lon="5.90448">
        <ele>1958</ele>
        <time>2000-01-01T02:21:42.000Z</time>
      </trkpt>
      <trkpt lat="45.1155" lon="5.90452">
        <ele>1963</ele>
        <time>2000-01-01T02:21:52.000Z</time>
      </trkpt>
      <trkpt lat="45.11578" lon="5.90456">
        <ele>1968</ele>
        <time>2000-01-01T02:22:02.000Z</time>
      </trkpt>
      <trkpt lat="45.11583" lon="5.90459">
        <ele>1972.5</ele>
        <time>2000-01-01T02:22:12.000Z</time>
      </trkpt>
      <trkpt lat="45.11595" lon="5.90455">
        <ele>1973.8</ele>
        <time>2000-01-01T02:22:22.000Z</time>
      </trkpt>
      <trkpt lat="45.11598" lon="5.90459">
        <ele>1971</ele>
        <time>2000-01-01T02:22:32.000Z</time>
      </trkpt>
      <trkpt lat="45.11605" lon="5.90457">
        <ele>1975.5</ele>
        <time>2000-01-01T02:22:42.000Z</time>
      </trkpt>
      <trkpt lat="45.11611" lon="5.90462">
        <ele>1976.9</ele>
        <time>2000-01-01T02:22:52.000Z</time>
      </trkpt>
      <trkpt lat="45.11625" lon="5.90465">
        <ele>1977</ele>
        <time>2000-01-01T02:23:02.000Z</time>
      </trkpt>
      <trkpt lat="45.11638" lon="5.90478">
        <ele>1983.8</ele>
        <time>2000-01-01T02:23:12.000Z</time>
      </trkpt>
      <trkpt lat="45.11662" lon="5.90488">
        <ele>1986</ele>
        <time>2000-01-01T02:23:22.000Z</time>
      </trkpt>
      <trkpt lat="45.11674" lon="5.90488">
        <ele>1991.5</ele>
        <time>2000-01-01T02:23:32.000Z</time>
      </trkpt>
      <trkpt lat="45.11693" lon="5.90501">
        <ele>1996</ele>
        <time>2000-01-01T02:23:42.000Z</time>
      </trkpt>
      <trkpt lat="45.11717" lon="5.9053">
        <ele>2004</ele>
        <time>2000-01-01T02:23:52.000Z</time>
      </trkpt>
      <trkpt lat="45.11724" lon="5.90532">
        <ele>2008.2</ele>
        <time>2000-01-01T02:24:02.000Z</time>
      </trkpt>
      <trkpt lat="45.11734" lon="5.90539">
        <ele>2011.1</ele>
        <time>2000-01-01T02:24:12.000Z</time>
      </trkpt>
      <trkpt lat="45.11743" lon="5.90554">
        <ele>2014</ele>
        <time>2000-01-01T02:24:22.000Z</time>
      </trkpt>
      <trkpt lat="45.1175" lon="5.90561">
        <ele>2020.1</ele>
        <time>2000-01-01T02:24:32.000Z</time>
      </trkpt>
      <trkpt lat="45.11763" lon="5.90565">
        <ele>2019</ele>
        <time>2000-01-01T02:24:42.000Z</time>
      </trkpt>
      <trkpt lat="45.11766" lon="5.90572">
        <ele>2025.8</ele>
        <time>2000-01-01T02:24:52.000Z</time>
      </trkpt>
      <trkpt lat="45.11774" lon="5.90574">
        <ele>2025.9</ele>
        <time>2000-01-01T02:25:02.000Z</time>
      </trkpt>
      <trkpt lat="45.11775" lon="5.9058">
        <ele>2027</ele>
        <time>2000-01-01T02:25:12.000Z</time>
      </trkpt>
      <trkpt lat="45.11789" lon="5.90594">
        <ele>2021</ele>
        <time>2000-01-01T02:25:22.000Z</time>
      </trkpt>
      <trkpt lat="45.11798" lon="5.90612">
        <ele>2025.8</ele>
        <time>2000-01-01T02:25:32.000Z</time>
      </trkpt>
      <trkpt lat="45.11824" lon="5.90643">
        <ele>2023</ele>
        <time>2000-01-01T02:25:42.000Z</time>
      </trkpt>
      <trkpt lat="45.1185" lon="5.90652">
        <ele>2024</ele>
        <time>2000-01-01T02:25:52.000Z</time>
      </trkpt>
      <trkpt lat="45.11866" lon="5.90668">
        <ele>2024</ele>
        <time>2000-01-01T02:26:02.000Z</time>
      </trkpt>
      <trkpt lat="45.11867" lon="5.90689">
        <ele>2023</ele>
        <time>2000-01-01T02:26:12.000Z</time>
      </trkpt>
      <trkpt lat="45.11883" lon="5.9071">
        <ele>2026</ele>
        <time>2000-01-01T02:26:22.000Z</time>
      </trkpt>
      <trkpt lat="45.11896" lon="5.90721">
        <ele>2027.4</ele>
        <time>2000-01-01T02:26:32.000Z</time>
      </trkpt>
      <trkpt lat="45.11902" lon="5.90723">
        <ele>2027</ele>
        <time>2000-01-01T02:26:42.000Z</time>
      </trkpt>
      <trkpt lat="45.11914" lon="5.90735">
        <ele>2031.8</ele>
        <time>2000-01-01T02:26:52.000Z</time>
      </trkpt>
      <trkpt lat="45.1192" lon="5.90748">
        <ele>2030</ele>
        <time>2000-01-01T02:27:02.000Z</time>
      </trkpt>
      <trkpt lat="45.11935" lon="5.90756">
        <ele>2037.1</ele>
        <time>2000-01-01T02:27:12.000Z</time>
      </trkpt>
      <trkpt lat="45.11947" lon="5.90767">
        <ele>2038</ele>
        <time>2000-01-01T02:27:22.000Z</time>
      </trkpt>
      <trkpt lat="45.11956" lon="5.90789">
        <ele>2040.5</ele>
        <time>2000-01-01T02:27:32.000Z</time>
      </trkpt>
      <trkpt lat="45.11962" lon="5.90795">
        <ele>2040</ele>
        <time>2000-01-01T02:27:42.000Z</time>
      </trkpt>
      <trkpt lat="45.11963" lon="5.90814">
        <ele>2042.1</ele>
        <time>2000-01-01T02:27:52.000Z</time>
      </trkpt>
      <trkpt lat="45.11978" lon="5.90838">
        <ele>2045</ele>
        <time>2000-01-01T02:28:02.000Z</time>
      </trkpt>
      <trkpt lat="45.11982" lon="5.90839">
        <ele>2050.9</ele>
        <time>2000-01-01T02:28:12.000Z</time>
      </trkpt>
      <trkpt lat="45.11991" lon="5.9085">
        <ele>2055.6</ele>
        <time>2000-01-01T02:28:22.000Z</time>
      </trkpt>
      <trkpt lat="45.1202" lon="5.90836">
        <ele>2055</ele>
        <time>2000-01-01T02:28:32.000Z</time>
      </trkpt>
      <trkpt lat="45.1203" lon="5.90857">
        <ele>2068.3</ele>
        <time>2000-01-01T02:28:42.000Z</time>
      </trkpt>
      <trkpt lat="45.12061" lon="5.90864">
        <ele>2059</ele>
        <time>2000-01-01T02:28:52.000Z</time>
      </trkpt>
      <trkpt lat="45.12069" lon="5.90872">
        <ele>2065.4</ele>
        <time>2000-01-01T02:29:02.000Z</time>
      </trkpt>
      <trkpt lat="45.12076" lon="5.90874">
        <ele>2065.8</ele>
        <time>2000-01-01T02:29:12.000Z</time>
      </trkpt>
      <trkpt lat="45.12081" lon="5.90882">
        <ele>2063</ele>
        <time>2000-01-01T02:29:22.000Z</time>
      </trkpt>
      <trkpt lat="45.12086" lon="5.90901">
        <ele>2063.3</ele>
        <time>2000-01-01T02:29:32.000Z</time>
      </trkpt>
      <trkpt lat="45.12102" lon="5.9092">
        <ele>2060</ele>
        <time>2000-01-01T02:29:42.000Z</time>
      </trkpt>
      <trkpt lat="45.12113" lon="5.90938">
        <ele>2059.4</ele>
        <time>2000-01-01T02:29:52.000Z</time>
      </trkpt>
      <trkpt lat="45.12113" lon="5.90942">
        <ele>2059</ele>
        <time>2000-01-01T02:30:02.000Z</time>
      </trkpt>
      <trkpt lat="45.12137" lon="5.90944">
        <ele>2059</ele>
        <time>2000-01-01T02:30:12.000Z</time>
      </trkpt>
      <trkpt lat="45.12146" lon="5.9095">
        <ele>2059.1</ele>
        <time>2000-01-01T02:30:22.000Z</time>
      </trkpt>
      <trkpt lat="45.12161" lon="5.9097">
        <ele>2059</ele>
        <time>2000-01-01T02:30:32.000Z</time>
      </trkpt>
      <trkpt lat="45.12192" lon="5.90978">
        <ele>2067</ele>
        <time>2000-01-01T02:30:42.000Z</time>
      </trkpt>
      <trkpt lat="45.12198" lon="5.90979">
        <ele>2068.9</ele>
        <time>2000-01-01T02:30:52.000Z</time>
      </trkpt>
      <trkpt lat="45.12202" lon="5.90977">
        <ele>2069.2</ele>
        <time>2000-01-01T02:31:02.000Z</time>
      </trkpt>
      <trkpt lat="45.12209" lon="5.90981">
        <ele>2070.2</ele>
        <time>2000-01-01T02:31:12.000Z</time>
      </trkpt>
      <trkpt lat="45.12215" lon="5.90992">
        <ele>2072</ele>
        <time>2000-01-01T02:31:22.000Z</time>
      </trkpt>
      <trkpt lat="45.12228" lon="5.91">
        <ele>2072.8</ele>
        <time>2000-01-01T02:31:32.000Z</time>
      </trkpt>
      <trkpt lat="45.12252" lon="5.91001">
        <ele>2072</ele>
        <time>2000-01-01T02:31:42.000Z</time>
      </trkpt>
      <trkpt lat="45.12264" lon="5.91006">
        <ele>2071.2</ele>
        <time>2000-01-01T02:31:52.000Z</time>
      </trkpt>
      <trkpt lat="45.12291" lon="5.91035">
        <ele>2072</ele>
        <time>2000-01-01T02:32:02.000Z</time>
      </trkpt>
      <trkpt lat="45.12308" lon="5.91048">
        <ele>2072</ele>
        <time>2000-01-01T02:32:12.000Z</time>
      </trkpt>
      <trkpt lat="45.12332" lon="5.91049">
        <ele>2077</ele>
        <time>2000-01-01T02:32:22.000Z</time>
      </trkpt>
      <trkpt lat="45.12351" lon="5.91046">
        <ele>2076</ele>
        <time>2000-01-01T02:32:32.000Z</time>
      </trkpt>
      <trkpt lat="45.12383" lon="5.91025">
        <ele>2076</ele>
        <time>2000-01-01T02:32:42.000Z</time>
      </trkpt>
      <trkpt lat="45.12399" lon="5.90986">
        <ele>2080</ele>
        <time>2000-01-01T02:32:52.000Z</time>
      </trkpt>
      <trkpt lat="45.12406" lon="5.90979">
        <ele>2086.4</ele>
        <time>2000-01-01T02:33:02.000Z</time>
      </trkpt>
      <trkpt lat="45.12409" lon="5.9097">
        <ele>2088.7</ele>
        <time>2000-01-01T02:33:12.000Z</time>
      </trkpt>
      <trkpt lat="45.12413" lon="5.90928">
        <ele>2095</ele>
        <time>2000-01-01T02:33:22.000Z</time>
      </trkpt>
      <trkpt lat="45.12422" lon="5.90911">
        <ele>2102.6</ele>
        <time>2000-01-01T02:33:32.000Z</time>
      </trkpt>
      <trkpt lat="45.12433" lon="5.90906">
        <ele>2106</ele>
        <time>2000-01-01T02:33:42.000Z</time>
      </trkpt>
      <trkpt lat="45.12444" lon="5.90895">
        <ele>2113.4</ele>
        <time>2000-01-01T02:33:52.000Z</time>
      </trkpt>
      <trkpt lat="45.12448" lon="5.90898">
        <ele>2116.1</ele>
        <time>2000-01-01T02:34:02.000Z</time>
      </trkpt>
      <trkpt lat="45.12451" lon="5.90905">
        <ele>2118</ele>
        <time>2000-01-01T02:34:12.000Z</time>
      </trkpt>
      <trkpt lat="45.12446" lon="5.90919">
        <ele>2116.8</ele>
        <time>2000-01-01T02:34:22.000Z</time>
      </trkpt>
      <trkpt lat="45.12455" lon="5.90929">
        <ele>2120</ele>
        <time>2000-01-01T02:34:32.000Z</time>
      </trkpt>
      <trkpt lat="45.12465" lon="5.90948">
        <ele>2125.5</ele>
        <time>2000-01-01T02:34:42.000Z</time>
      </trkpt>
      <trkpt lat="45.12469" lon="5.90947">
        <ele>2124</ele>
        <time>2000-01-01T02:34:52.000Z</time>
      </trkpt>
      <trkpt lat="45.12471" lon="5.90933">
        <ele>2129.8</ele>
        <time>2000-01-01T02:35:02.000Z</time>
      </trkpt>
      <trkpt lat="45.12477" lon="5.90921">
        <ele>2130</ele>
        <time>2000-01-01T02:35:12.000Z</time>
      </trkpt>
      <trkpt lat="45.12482" lon="5.90923">
        <ele>2135.3</ele>
        <time>2000-01-01T02:35:22.000Z</time>
      </trkpt>
      <trkpt lat="45.12485" lon="5.90937">
        <ele>2135.9</ele>
        <time>2000-01-01T02:35:32.000Z</time>
      </trkpt>
      <trkpt lat="45.12511" lon="5.90984">
        <ele>2144</ele>
        <time>2000-01-01T02:35:42.000Z</time>
      </trkpt>
      <trkpt lat="45.1252" lon="5.91024">
        <ele>2146</ele>
        <time>2000-01-01T02:35:52.000Z</time>
      </trkpt>
      <trkpt lat="45.12516" lon="5.91059">
        <ele>2148</ele>
        <time>2000-01-01T02:36:02.000Z</time>
      </trkpt>
      <trkpt lat="45.12512" lon="5.91097">
        <ele>2150</ele>
        <time>2000-01-01T02:36:12.000Z</time>
      </trkpt>
      <trkpt lat="45.12506" lon="5.91128">
        <ele>2153</ele>
        <time>2000-01-01T02:36:22.000Z</time>
      </trkpt>
      <trkpt lat="45.12506" lon="5.91158">
        <ele>2154</ele>
        <time>2000-01-01T02:36:32.000Z</time>
      </trkpt>
      <trkpt lat="45.12501" lon="5.91185">
        <ele>2157</ele>
        <time>2000-01-01T02:36:42.000Z</time>
      </trkpt>
      <trkpt lat="45.12507" lon="5.9118">
        <ele>2163.6</ele>
        <time>2000-01-01T02:36:52.000Z</time>
      </trkpt>
      <trkpt lat="45.12515" lon="5.91167">
        <ele>2161</ele>
        <time>2000-01-01T02:37:02.000Z</time>
      </trkpt>
      <trkpt lat="45.12525" lon="5.91145">
        <ele>2168.2</ele>
        <time>2000-01-01T02:37:12.000Z</time>
      </trkpt>
      <trkpt lat="45.12529" lon="5.9112">
        <ele>2162</ele>
        <time>2000-01-01T02:37:22.000Z</time>
      </trkpt>
      <trkpt lat="45.12544" lon="5.91076">
        <ele>2167</ele>
        <time>2000-01-01T02:37:32.000Z</time>
      </trkpt>
      <trkpt lat="45.12554" lon="5.91055">
        <ele>2170.1</ele>
        <time>2000-01-01T02:37:42.000Z</time>
      </trkpt>
      <trkpt lat="45.12577" lon="5.91018">
        <ele>2169</ele>
        <time>2000-01-01T02:37:52.000Z</time>
      </trkpt>
      <trkpt lat="45.12585" lon="5.90992">
        <ele>2172</ele>
        <time>2000-01-01T02:38:02.000Z</time>
      </trkpt>
      <trkpt lat="45.12591" lon="5.90948">
        <ele>2173</ele>
        <time>2000-01-01T02:38:12.000Z</time>
      </trkpt>
      <trkpt lat="45.12589" lon="5.90882">
        <ele>2179</ele>
        <time>2000-01-01T02:38:22.000Z</time>
      </trkpt>
      <trkpt lat="45.12591" lon="5.90829">
        <ele>2192</ele>
        <time>2000-01-01T02:38:32.000Z</time>
      </trkpt>
      <trkpt lat="45.12597" lon="5.9081">
        <ele>2193.4</ele>
        <time>2000-01-01T02:38:42.000Z</time>
      </trkpt>
      <trkpt lat="45.12604" lon="5.90798">
        <ele>2197</ele>
        <time>2000-01-01T02:38:52.000Z</time>
      </trkpt>
      <trkpt lat="45.12624" lon="5.90747">
        <ele>2204</ele>
        <time>2000-01-01T02:39:02.000Z</time>
      </trkpt>
      <trkpt lat="45.12629" lon="5.90712">
        <ele>2209</ele>
        <time>2000-01-01T02:39:12.000Z</time>
      </trkpt>
      <trkpt lat="45.12627" lon="5.90669">
        <ele>2218</ele>
        <time>2000-01-01T02:39:22.000Z</time>
      </trkpt>
      <trkpt lat="45.12617" lon="5.90643">
        <ele>2222</ele>
        <time>2000-01-01T02:39:32.000Z</time>
      </trkpt>
      <trkpt lat="45.12617" lon="5.90636">
        <ele>2222.4</ele>
        <time>2000-01-01T02:39:42.000Z</time>
      </trkpt>
      <trkpt lat="45.12609" lon="5.90611">
        <ele>2228</ele>
        <time>2000-01-01T02:39:52.000Z</time>
      </trkpt>
      <trkpt lat="45.12603" lon="5.90577">
        <ele>2233</ele>
        <time>2000-01-01T02:40:02.000Z</time>
      </trkpt>
      <trkpt lat="45.12597" lon="5.90541">
        <ele>2238</ele>
        <time>2000-01-01T02:40:12.000Z</time>
      </trkpt>
      <trkpt lat="45.12596" lon="5.90503">
        <ele>2242</ele>
        <time>2000-01-01T02:40:22.000Z</time>
      </trkpt>
      <trkpt lat="45.12595" lon="5.90455">
        <ele>2246</ele>
        <time>2000-01-01T02:40:32.000Z</time>
      </trkpt>
      <trkpt lat="45.1259" lon="5.90418">
        <ele>2246</ele>
        <time>2000-01-01T02:40:42.000Z</time>
      </trkpt>
      <trkpt lat="45.12583" lon="5.90369">
        <ele>2246</ele>
        <time>2000-01-01T02:40:52.000Z</time>
      </trkpt>
      <trkpt lat="45.12576" lon="5.90349">
        <ele>2245.5</ele>
        <time>2000-01-01T02:41:02.000Z</time>
      </trkpt>
      <trkpt lat="45.12563" lon="5.90324">
        <ele>2244</ele>
        <time>2000-01-01T02:41:12.000Z</time>
      </trkpt>
      <trkpt lat="45.1256" lon="5.90321">
        <ele>2244.3</ele>
        <time>2000-01-01T02:41:22.000Z</time>
      </trkpt>
      <trkpt lat="45.12549" lon="5.9032">
        <ele>2242.8</ele>
        <time>2000-01-01T02:41:32.000Z</time>
      </trkpt>
      <trkpt lat="45.12546" lon="5.90313">
        <ele>2241</ele>
        <time>2000-01-01T02:41:42.000Z</time>
      </trkpt>
      <trkpt lat="45.1254" lon="5.90279">
        <ele>2239</ele>
        <time>2000-01-01T02:41:52.000Z</time>
      </trkpt>
      <trkpt lat="45.1254" lon="5.90262">
        <ele>2241</ele>
        <time>2000-01-01T02:42:02.000Z</time>
      </trkpt>
      <trkpt lat="45.12535" lon="5.90245">
        <ele>2239</ele>
        <time>2000-01-01T02:42:12.000Z</time>
      </trkpt>
      <trkpt lat="45.12538" lon="5.90255">
        <ele>2240.5</ele>
        <time>2000-01-01T02:42:22.000Z</time>
      </trkpt>
      <trkpt lat="45.12542" lon="5.90258">
        <ele>2241.2</ele>
        <time>2000-01-01T02:42:32.000Z</time>
      </trkpt>
      <trkpt lat="45.12535" lon="5.90267">
        <ele>2239</ele>
        <time>2000-01-01T02:42:42.000Z</time>
      </trkpt>
      <trkpt lat="45.1254" lon="5.90288">
        <ele>2241.2</ele>
        <time>2000-01-01T02:42:52.000Z</time>
      </trkpt>
      <trkpt lat="45.12552" lon="5.90319">
        <ele>2243</ele>
        <time>2000-01-01T02:43:02.000Z</time>
      </trkpt>
      <trkpt lat="45.1257" lon="5.90322">
        <ele>2245</ele>
        <time>2000-01-01T02:43:12.000Z</time>
      </trkpt>
      <trkpt lat="45.12576" lon="5.90331">
        <ele>2245</ele>
        <time>2000-01-01T02:43:22.000Z</time>
      </trkpt>
      <trkpt lat="45.12589" lon="5.90367">
        <ele>2246</ele>
        <time>2000-01-01T02:43:32.000Z</time>
      </trkpt>
      <trkpt lat="45.12595" lon="5.90404">
        <ele>2246</ele>
        <time>2000-01-01T02:43:42.000Z</time>
      </trkpt>
      <trkpt lat="45.12603" lon="5.90451">
        <ele>2245</ele>
        <time>2000-01-01T02:43:52.000Z</time>
      </trkpt>
      <trkpt lat="45.12604" lon="5.90492">
        <ele>2241</ele>
        <time>2000-01-01T02:44:02.000Z</time>
      </trkpt>
      <trkpt lat="45.12605" lon="5.90554">
        <ele>2233</ele>
        <time>2000-01-01T02:44:12.000Z</time>
      </trkpt>
      <trkpt lat="45.12616" lon="5.90592">
        <ele>2229</ele>
        <time>2000-01-01T02:44:22.000Z</time>
      </trkpt>
      <trkpt lat="45.12635" lon="5.90654">
        <ele>2216</ele>
        <time>2000-01-01T02:44:32.000Z</time>
      </trkpt>
      <trkpt lat="45.12637" lon="5.90672">
        <ele>2212.4</ele>
        <time>2000-01-01T02:44:42.000Z</time>
      </trkpt>
      <trkpt lat="45.12637" lon="5.90713">
        <ele>2206</ele>
        <time>2000-01-01T02:44:52.000Z</time>
      </trkpt>
      <trkpt lat="45.12623" lon="5.90749">
        <ele>2204</ele>
        <time>2000-01-01T02:45:02.000Z</time>
      </trkpt>
      <trkpt lat="45.126" lon="5.90807">
        <ele>2195</ele>
        <time>2000-01-01T02:45:12.000Z</time>
      </trkpt>
      <trkpt lat="45.12596" lon="5.90831">
        <ele>2188.4</ele>
        <time>2000-01-01T02:45:22.000Z</time>
      </trkpt>
      <trkpt lat="45.12598" lon="5.90949">
        <ele>2173</ele>
        <time>2000-01-01T02:45:32.000Z</time>
      </trkpt>
      <trkpt lat="45.1259" lon="5.90965">
        <ele>2171.6</ele>
        <time>2000-01-01T02:45:42.000Z</time>
      </trkpt>
      <trkpt lat="45.12607" lon="5.90952">
        <ele>2172</ele>
        <time>2000-01-01T02:45:52.000Z</time>
      </trkpt>
      <trkpt lat="45.12619" lon="5.90923">
        <ele>2169</ele>
        <time>2000-01-01T02:46:02.000Z</time>
      </trkpt>
      <trkpt lat="45.12644" lon="5.90884">
        <ele>2158</ele>
        <time>2000-01-01T02:46:12.000Z</time>
      </trkpt>
      <trkpt lat="45.12663" lon="5.90868">
        <ele>2152</ele>
        <time>2000-01-01T02:46:22.000Z</time>
      </trkpt>
      <trkpt lat="45.12675" lon="5.90866">
        <ele>2146.8</ele>
        <time>2000-01-01T02:46:32.000Z</time>
      </trkpt>
      <trkpt lat="45.12684" lon="5.90873">
        <ele>2143</ele>
        <time>2000-01-01T02:46:42.000Z</time>
      </trkpt>
      <trkpt lat="45.12709" lon="5.90922">
        <ele>2133</ele>
        <time>2000-01-01T02:46:52.000Z</time>
      </trkpt>
      <trkpt lat="45.12719" lon="5.90931">
        <ele>2127.9</ele>
        <time>2000-01-01T02:47:02.000Z</time>
      </trkpt>
      <trkpt lat="45.12749" lon="5.90981">
        <ele>2118</ele>
        <time>2000-01-01T02:47:12.000Z</time>
      </trkpt>
      <trkpt lat="45.12768" lon="5.91006">
        <ele>2111</ele>
        <time>2000-01-01T02:47:22.000Z</time>
      </trkpt>
      <trkpt lat="45.12791" lon="5.91036">
        <ele>2107</ele>
        <time>2000-01-01T02:47:32.000Z</time>
      </trkpt>
      <trkpt lat="45.12808" lon="5.9107">
        <ele>2107</ele>
        <time>2000-01-01T02:47:42.000Z</time>
      </trkpt>
      <trkpt lat="45.12836" lon="5.91125">
        <ele>2101</ele>
        <time>2000-01-01T02:47:52.000Z</time>
      </trkpt>
      <trkpt lat="45.1285" lon="5.91142">
        <ele>2096.5</ele>
        <time>2000-01-01T02:48:02.000Z</time>
      </trkpt>
      <trkpt lat="45.1286" lon="5.91161">
        <ele>2093</ele>
        <time>2000-01-01T02:48:12.000Z</time>
      </trkpt>
      <trkpt lat="45.12877" lon="5.91198">
        <ele>2089</ele>
        <time>2000-01-01T02:48:22.000Z</time>
      </trkpt>
      <trkpt lat="45.12911" lon="5.91271">
        <ele>2072</ele>
        <time>2000-01-01T02:48:32.000Z</time>
      </trkpt>
      <trkpt lat="45.12921" lon="5.91312">
        <ele>2065</ele>
        <time>2000-01-01T02:48:42.000Z</time>
      </trkpt>
      <trkpt lat="45.12927" lon="5.9135">
        <ele>2061</ele>
        <time>2000-01-01T02:48:52.000Z</time>
      </trkpt>
      <trkpt lat="45.12942" lon="5.91394">
        <ele>2049</ele>
        <time>2000-01-01T02:49:02.000Z</time>
      </trkpt>
      <trkpt lat="45.1296" lon="5.91433">
        <ele>2041</ele>
        <time>2000-01-01T02:49:12.000Z</time>
      </trkpt>
      <trkpt lat="45.12978" lon="5.91472">
        <ele>2032</ele>
        <time>2000-01-01T02:49:22.000Z</time>
      </trkpt>
      <trkpt lat="45.13" lon="5.9152">
        <ele>2018</ele>
        <time>2000-01-01T02:49:32.000Z</time>
      </trkpt>
      <trkpt lat="45.13007" lon="5.91546">
        <ele>2013</ele>
        <time>2000-01-01T02:49:42.000Z</time>
      </trkpt>
      <trkpt lat="45.13021" lon="5.91582">
        <ele>2006</ele>
        <time>2000-01-01T02:49:52.000Z</time>
      </trkpt>
      <trkpt lat="45.13037" lon="5.91614">
        <ele>2003</ele>
        <time>2000-01-01T02:50:02.000Z</time>
      </trkpt>
      <trkpt lat="45.13058" lon="5.91657">
        <ele>2001</ele>
        <time>2000-01-01T02:50:12.000Z</time>
      </trkpt>
      <trkpt lat="45.13068" lon="5.91687">
        <ele>1998</ele>
        <time>2000-01-01T02:50:22.000Z</time>
      </trkpt>
      <trkpt lat="45.13091" lon="5.91721">
        <ele>1995</ele>
        <time>2000-01-01T02:50:32.000Z</time>
      </trkpt>
      <trkpt lat="45.13103" lon="5.91733">
        <ele>1994.5</ele>
        <time>2000-01-01T02:50:42.000Z</time>
      </trkpt>
      <trkpt lat="45.13111" lon="5.91736">
        <ele>1995</ele>
        <time>2000-01-01T02:50:52.000Z</time>
      </trkpt>
      <trkpt lat="45.13126" lon="5.91728">
        <ele>1995.8</ele>
        <time>2000-01-01T02:51:02.000Z</time>
      </trkpt>
      <trkpt lat="45.13134" lon="5.91719">
        <ele>1994</ele>
        <time>2000-01-01T02:51:12.000Z</time>
      </trkpt>
      <trkpt lat="45.13155" lon="5.91719">
        <ele>1994</ele>
        <time>2000-01-01T02:51:22.000Z</time>
      </trkpt>
      <trkpt lat="45.13188" lon="5.91741">
        <ele>1996</ele>
        <time>2000-01-01T02:51:32.000Z</time>
      </trkpt>
      <trkpt lat="45.13193" lon="5.91737">
        <ele>1997</ele>
        <time>2000-01-01T02:51:42.000Z</time>
      </trkpt>
      <trkpt lat="45.13198" lon="5.9172">
        <ele>1997.5</ele>
        <time>2000-01-01T02:51:52.000Z</time>
      </trkpt>
      <trkpt lat="45.13203" lon="5.91718">
        <ele>1998</ele>
        <time>2000-01-01T02:52:02.000Z</time>
      </trkpt>
      <trkpt lat="45.13212" lon="5.9173">
        <ele>1999.2</ele>
        <time>2000-01-01T02:52:12.000Z</time>
      </trkpt>
      <trkpt lat="45.1322" lon="5.91734">
        <ele>1998</ele>
        <time>2000-01-01T02:52:22.000Z</time>
      </trkpt>
      <trkpt lat="45.13225" lon="5.91734">
        <ele>2000.2</ele>
        <time>2000-01-01T02:52:32.000Z</time>
      </trkpt>
      <trkpt lat="45.13234" lon="5.91726">
        <ele>2001.1</ele>
        <time>2000-01-01T02:52:42.000Z</time>
      </trkpt>
      <trkpt lat="45.1325" lon="5.91727">
        <ele>2002</ele>
        <time>2000-01-01T02:52:52.000Z</time>
      </trkpt>
      <trkpt lat="45.13271" lon="5.91733">
        <ele>2003</ele>
        <time>2000-01-01T02:53:02.000Z</time>
      </trkpt>
      <trkpt lat="45.13279" lon="5.91744">
        <ele>2005.7</ele>
        <time>2000-01-01T02:53:12.000Z</time>
      </trkpt>
      <trkpt lat="45.13302" lon="5.91757">
        <ele>2010</ele>
        <time>2000-01-01T02:53:22.000Z</time>
      </trkpt>
      <trkpt lat="45.13318" lon="5.91759">
        <ele>2011.9</ele>
        <time>2000-01-01T02:53:32.000Z</time>
      </trkpt>
      <trkpt lat="45.13328" lon="5.91774">
        <ele>2011</ele>
        <time>2000-01-01T02:53:42.000Z</time>
      </trkpt>
      <trkpt lat="45.13341" lon="5.91781">
        <ele>2013</ele>
        <time>2000-01-01T02:53:52.000Z</time>
      </trkpt>
      <trkpt lat="45.13345" lon="5.91787">
        <ele>2011</ele>
        <time>2000-01-01T02:54:02.000Z</time>
      </trkpt>
      <trkpt lat="45.13356" lon="5.91792">
        <ele>2012.4</ele>
        <time>2000-01-01T02:54:12.000Z</time>
      </trkpt>
      <trkpt lat="45.13363" lon="5.91801">
        <ele>2011</ele>
        <time>2000-01-01T02:54:22.000Z</time>
      </trkpt>
      <trkpt lat="45.13371" lon="5.91802">
        <ele>2010.7</ele>
        <time>2000-01-01T02:54:32.000Z</time>
      </trkpt>
      <trkpt lat="45.13376" lon="5.91808">
        <ele>2009.4</ele>
        <time>2000-01-01T02:54:42.000Z</time>
      </trkpt>
      <trkpt lat="45.13395" lon="5.91837">
        <ele>2005</ele>
        <time>2000-01-01T02:54:52.000Z</time>
      </trkpt>
      <trkpt lat="45.13398" lon="5.91853">
        <ele>2004.3</ele>
        <time>2000-01-01T02:55:02.000Z</time>
      </trkpt>
      <trkpt lat="45.13418" lon="5.91883">
        <ele>2007</ele>
        <time>2000-01-01T02:55:12.000Z</time>
      </trkpt>
      <trkpt lat="45.13437" lon="5.91906">
        <ele>2009</ele>
        <time>2000-01-01T02:55:22.000Z</time>
      </trkpt>
      <trkpt lat="45.13438" lon="5.91915">
        <ele>2009.1</ele>
        <time>2000-01-01T02:55:32.000Z</time>
      </trkpt>
      <trkpt lat="45.13442" lon="5.91919">
        <ele>2009.2</ele>
        <time>2000-01-01T02:55:42.000Z</time>
      </trkpt>
      <trkpt lat="45.13446" lon="5.91917">
        <ele>2010.3</ele>
        <time>2000-01-01T02:55:52.000Z</time>
      </trkpt>
      <trkpt lat="45.13451" lon="5.91925">
        <ele>2010</ele>
        <time>2000-01-01T02:56:02.000Z</time>
      </trkpt>
      <trkpt lat="45.13471" lon="5.91939">
        <ele>2009</ele>
        <time>2000-01-01T02:56:12.000Z</time>
      </trkpt>
      <trkpt lat="45.13488" lon="5.91957">
        <ele>2008</ele>
        <time>2000-01-01T02:56:22.000Z</time>
      </trkpt>
      <trkpt lat="45.13499" lon="5.91964">
        <ele>2006.6</ele>
        <time>2000-01-01T02:56:32.000Z</time>
      </trkpt>
      <trkpt lat="45.13509" lon="5.91967">
        <ele>2006</ele>
        <time>2000-01-01T02:56:42.000Z</time>
      </trkpt>
      <trkpt lat="45.13533" lon="5.91992">
        <ele>1999</ele>
        <time>2000-01-01T02:56:52.000Z</time>
      </trkpt>
      <trkpt lat="45.13548" lon="5.91998">
        <ele>1993.4</ele>
        <time>2000-01-01T02:57:02.000Z</time>
      </trkpt>
      <trkpt lat="45.13552" lon="5.92004">
        <ele>1992</ele>
        <time>2000-01-01T02:57:12.000Z</time>
      </trkpt>
      <trkpt lat="45.13562" lon="5.92003">
        <ele>1987.2</ele>
        <time>2000-01-01T02:57:22.000Z</time>
      </trkpt>
      <trkpt lat="45.13562" lon="5.92011">
        <ele>1983.7</ele>
        <time>2000-01-01T02:57:32.000Z</time>
      </trkpt>
      <trkpt lat="45.13567" lon="5.92012">
        <ele>1985</ele>
        <time>2000-01-01T02:57:42.000Z</time>
      </trkpt>
      <trkpt lat="45.13567" lon="5.92019">
        <ele>1977.8</ele>
        <time>2000-01-01T02:57:52.000Z</time>
      </trkpt>
      <trkpt lat="45.13562" lon="5.92027">
        <ele>1976.9</ele>
        <time>2000-01-01T02:58:02.000Z</time>
      </trkpt>
      <trkpt lat="45.13566" lon="5.92032">
        <ele>1973.1</ele>
        <time>2000-01-01T02:58:12.000Z</time>
      </trkpt>
      <trkpt lat="45.13562" lon="5.92037">
        <ele>1975</ele>
        <time>2000-01-01T02:58:22.000Z</time>
      </trkpt>
      <trkpt lat="45.13559" lon="5.92051">
        <ele>1970.2</ele>
        <time>2000-01-01T02:58:32.000Z</time>
      </trkpt>
      <trkpt lat="45.1357" lon="5.92051">
        <ele>1968</ele>
        <time>2000-01-01T02:58:42.000Z</time>
      </trkpt>
      <trkpt lat="45.13576" lon="5.92058">
        <ele>1961.1</ele>
        <time>2000-01-01T02:58:52.000Z</time>
      </trkpt>
      <trkpt lat="45.13582" lon="5.92056">
        <ele>1959.4</ele>
        <time>2000-01-01T02:59:02.000Z</time>
      </trkpt>
      <trkpt lat="45.13591" lon="5.92057">
        <ele>1957</ele>
        <time>2000-01-01T02:59:12.000Z</time>
      </trkpt>
      <trkpt lat="45.13594" lon="5.92053">
        <ele>1954.5</ele>
        <time>2000-01-01T02:59:22.000Z</time>
      </trkpt>
      <trkpt lat="45.13597" lon="5.92053">
        <ele>1953</ele>
        <time>2000-01-01T02:59:32.000Z</time>
      </trkpt>
      <trkpt lat="45.13603" lon="5.92062">
        <ele>1948.3</ele>
        <time>2000-01-01T02:59:42.000Z</time>
      </trkpt>
      <trkpt lat="45.13607" lon="5.9206">
        <ele>1950</ele>
        <time>2000-01-01T02:59:52.000Z</time>
      </trkpt>
      <trkpt lat="45.13617" lon="5.92061">
        <ele>1942.7</ele>
        <time>2000-01-01T03:00:02.000Z</time>
      </trkpt>
      <trkpt lat="45.13616" lon="5.92069">
        <ele>1941.3</ele>
        <time>2000-01-01T03:00:12.000Z</time>
      </trkpt>
      <trkpt lat="45.13623" lon="5.9207">
        <ele>1940</ele>
        <time>2000-01-01T03:00:22.000Z</time>
      </trkpt>
      <trkpt lat="45.13629" lon="5.92088">
        <ele>1933.7</ele>
        <time>2000-01-01T03:00:32.000Z</time>
      </trkpt>
      <trkpt lat="45.13646" lon="5.92087">
        <ele>1929</ele>
        <time>2000-01-01T03:00:42.000Z</time>
      </trkpt>
      <trkpt lat="45.13667" lon="5.92092">
        <ele>1926</ele>
        <time>2000-01-01T03:00:52.000Z</time>
      </trkpt>
      <trkpt lat="45.13675" lon="5.92102">
        <ele>1929.4</ele>
        <time>2000-01-01T03:01:02.000Z</time>
      </trkpt>
      <trkpt lat="45.13685" lon="5.92133">
        <ele>1926</ele>
        <time>2000-01-01T03:01:12.000Z</time>
      </trkpt>
      <trkpt lat="45.13694" lon="5.92138">
        <ele>1931</ele>
        <time>2000-01-01T03:01:22.000Z</time>
      </trkpt>
      <trkpt lat="45.13703" lon="5.92162">
        <ele>1926</ele>
        <time>2000-01-01T03:01:32.000Z</time>
      </trkpt>
      <trkpt lat="45.13717" lon="5.92185">
        <ele>1926</ele>
        <time>2000-01-01T03:01:42.000Z</time>
      </trkpt>
      <trkpt lat="45.13726" lon="5.92193">
        <ele>1925.9</ele>
        <time>2000-01-01T03:01:52.000Z</time>
      </trkpt>
      <trkpt lat="45.13754" lon="5.92198">
        <ele>1923</ele>
        <time>2000-01-01T03:02:02.000Z</time>
      </trkpt>
      <trkpt lat="45.13763" lon="5.92214">
        <ele>1924.3</ele>
        <time>2000-01-01T03:02:12.000Z</time>
      </trkpt>
      <trkpt lat="45.13772" lon="5.92222">
        <ele>1922</ele>
        <time>2000-01-01T03:02:22.000Z</time>
      </trkpt>
      <trkpt lat="45.13786" lon="5.92225">
        <ele>1920.8</ele>
        <time>2000-01-01T03:02:32.000Z</time>
      </trkpt>
      <trkpt lat="45.13807" lon="5.92257">
        <ele>1922</ele>
        <time>2000-01-01T03:02:42.000Z</time>
      </trkpt>
      <trkpt lat="45.13819" lon="5.92263">
        <ele>1923.8</ele>
        <time>2000-01-01T03:02:52.000Z</time>
      </trkpt>
      <trkpt lat="45.13836" lon="5.92267">
        <ele>1920</ele>
        <time>2000-01-01T03:03:02.000Z</time>
      </trkpt>
      <trkpt lat="45.13864" lon="5.9226">
        <ele>1919</ele>
        <time>2000-01-01T03:03:12.000Z</time>
      </trkpt>
      <trkpt lat="45.13869" lon="5.92272">
        <ele>1920.5</ele>
        <time>2000-01-01T03:03:22.000Z</time>
      </trkpt>
      <trkpt lat="45.13875" lon="5.92268">
        <ele>1920.4</ele>
        <time>2000-01-01T03:03:32.000Z</time>
      </trkpt>
      <trkpt lat="45.1388" lon="5.92253">
        <ele>1919</ele>
        <time>2000-01-01T03:03:42.000Z</time>
      </trkpt>
      <trkpt lat="45.13886" lon="5.92255">
        <ele>1920.1</ele>
        <time>2000-01-01T03:03:52.000Z</time>
      </trkpt>
      <trkpt lat="45.13887" lon="5.92258">
        <ele>1920.6</ele>
        <time>2000-01-01T03:04:02.000Z</time>
      </trkpt>
      <trkpt lat="45.13891" lon="5.92258">
        <ele>1920.8</ele>
        <time>2000-01-01T03:04:12.000Z</time>
      </trkpt>
      <trkpt lat="45.13893" lon="5.92264">
        <ele>1921.4</ele>
        <time>2000-01-01T03:04:22.000Z</time>
      </trkpt>
      <trkpt lat="45.13899" lon="5.9227">
        <ele>1919</ele>
        <time>2000-01-01T03:04:32.000Z</time>
      </trkpt>
      <trkpt lat="45.13908" lon="5.92269">
        <ele>1921.8</ele>
        <time>2000-01-01T03:04:42.000Z</time>
      </trkpt>
      <trkpt lat="45.13914" lon="5.92271">
        <ele>1922</ele>
        <time>2000-01-01T03:04:52.000Z</time>
      </trkpt>
      <trkpt lat="45.13927" lon="5.92268">
        <ele>1920</ele>
        <time>2000-01-01T03:05:02.000Z</time>
      </trkpt>
      <trkpt lat="45.13941" lon="5.9227">
        <ele>1919</ele>
        <time>2000-01-01T03:05:12.000Z</time>
      </trkpt>
      <trkpt lat="45.13954" lon="5.92288">
        <ele>1920</ele>
        <time>2000-01-01T03:05:22.000Z</time>
      </trkpt>
      <trkpt lat="45.13956" lon="5.92331">
        <ele>1924</ele>
        <time>2000-01-01T03:05:32.000Z</time>
      </trkpt>
      <trkpt lat="45.13965" lon="5.92351">
        <ele>1929.9</ele>
        <time>2000-01-01T03:05:42.000Z</time>
      </trkpt>
      <trkpt lat="45.13984" lon="5.92358">
        <ele>1924</ele>
        <time>2000-01-01T03:05:52.000Z</time>
      </trkpt>
      <trkpt lat="45.14016" lon="5.92352">
        <ele>1919</ele>
        <time>2000-01-01T03:06:02.000Z</time>
      </trkpt>
      <trkpt lat="45.14031" lon="5.92359">
        <ele>1922.8</ele>
        <time>2000-01-01T03:06:12.000Z</time>
      </trkpt>
      <trkpt lat="45.14057" lon="5.92357">
        <ele>1920</ele>
        <time>2000-01-01T03:06:22.000Z</time>
      </trkpt>
      <trkpt lat="45.14062" lon="5.92364">
        <ele>1921.4</ele>
        <time>2000-01-01T03:06:32.000Z</time>
      </trkpt>
      <trkpt lat="45.14072" lon="5.9237">
        <ele>1920.9</ele>
        <time>2000-01-01T03:06:42.000Z</time>
      </trkpt>
      <trkpt lat="45.14073" lon="5.92377">
        <ele>1919</ele>
        <time>2000-01-01T03:06:52.000Z</time>
      </trkpt>
      <trkpt lat="45.14077" lon="5.9238">
        <ele>1922.9</ele>
        <time>2000-01-01T03:07:02.000Z</time>
      </trkpt>
      <trkpt lat="45.1408" lon="5.92381">
        <ele>1922.4</ele>
        <time>2000-01-01T03:07:12.000Z</time>
      </trkpt>
      <trkpt lat="45.14082" lon="5.92378">
        <ele>1920.8</ele>
        <time>2000-01-01T03:07:22.000Z</time>
      </trkpt>
      <trkpt lat="45.14087" lon="5.92378">
        <ele>1919</ele>
        <time>2000-01-01T03:07:32.000Z</time>
      </trkpt>
      <trkpt lat="45.14093" lon="5.92383">
        <ele>1921</ele>
        <time>2000-01-01T03:07:42.000Z</time>
      </trkpt>
      <trkpt lat="45.141" lon="5.92385">
        <ele>1916.6</ele>
        <time>2000-01-01T03:07:52.000Z</time>
      </trkpt>
      <trkpt lat="45.14119" lon="5.9241">
        <ele>1920</ele>
        <time>2000-01-01T03:08:02.000Z</time>
      </trkpt>
      <trkpt lat="45.14128" lon="5.92411">
        <ele>1918.7</ele>
        <time>2000-01-01T03:08:12.000Z</time>
      </trkpt>
      <trkpt lat="45.1413" lon="5.92419">
        <ele>1922.4</ele>
        <time>2000-01-01T03:08:22.000Z</time>
      </trkpt>
      <trkpt lat="45.14137" lon="5.92422">
        <ele>1920</ele>
        <time>2000-01-01T03:08:32.000Z</time>
      </trkpt>
      <trkpt lat="45.14142" lon="5.9242">
        <ele>1921</ele>
        <time>2000-01-01T03:08:42.000Z</time>
      </trkpt>
      <trkpt lat="45.14149" lon="5.92428">
        <ele>1925.8</ele>
        <time>2000-01-01T03:08:52.000Z</time>
      </trkpt>
      <trkpt lat="45.14156" lon="5.92424">
        <ele>1920</ele>
        <time>2000-01-01T03:09:02.000Z</time>
      </trkpt>
      <trkpt lat="45.14172" lon="5.92447">
        <ele>1931</ele>
        <time>2000-01-01T03:09:12.000Z</time>
      </trkpt>
      <trkpt lat="45.1418" lon="5.92453">
        <ele>1936.2</ele>
        <time>2000-01-01T03:09:22.000Z</time>
      </trkpt>
      <trkpt lat="45.1418" lon="5.92457">
        <ele>1938.5</ele>
        <time>2000-01-01T03:09:32.000Z</time>
      </trkpt>
      <trkpt lat="45.14196" lon="5.92467">
        <ele>1937</ele>
        <time>2000-01-01T03:09:42.000Z</time>
      </trkpt>
      <trkpt lat="45.14199" lon="5.92474">
        <ele>1939.4</ele>
        <time>2000-01-01T03:09:52.000Z</time>
      </trkpt>
      <trkpt lat="45.14209" lon="5.92477">
        <ele>1939.3</ele>
        <time>2000-01-01T03:10:02.000Z</time>
      </trkpt>
      <trkpt lat="45.1422" lon="5.92489">
        <ele>1938</ele>
        <time>2000-01-01T03:10:12.000Z</time>
      </trkpt>
      <trkpt lat="45.14233" lon="5.92493">
        <ele>1942.8</ele>
        <time>2000-01-01T03:10:22.000Z</time>
      </trkpt>
      <trkpt lat="45.14235" lon="5.92498">
        <ele>1944.4</ele>
        <time>2000-01-01T03:10:32.000Z</time>
      </trkpt>
      <trkpt lat="45.14248" lon="5.9251">
        <ele>1940</ele>
        <time>2000-01-01T03:10:42.000Z</time>
      </trkpt>
      <trkpt lat="45.1426" lon="5.92515">
        <ele>1942.8</ele>
        <time>2000-01-01T03:10:52.000Z</time>
      </trkpt>
      <trkpt lat="45.14269" lon="5.92524">
        <ele>1937</ele>
        <time>2000-01-01T03:11:02.000Z</time>
      </trkpt>
      <trkpt lat="45.14273" lon="5.92521">
        <ele>1938.4</ele>
        <time>2000-01-01T03:11:12.000Z</time>
      </trkpt>
      <trkpt lat="45.1429" lon="5.92527">
        <ele>1935</ele>
        <time>2000-01-01T03:11:22.000Z</time>
      </trkpt>
      <trkpt lat="45.14291" lon="5.92523">
        <ele>1931.9</ele>
        <time>2000-01-01T03:11:32.000Z</time>
      </trkpt>
      <trkpt lat="45.14288" lon="5.92519">
        <ele>1932.4</ele>
        <time>2000-01-01T03:11:42.000Z</time>
      </trkpt>
      <trkpt lat="45.14286" lon="5.92502">
        <ele>1933</ele>
        <time>2000-01-01T03:11:52.000Z</time>
      </trkpt>
      <trkpt lat="45.14297" lon="5.92495">
        <ele>1925.3</ele>
        <time>2000-01-01T03:12:02.000Z</time>
      </trkpt>
      <trkpt lat="45.14302" lon="5.92497">
        <ele>1922.5</ele>
        <time>2000-01-01T03:12:12.000Z</time>
      </trkpt>
      <trkpt lat="45.14313" lon="5.92492">
        <ele>1918</ele>
        <time>2000-01-01T03:12:22.000Z</time>
      </trkpt>
      <trkpt lat="45.14332" lon="5.92497">
        <ele>1914</ele>
        <time>2000-01-01T03:12:32.000Z</time>
      </trkpt>
      <trkpt lat="45.14349" lon="5.92506">
        <ele>1908.9</ele>
        <time>2000-01-01T03:12:42.000Z</time>
      </trkpt>
      <trkpt lat="45.14353" lon="5.92518">
        <ele>1907</ele>
        <time>2000-01-01T03:12:52.000Z</time>
      </trkpt>
      <trkpt lat="45.14354" lon="5.92531">
        <ele>1906</ele>
        <time>2000-01-01T03:13:02.000Z</time>
      </trkpt>
      <trkpt lat="45.14359" lon="5.92542">
        <ele>1904.3</ele>
        <time>2000-01-01T03:13:12.000Z</time>
      </trkpt>
      <trkpt lat="45.14373" lon="5.92559">
        <ele>1900</ele>
        <time>2000-01-01T03:13:22.000Z</time>
      </trkpt>
      <trkpt lat="45.14384" lon="5.92587">
        <ele>1899</ele>
        <time>2000-01-01T03:13:32.000Z</time>
      </trkpt>
      <trkpt lat="45.14394" lon="5.92592">
        <ele>1892.7</ele>
        <time>2000-01-01T03:13:42.000Z</time>
      </trkpt>
      <trkpt lat="45.14397" lon="5.92597">
        <ele>1891.9</ele>
        <time>2000-01-01T03:13:52.000Z</time>
      </trkpt>
      <trkpt lat="45.14404" lon="5.92616">
        <ele>1899</ele>
        <time>2000-01-01T03:14:02.000Z</time>
      </trkpt>
      <trkpt lat="45.14411" lon="5.92624">
        <ele>1892.9</ele>
        <time>2000-01-01T03:14:12.000Z</time>
      </trkpt>
      <trkpt lat="45.14416" lon="5.92637">
        <ele>1882</ele>
        <time>2000-01-01T03:14:22.000Z</time>
      </trkpt>
      <trkpt lat="45.14418" lon="5.92637">
        <ele>1895</ele>
        <time>2000-01-01T03:14:32.000Z</time>
      </trkpt>
      <trkpt lat="45.14418" lon="5.92642">
        <ele>1898.3</ele>
        <time>2000-01-01T03:14:42.000Z</time>
      </trkpt>
      <trkpt lat="45.14422" lon="5.92643">
        <ele>1893.4</ele>
        <time>2000-01-01T03:14:52.000Z</time>
      </trkpt>
      <trkpt lat="45.1442" lon="5.92646">
        <ele>1898.2</ele>
        <time>2000-01-01T03:15:02.000Z</time>
      </trkpt>
      <trkpt lat="45.14424" lon="5.92648">
        <ele>1893.9</ele>
        <time>2000-01-01T03:15:12.000Z</time>
      </trkpt>
      <trkpt lat="45.14432" lon="5.92646">
        <ele>1865</ele>
        <time>2000-01-01T03:15:22.000Z</time>
      </trkpt>
      <trkpt lat="45.1445" lon="5.92647">
        <ele>1862</ele>
        <time>2000-01-01T03:15:32.000Z</time>
      </trkpt>
      <trkpt lat="45.14458" lon="5.9265">
        <ele>1859</ele>
        <time>2000-01-01T03:15:42.000Z</time>
      </trkpt>
      <trkpt lat="45.14493" lon="5.9267">
        <ele>1854</ele>
        <time>2000-01-01T03:15:52.000Z</time>
      </trkpt>
      <trkpt lat="45.14497" lon="5.92676">
        <ele>1850.2</ele>
        <time>2000-01-01T03:16:02.000Z</time>
      </trkpt>
      <trkpt lat="45.14504" lon="5.9268">
        <ele>1847.7</ele>
        <time>2000-01-01T03:16:12.000Z</time>
      </trkpt>
      <trkpt lat="45.14508" lon="5.92689">
        <ele>1850</ele>
        <time>2000-01-01T03:16:22.000Z</time>
      </trkpt>
      <trkpt lat="45.14515" lon="5.92696">
        <ele>1847.5</ele>
        <time>2000-01-01T03:16:32.000Z</time>
      </trkpt>
      <trkpt lat="45.14537" lon="5.92702">
        <ele>1840</ele>
        <time>2000-01-01T03:16:42.000Z</time>
      </trkpt>
      <trkpt lat="45.14549" lon="5.92718">
        <ele>1837.1</ele>
        <time>2000-01-01T03:16:52.000Z</time>
      </trkpt>
      <trkpt lat="45.1455" lon="5.92725">
        <ele>1839</ele>
        <time>2000-01-01T03:17:02.000Z</time>
      </trkpt>
      <trkpt lat="45.14565" lon="5.92754">
        <ele>1839</ele>
        <time>2000-01-01T03:17:12.000Z</time>
      </trkpt>
      <trkpt lat="45.14581" lon="5.92786">
        <ele>1839</ele>
        <time>2000-01-01T03:17:22.000Z</time>
      </trkpt>
      <trkpt lat="45.14594" lon="5.92801">
        <ele>1842.3</ele>
        <time>2000-01-01T03:17:32.000Z</time>
      </trkpt>
      <trkpt lat="45.14596" lon="5.92808">
        <ele>1840</ele>
        <time>2000-01-01T03:17:42.000Z</time>
      </trkpt>
      <trkpt lat="45.14602" lon="5.92815">
        <ele>1844.3</ele>
        <time>2000-01-01T03:17:52.000Z</time>
      </trkpt>
      <trkpt lat="45.14607" lon="5.92817">
        <ele>1842.1</ele>
        <time>2000-01-01T03:18:02.000Z</time>
      </trkpt>
      <trkpt lat="45.14609" lon="5.92822">
        <ele>1843.1</ele>
        <time>2000-01-01T03:18:12.000Z</time>
      </trkpt>
      <trkpt lat="45.14623" lon="5.92836">
        <ele>1841</ele>
        <time>2000-01-01T03:18:22.000Z</time>
      </trkpt>
      <trkpt lat="45.14626" lon="5.92845">
        <ele>1848.8</ele>
        <time>2000-01-01T03:18:32.000Z</time>
      </trkpt>
      <trkpt lat="45.14638" lon="5.9286">
        <ele>1849</ele>
        <time>2000-01-01T03:18:42.000Z</time>
      </trkpt>
      <trkpt lat="45.1464" lon="5.92865">
        <ele>1856.9</ele>
        <time>2000-01-01T03:18:52.000Z</time>
      </trkpt>
      <trkpt lat="45.14637" lon="5.92867">
        <ele>1859.1</ele>
        <time>2000-01-01T03:19:02.000Z</time>
      </trkpt>
      <trkpt lat="45.14641" lon="5.92868">
        <ele>1859.7</ele>
        <time>2000-01-01T03:19:12.000Z</time>
      </trkpt>
      <trkpt lat="45.14643" lon="5.92865">
        <ele>1858.3</ele>
        <time>2000-01-01T03:19:22.000Z</time>
      </trkpt>
      <trkpt lat="45.14643" lon="5.92871">
        <ele>1862.5</ele>
        <time>2000-01-01T03:19:32.000Z</time>
      </trkpt>
      <trkpt lat="45.14648" lon="5.92874">
        <ele>1858</ele>
        <time>2000-01-01T03:19:42.000Z</time>
      </trkpt>
      <trkpt lat="45.14649" lon="5.9287">
        <ele>1863.4</ele>
        <time>2000-01-01T03:19:52.000Z</time>
      </trkpt>
      <trkpt lat="45.14651" lon="5.92874">
        <ele>1865.3</ele>
        <time>2000-01-01T03:20:02.000Z</time>
      </trkpt>
      <trkpt lat="45.14656" lon="5.92875">
        <ele>1865.9</ele>
        <time>2000-01-01T03:20:12.000Z</time>
      </trkpt>
      <trkpt lat="45.1467" lon="5.9289">
        <ele>1859</ele>
        <time>2000-01-01T03:20:22.000Z</time>
      </trkpt>
      <trkpt lat="45.14675" lon="5.9289">
        <ele>1867.3</ele>
        <time>2000-01-01T03:20:32.000Z</time>
      </trkpt>
      <trkpt lat="45.1468" lon="5.92899">
        <ele>1872.9</ele>
        <time>2000-01-01T03:20:42.000Z</time>
      </trkpt>
      <trkpt lat="45.14685" lon="5.92902">
        <ele>1875</ele>
        <time>2000-01-01T03:20:52.000Z</time>
      </trkpt>
      <trkpt lat="45.14688" lon="5.92901">
        <ele>1866</ele>
        <time>2000-01-01T03:21:02.000Z</time>
      </trkpt>
      <trkpt lat="45.14691" lon="5.92905">
        <ele>1876.4</ele>
        <time>2000-01-01T03:21:12.000Z</time>
      </trkpt>
      <trkpt lat="45.14693" lon="5.92904">
        <ele>1876.7</ele>
        <time>2000-01-01T03:21:22.000Z</time>
      </trkpt>
      <trkpt lat="45.14696" lon="5.9291">
        <ele>1876.8</ele>
        <time>2000-01-01T03:21:32.000Z</time>
      </trkpt>
      <trkpt lat="45.14711" lon="5.92906">
        <ele>1880</ele>
        <time>2000-01-01T03:21:42.000Z</time>
      </trkpt>
      <trkpt lat="45.14719" lon="5.9291">
        <ele>1881.3</ele>
        <time>2000-01-01T03:21:52.000Z</time>
      </trkpt>
      <trkpt lat="45.1472" lon="5.92915">
        <ele>1880.1</ele>
        <time>2000-01-01T03:22:02.000Z</time>
      </trkpt>
      <trkpt lat="45.14726" lon="5.92904">
        <ele>1884</ele>
        <time>2000-01-01T03:22:12.000Z</time>
      </trkpt>
      <trkpt lat="45.14728" lon="5.92911">
        <ele>1884</ele>
        <time>2000-01-01T03:22:22.000Z</time>
      </trkpt>
      <trkpt lat="45.1474" lon="5.92919">
        <ele>1887</ele>
        <time>2000-01-01T03:22:32.000Z</time>
      </trkpt>
      <trkpt lat="45.14748" lon="5.92938">
        <ele>1886</ele>
        <time>2000-01-01T03:22:42.000Z</time>
      </trkpt>
      <trkpt lat="45.14754" lon="5.92946">
        <ele>1889.2</ele>
        <time>2000-01-01T03:22:52.000Z</time>
      </trkpt>
      <trkpt lat="45.14755" lon="5.9296">
        <ele>1887.4</ele>
        <time>2000-01-01T03:23:02.000Z</time>
      </trkpt>
      <trkpt lat="45.14764" lon="5.92968">
        <ele>1885</ele>
        <time>2000-01-01T03:23:12.000Z</time>
      </trkpt>
      <trkpt lat="45.14768" lon="5.92981">
        <ele>1887.8</ele>
        <time>2000-01-01T03:23:22.000Z</time>
      </trkpt>
      <trkpt lat="45.14784" lon="5.93005">
        <ele>1885</ele>
        <time>2000-01-01T03:23:32.000Z</time>
      </trkpt>
      <trkpt lat="45.14798" lon="5.93048">
        <ele>1890</ele>
        <time>2000-01-01T03:23:42.000Z</time>
      </trkpt>
      <trkpt lat="45.14806" lon="5.93066">
        <ele>1896.2</ele>
        <time>2000-01-01T03:23:52.000Z</time>
      </trkpt>
      <trkpt lat="45.14814" lon="5.93075">
        <ele>1894</ele>
        <time>2000-01-01T03:24:02.000Z</time>
      </trkpt>
      <trkpt lat="45.14815" lon="5.93082">
        <ele>1899.7</ele>
        <time>2000-01-01T03:24:12.000Z</time>
      </trkpt>
      <trkpt lat="45.14812" lon="5.93079">
        <ele>1898.4</ele>
        <time>2000-01-01T03:24:22.000Z</time>
      </trkpt>
      <trkpt lat="45.14808" lon="5.93085">
        <ele>1895.7</ele>
        <time>2000-01-01T03:24:32.000Z</time>
      </trkpt>
      <trkpt lat="45.14809" lon="5.93089">
        <ele>1896.9</ele>
        <time>2000-01-01T03:24:42.000Z</time>
      </trkpt>
      <trkpt lat="45.14823" lon="5.93104">
        <ele>1900</ele>
        <time>2000-01-01T03:24:52.000Z</time>
      </trkpt>
      <trkpt lat="45.1483" lon="5.93122">
        <ele>1912.1</ele>
        <time>2000-01-01T03:25:02.000Z</time>
      </trkpt>
      <trkpt lat="45.14832" lon="5.93169">
        <ele>1928</ele>
        <time>2000-01-01T03:25:12.000Z</time>
      </trkpt>
      <trkpt lat="45.14834" lon="5.93173">
        <ele>1939.6</ele>
        <time>2000-01-01T03:25:22.000Z</time>
      </trkpt>
      <trkpt lat="45.14848" lon="5.93176">
        <ele>1947.5</ele>
        <time>2000-01-01T03:25:32.000Z</time>
      </trkpt>
      <trkpt lat="45.14865" lon="5.93165">
        <ele>1933</ele>
        <time>2000-01-01T03:25:42.000Z</time>
      </trkpt>
      <trkpt lat="45.14873" lon="5.93155">
        <ele>1946.4</ele>
        <time>2000-01-01T03:25:52.000Z</time>
      </trkpt>
      <trkpt lat="45.14871" lon="5.93134">
        <ele>1938</ele>
        <time>2000-01-01T03:26:02.000Z</time>
      </trkpt>
      <trkpt lat="45.1487" lon="5.93148">
        <ele>1943.2</ele>
        <time>2000-01-01T03:26:12.000Z</time>
      </trkpt>
      <trkpt lat="45.14879" lon="5.93158">
        <ele>1941</ele>
        <time>2000-01-01T03:26:22.000Z</time>
      </trkpt>
      <trkpt lat="45.14885" lon="5.93172">
        <ele>1956.6</ele>
        <time>2000-01-01T03:26:32.000Z</time>
      </trkpt>
      <trkpt lat="45.14894" lon="5.93168">
        <ele>1952</ele>
        <time>2000-01-01T03:26:42.000Z</time>
      </trkpt>
      <trkpt lat="45.14898" lon="5.93154">
        <ele>1962.2</ele>
        <time>2000-01-01T03:26:52.000Z</time>
      </trkpt>
      <trkpt lat="45.149" lon="5.93154">
        <ele>1963.9</ele>
        <time>2000-01-01T03:27:02.000Z</time>
      </trkpt>
      <trkpt lat="45.14897" lon="5.93185">
        <ele>1960</ele>
        <time>2000-01-01T03:27:12.000Z</time>
      </trkpt>
      <trkpt lat="45.14901" lon="5.93199">
        <ele>1975</ele>
        <time>2000-01-01T03:27:22.000Z</time>
      </trkpt>
      <trkpt lat="45.14904" lon="5.93196">
        <ele>1974</ele>
        <time>2000-01-01T03:27:32.000Z</time>
      </trkpt>
      <trkpt lat="45.14912" lon="5.93221">
        <ele>1969</ele>
        <time>2000-01-01T03:27:42.000Z</time>
      </trkpt>
      <trkpt lat="45.14925" lon="5.93209">
        <ele>1982.5</ele>
        <time>2000-01-01T03:27:52.000Z</time>
      </trkpt>
      <trkpt lat="45.14927" lon="5.93219">
        <ele>1978</ele>
        <time>2000-01-01T03:28:02.000Z</time>
      </trkpt>
      <trkpt lat="45.14939" lon="5.93243">
        <ele>1981</ele>
        <time>2000-01-01T03:28:12.000Z</time>
      </trkpt>
      <trkpt lat="45.14943" lon="5.93246">
        <ele>1986.9</ele>
        <time>2000-01-01T03:28:22.000Z</time>
      </trkpt>
      <trkpt lat="45.14949" lon="5.93261">
        <ele>1989.9</ele>
        <time>2000-01-01T03:28:32.000Z</time>
      </trkpt>
      <trkpt lat="45.14956" lon="5.93261">
        <ele>1989</ele>
        <time>2000-01-01T03:28:42.000Z</time>
      </trkpt>
      <trkpt lat="45.14957" lon="5.93256">
        <ele>1992.2</ele>
        <time>2000-01-01T03:28:52.000Z</time>
      </trkpt>
      <trkpt lat="45.14965" lon="5.93265">
        <ele>1994.9</ele>
        <time>2000-01-01T03:29:02.000Z</time>
      </trkpt>
      <trkpt lat="45.14969" lon="5.93262">
        <ele>1996.3</ele>
        <time>2000-01-01T03:29:12.000Z</time>
      </trkpt>
      <trkpt lat="45.14987" lon="5.93274">
        <ele>1996</ele>
        <time>2000-01-01T03:29:22.000Z</time>
      </trkpt>
      <trkpt lat="45.14997" lon="5.93269">
        <ele>1999.9</ele>
        <time>2000-01-01T03:29:32.000Z</time>
      </trkpt>
      <trkpt lat="45.15012" lon="5.93227">
        <ele>2000</ele>
        <time>2000-01-01T03:29:42.000Z</time>
      </trkpt>
      <trkpt lat="45.15031" lon="5.93193">
        <ele>2004</ele>
        <time>2000-01-01T03:29:52.000Z</time>
      </trkpt>
      <trkpt lat="45.15034" lon="5.93189">
        <ele>2005.2</ele>
        <time>2000-01-01T03:30:02.000Z</time>
      </trkpt>
      <trkpt lat="45.15045" lon="5.93183">
        <ele>2006.3</ele>
        <time>2000-01-01T03:30:12.000Z</time>
      </trkpt>
      <trkpt lat="45.15041" lon="5.93201">
        <ele>2008</ele>
        <time>2000-01-01T03:30:22.000Z</time>
      </trkpt>
      <trkpt lat="45.15049" lon="5.93224">
        <ele>2013.9</ele>
        <time>2000-01-01T03:30:32.000Z</time>
      </trkpt>
      <trkpt lat="45.15059" lon="5.93232">
        <ele>2015</ele>
        <time>2000-01-01T03:30:42.000Z</time>
      </trkpt>
      <trkpt lat="45.1506" lon="5.93265">
        <ele>2020</ele>
        <time>2000-01-01T03:30:52.000Z</time>
      </trkpt>
      <trkpt lat="45.15063" lon="5.93278">
        <ele>2022.8</ele>
        <time>2000-01-01T03:31:02.000Z</time>
      </trkpt>
      <trkpt lat="45.15072" lon="5.933">
        <ele>2024</ele>
        <time>2000-01-01T03:31:12.000Z</time>
      </trkpt>
      <trkpt lat="45.15079" lon="5.93309">
        <ele>2028.5</ele>
        <time>2000-01-01T03:31:22.000Z</time>
      </trkpt>
      <trkpt lat="45.15079" lon="5.93316">
        <ele>2029.6</ele>
        <time>2000-01-01T03:31:32.000Z</time>
      </trkpt>
      <trkpt lat="45.15072" lon="5.93333">
        <ele>2029</ele>
        <time>2000-01-01T03:31:42.000Z</time>
      </trkpt>
      <trkpt lat="45.15078" lon="5.93349">
        <ele>2034.6</ele>
        <time>2000-01-01T03:31:52.000Z</time>
      </trkpt>
      <trkpt lat="45.15085" lon="5.9336">
        <ele>2036</ele>
        <time>2000-01-01T03:32:02.000Z</time>
      </trkpt>
      <trkpt lat="45.15088" lon="5.93374">
        <ele>2041</ele>
        <time>2000-01-01T03:32:12.000Z</time>
      </trkpt>
      <trkpt lat="45.15095" lon="5.93385">
        <ele>2043</ele>
        <time>2000-01-01T03:32:22.000Z</time>
      </trkpt>
      <trkpt lat="45.15127" lon="5.93401">
        <ele>2039</ele>
        <time>2000-01-01T03:32:32.000Z</time>
      </trkpt>
      <trkpt lat="45.15161" lon="5.93441">
        <ele>2035</ele>
        <time>2000-01-01T03:32:42.000Z</time>
      </trkpt>
      <trkpt lat="45.15187" lon="5.93445">
        <ele>2033</ele>
        <time>2000-01-01T03:32:52.000Z</time>
      </trkpt>
      <trkpt lat="45.15206" lon="5.93466">
        <ele>2028</ele>
        <time>2000-01-01T03:33:02.000Z</time>
      </trkpt>
      <trkpt lat="45.15212" lon="5.93462">
        <ele>2028</ele>
        <time>2000-01-01T03:33:12.000Z</time>
      </trkpt>
      <trkpt lat="45.15227" lon="5.93479">
        <ele>2028</ele>
        <time>2000-01-01T03:33:22.000Z</time>
      </trkpt>
      <trkpt lat="45.15234" lon="5.93477">
        <ele>2025.9</ele>
        <time>2000-01-01T03:33:32.000Z</time>
      </trkpt>
      <trkpt lat="45.15247" lon="5.93489">
        <ele>2027</ele>
        <time>2000-01-01T03:33:42.000Z</time>
      </trkpt>
      <trkpt lat="45.15251" lon="5.93511">
        <ele>2027.9</ele>
        <time>2000-01-01T03:33:52.000Z</time>
      </trkpt>
      <trkpt lat="45.15249" lon="5.93534">
        <ele>2027</ele>
        <time>2000-01-01T03:34:02.000Z</time>
      </trkpt>
      <trkpt lat="45.1526" lon="5.93557">
        <ele>2030</ele>
        <time>2000-01-01T03:34:12.000Z</time>
      </trkpt>
      <trkpt lat="45.15262" lon="5.9358">
        <ele>2032.4</ele>
        <time>2000-01-01T03:34:22.000Z</time>
      </trkpt>
      <trkpt lat="45.15268" lon="5.93589">
        <ele>2030</ele>
        <time>2000-01-01T03:34:32.000Z</time>
      </trkpt>
      <trkpt lat="45.15277" lon="5.93595">
        <ele>2036.1</ele>
        <time>2000-01-01T03:34:42.000Z</time>
      </trkpt>
      <trkpt lat="45.15288" lon="5.93616">
        <ele>2035</ele>
        <time>2000-01-01T03:34:52.000Z</time>
      </trkpt>
      <trkpt lat="45.15288" lon="5.93622">
        <ele>2035.6</ele>
        <time>2000-01-01T03:35:02.000Z</time>
      </trkpt>
      <trkpt lat="45.153" lon="5.93633">
        <ele>2038.5</ele>
        <time>2000-01-01T03:35:12.000Z</time>
      </trkpt>
      <trkpt lat="45.15313" lon="5.93639">
        <ele>2038</ele>
        <time>2000-01-01T03:35:22.000Z</time>
      </trkpt>
      <trkpt lat="45.15321" lon="5.93649">
        <ele>2039.4</ele>
        <time>2000-01-01T03:35:32.000Z</time>
      </trkpt>
      <trkpt lat="45.15332" lon="5.93655">
        <ele>2038</ele>
        <time>2000-01-01T03:35:42.000Z</time>
      </trkpt>
      <trkpt lat="45.15338" lon="5.93675">
        <ele>2038.4</ele>
        <time>2000-01-01T03:35:52.000Z</time>
      </trkpt>
      <trkpt lat="45.15365" lon="5.93725">
        <ele>2038</ele>
        <time>2000-01-01T03:36:02.000Z</time>
      </trkpt>
      <trkpt lat="45.15371" lon="5.93729">
        <ele>2038.5</ele>
        <time>2000-01-01T03:36:12.000Z</time>
      </trkpt>
      <trkpt lat="45.15384" lon="5.93749">
        <ele>2042</ele>
        <time>2000-01-01T03:36:22.000Z</time>
      </trkpt>
      <trkpt lat="45.15394" lon="5.93753">
        <ele>2044.9</ele>
        <time>2000-01-01T03:36:32.000Z</time>
      </trkpt>
      <trkpt lat="45.15397" lon="5.93758">
        <ele>2044.8</ele>
        <time>2000-01-01T03:36:42.000Z</time>
      </trkpt>
      <trkpt lat="45.15405" lon="5.93785">
        <ele>2041</ele>
        <time>2000-01-01T03:36:52.000Z</time>
      </trkpt>
      <trkpt lat="45.1541" lon="5.9382">
        <ele>2041</ele>
        <time>2000-01-01T03:37:02.000Z</time>
      </trkpt>
      <trkpt lat="45.15416" lon="5.93831">
        <ele>2043.8</ele>
        <time>2000-01-01T03:37:12.000Z</time>
      </trkpt>
      <trkpt lat="45.15423" lon="5.93842">
        <ele>2045</ele>
        <time>2000-01-01T03:37:22.000Z</time>
      </trkpt>
      <trkpt lat="45.15434" lon="5.93855">
        <ele>2046.4</ele>
        <time>2000-01-01T03:37:32.000Z</time>
      </trkpt>
      <trkpt lat="45.15439" lon="5.93857">
        <ele>2045</ele>
        <time>2000-01-01T03:37:42.000Z</time>
      </trkpt>
      <trkpt lat="45.15445" lon="5.93866">
        <ele>2048.8</ele>
        <time>2000-01-01T03:37:52.000Z</time>
      </trkpt>
      <trkpt lat="45.15455" lon="5.93893">
        <ele>2045</ele>
        <time>2000-01-01T03:38:02.000Z</time>
      </trkpt>
      <trkpt lat="45.15462" lon="5.93904">
        <ele>2044.2</ele>
        <time>2000-01-01T03:38:12.000Z</time>
      </trkpt>
      <trkpt lat="45.15478" lon="5.93911">
        <ele>2045</ele>
        <time>2000-01-01T03:38:22.000Z</time>
      </trkpt>
      <trkpt lat="45.15485" lon="5.93921">
        <ele>2047.1</ele>
        <time>2000-01-01T03:38:32.000Z</time>
      </trkpt>
      <trkpt lat="45.15488" lon="5.93931">
        <ele>2048.7</ele>
        <time>2000-01-01T03:38:42.000Z</time>
      </trkpt>
      <trkpt lat="45.15507" lon="5.93947">
        <ele>2051</ele>
        <time>2000-01-01T03:38:52.000Z</time>
      </trkpt>
      <trkpt lat="45.15514" lon="5.93993">
        <ele>2051</ele>
        <time>2000-01-01T03:39:02.000Z</time>
      </trkpt>
      <trkpt lat="45.15516" lon="5.94035">
        <ele>2051</ele>
        <time>2000-01-01T03:39:12.000Z</time>
      </trkpt>
      <trkpt lat="45.15525" lon="5.94052">
        <ele>2050.1</ele>
        <time>2000-01-01T03:39:22.000Z</time>
      </trkpt>
      <trkpt lat="45.15532" lon="5.94079">
        <ele>2051</ele>
        <time>2000-01-01T03:39:32.000Z</time>
      </trkpt>
      <trkpt lat="45.15538" lon="5.94093">
        <ele>2051.8</ele>
        <time>2000-01-01T03:39:42.000Z</time>
      </trkpt>
      <trkpt lat="45.15553" lon="5.94099">
        <ele>2051</ele>
        <time>2000-01-01T03:39:52.000Z</time>
      </trkpt>
      <trkpt lat="45.15564" lon="5.94109">
        <ele>2052.4</ele>
        <time>2000-01-01T03:40:02.000Z</time>
      </trkpt>
      <trkpt lat="45.15575" lon="5.94115">
        <ele>2051</ele>
        <time>2000-01-01T03:40:12.000Z</time>
      </trkpt>
      <trkpt lat="45.15588" lon="5.94119">
        <ele>2048.9</ele>
        <time>2000-01-01T03:40:22.000Z</time>
      </trkpt>
      <trkpt lat="45.15602" lon="5.9416">
        <ele>2050</ele>
        <time>2000-01-01T03:40:32.000Z</time>
      </trkpt>
      <trkpt lat="45.15606" lon="5.94191">
        <ele>2050</ele>
        <time>2000-01-01T03:40:42.000Z</time>
      </trkpt>
      <trkpt lat="45.15619" lon="5.94192">
        <ele>2049.7</ele>
        <time>2000-01-01T03:40:52.000Z</time>
      </trkpt>
      <trkpt lat="45.15625" lon="5.94189">
        <ele>2049</ele>
        <time>2000-01-01T03:41:02.000Z</time>
      </trkpt>
      <trkpt lat="45.15636" lon="5.94188">
        <ele>2048.5</ele>
        <time>2000-01-01T03:41:12.000Z</time>
      </trkpt>
      <trkpt lat="45.15647" lon="5.94191">
        <ele>2049</ele>
        <time>2000-01-01T03:41:22.000Z</time>
      </trkpt>
      <trkpt lat="45.15666" lon="5.94204">
        <ele>2049</ele>
        <time>2000-01-01T03:41:32.000Z</time>
      </trkpt>
      <trkpt lat="45.15682" lon="5.94211">
        <ele>2051.7</ele>
        <time>2000-01-01T03:41:42.000Z</time>
      </trkpt>
      <trkpt lat="45.15707" lon="5.94206">
        <ele>2049</ele>
        <time>2000-01-01T03:41:52.000Z</time>
      </trkpt>
      <trkpt lat="45.15715" lon="5.94209">
        <ele>2052.7</ele>
        <time>2000-01-01T03:42:02.000Z</time>
      </trkpt>
      <trkpt lat="45.15733" lon="5.94209">
        <ele>2050</ele>
        <time>2000-01-01T03:42:12.000Z</time>
      </trkpt>
      <trkpt lat="45.15752" lon="5.94217">
        <ele>2055</ele>
        <time>2000-01-01T03:42:22.000Z</time>
      </trkpt>
      <trkpt lat="45.15758" lon="5.94241">
        <ele>2066.9</ele>
        <time>2000-01-01T03:42:32.000Z</time>
      </trkpt>
      <trkpt lat="45.15784" lon="5.94278">
        <ele>2074</ele>
        <time>2000-01-01T03:42:42.000Z</time>
      </trkpt>
      <trkpt lat="45.15789" lon="5.94292">
        <ele>2077.2</ele>
        <time>2000-01-01T03:42:52.000Z</time>
      </trkpt>
      <trkpt lat="45.15806" lon="5.94294">
        <ele>2077</ele>
        <time>2000-01-01T03:43:02.000Z</time>
      </trkpt>
      <trkpt lat="45.15831" lon="5.94305">
        <ele>2079</ele>
        <time>2000-01-01T03:43:12.000Z</time>
      </trkpt>
      <trkpt lat="45.15855" lon="5.94327">
        <ele>2081</ele>
        <time>2000-01-01T03:43:22.000Z</time>
      </trkpt>
      <trkpt lat="45.15863" lon="5.94331">
        <ele>2081.8</ele>
        <time>2000-01-01T03:43:32.000Z</time>
      </trkpt>
      <trkpt lat="45.15897" lon="5.94358">
        <ele>2082</ele>
        <time>2000-01-01T03:43:42.000Z</time>
      </trkpt>
      <trkpt lat="45.15918" lon="5.94368">
        <ele>2083</ele>
        <time>2000-01-01T03:43:52.000Z</time>
      </trkpt>
      <trkpt lat="45.15927" lon="5.94379">
        <ele>2084.4</ele>
        <time>2000-01-01T03:44:02.000Z</time>
      </trkpt>
      <trkpt lat="45.15952" lon="5.94392">
        <ele>2085</ele>
        <time>2000-01-01T03:44:12.000Z</time>
      </trkpt>
      <trkpt lat="45.15968" lon="5.94407">
        <ele>2085</ele>
        <time>2000-01-01T03:44:22.000Z</time>
      </trkpt>
      <trkpt lat="45.15974" lon="5.94417">
        <ele>2086.1</ele>
        <time>2000-01-01T03:44:32.000Z</time>
      </trkpt>
      <trkpt lat="45.16001" lon="5.94445">
        <ele>2088</ele>
        <time>2000-01-01T03:44:42.000Z</time>
      </trkpt>
      <trkpt lat="45.16011" lon="5.94452">
        <ele>2089.9</ele>
        <time>2000-01-01T03:44:52.000Z</time>
      </trkpt>
      <trkpt lat="45.16029" lon="5.94471">
        <ele>2090</ele>
        <time>2000-01-01T03:45:02.000Z</time>
      </trkpt>
      <trkpt lat="45.16064" lon="5.9448">
        <ele>2094</ele>
        <time>2000-01-01T03:45:12.000Z</time>
      </trkpt>
      <trkpt lat="45.16072" lon="5.94478">
        <ele>2096.8</ele>
        <time>2000-01-01T03:45:22.000Z</time>
      </trkpt>
      <trkpt lat="45.16083" lon="5.94471">
        <ele>2096</ele>
        <time>2000-01-01T03:45:32.000Z</time>
      </trkpt>
      <trkpt lat="45.16088" lon="5.94463">
        <ele>2098.3</ele>
        <time>2000-01-01T03:45:42.000Z</time>
      </trkpt>
      <trkpt lat="45.16101" lon="5.94459">
        <ele>2099</ele>
        <time>2000-01-01T03:45:52.000Z</time>
      </trkpt>
      <trkpt lat="45.16103" lon="5.94456">
        <ele>2102</ele>
        <time>2000-01-01T03:46:02.000Z</time>
      </trkpt>
      <trkpt lat="45.16109" lon="5.94456">
        <ele>2103.8</ele>
        <time>2000-01-01T03:46:12.000Z</time>
      </trkpt>
      <trkpt lat="45.16111" lon="5.9445">
        <ele>2104.2</ele>
        <time>2000-01-01T03:46:22.000Z</time>
      </trkpt>
      <trkpt lat="45.16117" lon="5.94449">
        <ele>2102</ele>
        <time>2000-01-01T03:46:32.000Z</time>
      </trkpt>
      <trkpt lat="45.16124" lon="5.94443">
        <ele>2107.1</ele>
        <time>2000-01-01T03:46:42.000Z</time>
      </trkpt>
      <trkpt lat="45.16125" lon="5.94436">
        <ele>2106.4</ele>
        <time>2000-01-01T03:46:52.000Z</time>
      </trkpt>
      <trkpt lat="45.16167" lon="5.94471">
        <ele>2118</ele>
        <time>2000-01-01T03:47:02.000Z</time>
      </trkpt>
      <trkpt lat="45.16176" lon="5.94496">
        <ele>2123</ele>
        <time>2000-01-01T03:47:12.000Z</time>
      </trkpt>
      <trkpt lat="45.16193" lon="5.94526">
        <ele>2128</ele>
        <time>2000-01-01T03:47:22.000Z</time>
      </trkpt>
      <trkpt lat="45.16209" lon="5.9454">
        <ele>2132.7</ele>
        <time>2000-01-01T03:47:32.000Z</time>
      </trkpt>
      <trkpt lat="45.16257" lon="5.94544">
        <ele>2138</ele>
        <time>2000-01-01T03:47:42.000Z</time>
      </trkpt>
      <trkpt lat="45.16283" lon="5.94551">
        <ele>2143</ele>
        <time>2000-01-01T03:47:52.000Z</time>
      </trkpt>
      <trkpt lat="45.16288" lon="5.94555">
        <ele>2146.6</ele>
        <time>2000-01-01T03:48:02.000Z</time>
      </trkpt>
      <trkpt lat="45.1629" lon="5.94551">
        <ele>2148.5</ele>
        <time>2000-01-01T03:48:12.000Z</time>
      </trkpt>
      <trkpt lat="45.16297" lon="5.94553">
        <ele>2150.8</ele>
        <time>2000-01-01T03:48:22.000Z</time>
      </trkpt>
      <trkpt lat="45.16315" lon="5.94543">
        <ele>2153</ele>
        <time>2000-01-01T03:48:32.000Z</time>
      </trkpt>
      <trkpt lat="45.16321" lon="5.94547">
        <ele>2160.8</ele>
        <time>2000-01-01T03:48:42.000Z</time>
      </trkpt>
      <trkpt lat="45.1634" lon="5.94539">
        <ele>2166</ele>
        <time>2000-01-01T03:48:52.000Z</time>
      </trkpt>
      <trkpt lat="45.16358" lon="5.94535">
        <ele>2167.1</ele>
        <time>2000-01-01T03:49:02.000Z</time>
      </trkpt>
      <trkpt lat="45.16359" lon="5.94532">
        <ele>2163</ele>
        <time>2000-01-01T03:49:12.000Z</time>
      </trkpt>
      <trkpt lat="45.16367" lon="5.94538">
        <ele>2166.5</ele>
        <time>2000-01-01T03:49:22.000Z</time>
      </trkpt>
      <trkpt lat="45.16376" lon="5.94532">
        <ele>2163.2</ele>
        <time>2000-01-01T03:49:32.000Z</time>
      </trkpt>
      <trkpt lat="45.16385" lon="5.94538">
        <ele>2161</ele>
        <time>2000-01-01T03:49:42.000Z</time>
      </trkpt>
      <trkpt lat="45.1639" lon="5.94499">
        <ele>2151</ele>
        <time>2000-01-01T03:49:52.000Z</time>
      </trkpt>
      <trkpt lat="45.16387" lon="5.9449">
        <ele>2149.2</ele>
        <time>2000-01-01T03:50:02.000Z</time>
      </trkpt>
      <trkpt lat="45.16394" lon="5.94456">
        <ele>2138</ele>
        <time>2000-01-01T03:50:12.000Z</time>
      </trkpt>
      <trkpt lat="45.16391" lon="5.94445">
        <ele>2138.1</ele>
        <time>2000-01-01T03:50:22.000Z</time>
      </trkpt>
      <trkpt lat="45.16392" lon="5.94377">
        <ele>2126</ele>
        <time>2000-01-01T03:50:32.000Z</time>
      </trkpt>
      <trkpt lat="45.16409" lon="5.94392">
        <ele>2124</ele>
        <time>2000-01-01T03:50:42.000Z</time>
      </trkpt>
      <trkpt lat="45.16411" lon="5.94386">
        <ele>2119.1</ele>
        <time>2000-01-01T03:50:52.000Z</time>
      </trkpt>
      <trkpt lat="45.16408" lon="5.94343">
        <ele>2119</ele>
        <time>2000-01-01T03:51:02.000Z</time>
      </trkpt>
      <trkpt lat="45.16415" lon="5.94356">
        <ele>2112.9</ele>
        <time>2000-01-01T03:51:12.000Z</time>
      </trkpt>
      <trkpt lat="45.16419" lon="5.94357">
        <ele>2111.3</ele>
        <time>2000-01-01T03:51:22.000Z</time>
      </trkpt>
      <trkpt lat="45.16422" lon="5.94352">
        <ele>2109</ele>
        <time>2000-01-01T03:51:32.000Z</time>
      </trkpt>
      <trkpt lat="45.16419" lon="5.94342">
        <ele>2108.1</ele>
        <time>2000-01-01T03:51:42.000Z</time>
      </trkpt>
      <trkpt lat="45.16419" lon="5.94326">
        <ele>2105.5</ele>
        <time>2000-01-01T03:51:52.000Z</time>
      </trkpt>
      <trkpt lat="45.16422" lon="5.94318">
        <ele>2101</ele>
        <time>2000-01-01T03:52:02.000Z</time>
      </trkpt>
      <trkpt lat="45.1643" lon="5.94331">
        <ele>2102.9</ele>
        <time>2000-01-01T03:52:12.000Z</time>
      </trkpt>
      <trkpt lat="45.1644" lon="5.94336">
        <ele>2101</ele>
        <time>2000-01-01T03:52:22.000Z</time>
      </trkpt>
      <trkpt lat="45.16444" lon="5.94314">
        <ele>2097</ele>
        <time>2000-01-01T03:52:32.000Z</time>
      </trkpt>
      <trkpt lat="45.1645" lon="5.94316">
        <ele>2098</ele>
        <time>2000-01-01T03:52:42.000Z</time>
      </trkpt>
      <trkpt lat="45.16452" lon="5.9432">
        <ele>2095</ele>
        <time>2000-01-01T03:52:52.000Z</time>
      </trkpt>
      <trkpt lat="45.16456" lon="5.9432">
        <ele>2093.6</ele>
        <time>2000-01-01T03:53:02.000Z</time>
      </trkpt>
      <trkpt lat="45.16458" lon="5.94306">
        <ele>2090.7</ele>
        <time>2000-01-01T03:53:12.000Z</time>
      </trkpt>
      <trkpt lat="45.16472" lon="5.94278">
        <ele>2084</ele>
        <time>2000-01-01T03:53:22.000Z</time>
      </trkpt>
      <trkpt lat="45.16482" lon="5.94264">
        <ele>2079.6</ele>
        <time>2000-01-01T03:53:32.000Z</time>
      </trkpt>
      <trkpt lat="45.16505" lon="5.94242">
        <ele>2078</ele>
        <time>2000-01-01T03:53:42.000Z</time>
      </trkpt>
      <trkpt lat="45.16524" lon="5.94245">
        <ele>2076</ele>
        <time>2000-01-01T03:53:52.000Z</time>
      </trkpt>
      <trkpt lat="45.16543" lon="5.94221">
        <ele>2075</ele>
        <time>2000-01-01T03:54:02.000Z</time>
      </trkpt>
      <trkpt lat="45.1656" lon="5.94192">
        <ele>2072</ele>
        <time>2000-01-01T03:54:12.000Z</time>
      </trkpt>
      <trkpt lat="45.16582" lon="5.94155">
        <ele>2068</ele>
        <time>2000-01-01T03:54:22.000Z</time>
      </trkpt>
      <trkpt lat="45.16593" lon="5.94159">
        <ele>2069.1</ele>
        <time>2000-01-01T03:54:32.000Z</time>
      </trkpt>
      <trkpt lat="45.16599" lon="5.94165">
        <ele>2069.4</ele>
        <time>2000-01-01T03:54:42.000Z</time>
      </trkpt>
      <trkpt lat="45.16636" lon="5.94174">
        <ele>2066</ele>
        <time>2000-01-01T03:54:52.000Z</time>
      </trkpt>
      <trkpt lat="45.16638" lon="5.9418">
        <ele>2069.4</ele>
        <time>2000-01-01T03:55:02.000Z</time>
      </trkpt>
      <trkpt lat="45.16645" lon="5.94183">
        <ele>2070.6</ele>
        <time>2000-01-01T03:55:12.000Z</time>
      </trkpt>
      <trkpt lat="45.16663" lon="5.9416">
        <ele>2059</ele>
        <time>2000-01-01T03:55:22.000Z</time>
      </trkpt>
      <trkpt lat="45.16679" lon="5.94148">
        <ele>2061.4</ele>
        <time>2000-01-01T03:55:32.000Z</time>
      </trkpt>
      <trkpt lat="45.16695" lon="5.94119">
        <ele>2054</ele>
        <time>2000-01-01T03:55:42.000Z</time>
      </trkpt>
      <trkpt lat="45.16702" lon="5.94091">
        <ele>2052</ele>
        <time>2000-01-01T03:55:52.000Z</time>
      </trkpt>
      <trkpt lat="45.16701" lon="5.94077">
        <ele>2050.1</ele>
        <time>2000-01-01T03:56:02.000Z</time>
      </trkpt>
      <trkpt lat="45.16696" lon="5.94059">
        <ele>2046</ele>
        <time>2000-01-01T03:56:12.000Z</time>
      </trkpt>
      <trkpt lat="45.16697" lon="5.94052">
        <ele>2046.7</ele>
        <time>2000-01-01T03:56:22.000Z</time>
      </trkpt>
      <trkpt lat="45.16705" lon="5.94035">
        <ele>2045</ele>
        <time>2000-01-01T03:56:32.000Z</time>
      </trkpt>
      <trkpt lat="45.16706" lon="5.94039">
        <ele>2045.4</ele>
        <time>2000-01-01T03:56:42.000Z</time>
      </trkpt>
      <trkpt lat="45.16715" lon="5.94048">
        <ele>2046.7</ele>
        <time>2000-01-01T03:56:52.000Z</time>
      </trkpt>
      <trkpt lat="45.16726" lon="5.94042">
        <ele>2044</ele>
        <time>2000-01-01T03:57:02.000Z</time>
      </trkpt>
      <trkpt lat="45.16732" lon="5.94029">
        <ele>2044.6</ele>
        <time>2000-01-01T03:57:12.000Z</time>
      </trkpt>
      <trkpt lat="45.16749" lon="5.94005">
        <ele>2040</ele>
        <time>2000-01-01T03:57:22.000Z</time>
      </trkpt>
      <trkpt lat="45.16755" lon="5.93981">
        <ele>2040.7</ele>
        <time>2000-01-01T03:57:32.000Z</time>
      </trkpt>
      <trkpt lat="45.16757" lon="5.93949">
        <ele>2037</ele>
        <time>2000-01-01T03:57:42.000Z</time>
      </trkpt>
      <trkpt lat="45.16762" lon="5.93931">
        <ele>2038.5</ele>
        <time>2000-01-01T03:57:52.000Z</time>
      </trkpt>
      <trkpt lat="45.16777" lon="5.93904">
        <ele>2031</ele>
        <time>2000-01-01T03:58:02.000Z</time>
      </trkpt>
      <trkpt lat="45.16785" lon="5.93905">
        <ele>2032.6</ele>
        <time>2000-01-01T03:58:12.000Z</time>
      </trkpt>
      <trkpt lat="45.16792" lon="5.93903">
        <ele>2030.3</ele>
        <time>2000-01-01T03:58:22.000Z</time>
      </trkpt>
      <trkpt lat="45.16792" lon="5.93891">
        <ele>2027</ele>
        <time>2000-01-01T03:58:32.000Z</time>
      </trkpt>
      <trkpt lat="45.16794" lon="5.93889">
        <ele>2024.4</ele>
        <time>2000-01-01T03:58:42.000Z</time>
      </trkpt>
      <trkpt lat="45.16803" lon="5.93891">
        <ele>2022.6</ele>
        <time>2000-01-01T03:58:52.000Z</time>
      </trkpt>
      <trkpt lat="45.16808" lon="5.93897">
        <ele>2024</ele>
        <time>2000-01-01T03:59:02.000Z</time>
      </trkpt>
      <trkpt lat="45.16829" lon="5.93909">
        <ele>2021</ele>
        <time>2000-01-01T03:59:12.000Z</time>
      </trkpt>
      <trkpt lat="45.16843" lon="5.93894">
        <ele>2018.6</ele>
        <time>2000-01-01T03:59:22.000Z</time>
      </trkpt>
      <trkpt lat="45.16865" lon="5.93883">
        <ele>2014</ele>
        <time>2000-01-01T03:59:32.000Z</time>
      </trkpt>
      <trkpt lat="45.16875" lon="5.93873">
        <ele>2016.2</ele>
        <time>2000-01-01T03:59:42.000Z</time>
      </trkpt>
      <trkpt lat="45.16886" lon="5.93853">
        <ele>2009</ele>
        <time>2000-01-01T03:59:52.000Z</time>
      </trkpt>
      <trkpt lat="45.169" lon="5.93839">
        <ele>2012.1</ele>
        <time>2000-01-01T04:00:02.000Z</time>
      </trkpt>
      <trkpt lat="45.16915" lon="5.93818">
        <ele>2003</ele>
        <time>2000-01-01T04:00:12.000Z</time>
      </trkpt>
      <trkpt lat="45.16932" lon="5.93789">
        <ele>1998</ele>
        <time>2000-01-01T04:00:22.000Z</time>
      </trkpt>
      <trkpt lat="45.1694" lon="5.93785">
        <ele>2004.9</ele>
        <time>2000-01-01T04:00:32.000Z</time>
      </trkpt>
      <trkpt lat="45.16953" lon="5.93766">
        <ele>1996</ele>
        <time>2000-01-01T04:00:42.000Z</time>
      </trkpt>
      <trkpt lat="45.16964" lon="5.93755">
        <ele>1996.8</ele>
        <time>2000-01-01T04:00:52.000Z</time>
      </trkpt>
      <trkpt lat="45.16999" lon="5.93731">
        <ele>1989</ele>
        <time>2000-01-01T04:01:02.000Z</time>
      </trkpt>
      <trkpt lat="45.17008" lon="5.93726">
        <ele>1988.1</ele>
        <time>2000-01-01T04:01:12.000Z</time>
      </trkpt>
      <trkpt lat="45.17038" lon="5.93723">
        <ele>1993</ele>
        <time>2000-01-01T04:01:22.000Z</time>
      </trkpt>
      <trkpt lat="45.17057" lon="5.93735">
        <ele>1983</ele>
        <time>2000-01-01T04:01:32.000Z</time>
      </trkpt>
      <trkpt lat="45.17065" lon="5.93732">
        <ele>2002.1</ele>
        <time>2000-01-01T04:01:42.000Z</time>
      </trkpt>
      <trkpt lat="45.1709" lon="5.93688">
        <ele>1981</ele>
        <time>2000-01-01T04:01:52.000Z</time>
      </trkpt>
      <trkpt lat="45.17098" lon="5.93682">
        <ele>1982.5</ele>
        <time>2000-01-01T04:02:02.000Z</time>
      </trkpt>
      <trkpt lat="45.17115" lon="5.93656">
        <ele>1981</ele>
        <time>2000-01-01T04:02:12.000Z</time>
      </trkpt>
      <trkpt lat="45.1712" lon="5.93647">
        <ele>1982.9</ele>
        <time>2000-01-01T04:02:22.000Z</time>
      </trkpt>
      <trkpt lat="45.17125" lon="5.93626">
        <ele>1981</ele>
        <time>2000-01-01T04:02:32.000Z</time>
      </trkpt>
      <trkpt lat="45.1714" lon="5.93619">
        <ele>1984.3</ele>
        <time>2000-01-01T04:02:42.000Z</time>
      </trkpt>
      <trkpt lat="45.1715" lon="5.93621">
        <ele>1983</ele>
        <time>2000-01-01T04:02:52.000Z</time>
      </trkpt>
      <trkpt lat="45.17142" lon="5.93615">
        <ele>1983.6</ele>
        <time>2000-01-01T04:03:02.000Z</time>
      </trkpt>
      <trkpt lat="45.17146" lon="5.93626">
        <ele>1983.8</ele>
        <time>2000-01-01T04:03:12.000Z</time>
      </trkpt>
      <trkpt lat="45.17144" lon="5.93639">
        <ele>1984</ele>
        <time>2000-01-01T04:03:22.000Z</time>
      </trkpt>
      <trkpt lat="45.17147" lon="5.93653">
        <ele>1987.6</ele>
        <time>2000-01-01T04:03:32.000Z</time>
      </trkpt>
      <trkpt lat="45.1715" lon="5.93655">
        <ele>1987.8</ele>
        <time>2000-01-01T04:03:42.000Z</time>
      </trkpt>
      <trkpt lat="45.17149" lon="5.93676">
        <ele>1990</ele>
        <time>2000-01-01T04:03:52.000Z</time>
      </trkpt>
      <trkpt lat="45.17144" lon="5.93693">
        <ele>1997.3</ele>
        <time>2000-01-01T04:04:02.000Z</time>
      </trkpt>
      <trkpt lat="45.17153" lon="5.93706">
        <ele>2002</ele>
        <time>2000-01-01T04:04:12.000Z</time>
      </trkpt>
      <trkpt lat="45.17156" lon="5.93705">
        <ele>2003.7</ele>
        <time>2000-01-01T04:04:22.000Z</time>
      </trkpt>
      <trkpt lat="45.17161" lon="5.93709">
        <ele>2006.3</ele>
        <time>2000-01-01T04:04:32.000Z</time>
      </trkpt>
      <trkpt lat="45.1717" lon="5.9373">
        <ele>2012</ele>
        <time>2000-01-01T04:04:42.000Z</time>
      </trkpt>
      <trkpt lat="45.17175" lon="5.93733">
        <ele>2019.2</ele>
        <time>2000-01-01T04:04:52.000Z</time>
      </trkpt>
      <trkpt lat="45.17172" lon="5.93733">
        <ele>2018.5</ele>
        <time>2000-01-01T04:05:02.000Z</time>
      </trkpt>
      <trkpt lat="45.1717" lon="5.9374">
        <ele>2020.9</ele>
        <time>2000-01-01T04:05:12.000Z</time>
      </trkpt>
      <trkpt lat="45.17172" lon="5.93746">
        <ele>2024</ele>
        <time>2000-01-01T04:05:22.000Z</time>
      </trkpt>
      <trkpt lat="45.17179" lon="5.93754">
        <ele>2023</ele>
        <time>2000-01-01T04:05:32.000Z</time>
      </trkpt>
      <trkpt lat="45.17178" lon="5.93761">
        <ele>2032.7</ele>
        <time>2000-01-01T04:05:42.000Z</time>
      </trkpt>
      <trkpt lat="45.17181" lon="5.93767">
        <ele>2036.3</ele>
        <time>2000-01-01T04:05:52.000Z</time>
      </trkpt>
      <trkpt lat="45.17188" lon="5.9377">
        <ele>2039.7</ele>
        <time>2000-01-01T04:06:02.000Z</time>
      </trkpt>
      <trkpt lat="45.17185" lon="5.93776">
        <ele>2036</ele>
        <time>2000-01-01T04:06:12.000Z</time>
      </trkpt>
      <trkpt lat="45.17195" lon="5.93782">
        <ele>2047.1</ele>
        <time>2000-01-01T04:06:22.000Z</time>
      </trkpt>
      <trkpt lat="45.17201" lon="5.93779">
        <ele>2048.8</ele>
        <time>2000-01-01T04:06:32.000Z</time>
      </trkpt>
      <trkpt lat="45.17194" lon="5.93788">
        <ele>2043</ele>
        <time>2000-01-01T04:06:42.000Z</time>
      </trkpt>
      <trkpt lat="45.17206" lon="5.93799">
        <ele>2058.7</ele>
        <time>2000-01-01T04:06:52.000Z</time>
      </trkpt>
      <trkpt lat="45.17218" lon="5.93816">
        <ele>2064</ele>
        <time>2000-01-01T04:07:02.000Z</time>
      </trkpt>
      <trkpt lat="45.17223" lon="5.93819">
        <ele>2070.5</ele>
        <time>2000-01-01T04:07:12.000Z</time>
      </trkpt>
      <trkpt lat="45.17233" lon="5.93817">
        <ele>2071.8</ele>
        <time>2000-01-01T04:07:22.000Z</time>
      </trkpt>
      <trkpt lat="45.17233" lon="5.93806">
        <ele>2067</ele>
        <time>2000-01-01T04:07:32.000Z</time>
      </trkpt>
      <trkpt lat="45.17237" lon="5.93808">
        <ele>2071.1</ele>
        <time>2000-01-01T04:07:42.000Z</time>
      </trkpt>
      <trkpt lat="45.1725" lon="5.93801">
        <ele>2072.5</ele>
        <time>2000-01-01T04:07:52.000Z</time>
      </trkpt>
      <trkpt lat="45.17248" lon="5.93806">
        <ele>2071</ele>
        <time>2000-01-01T04:08:02.000Z</time>
      </trkpt>
      <trkpt lat="45.17249" lon="5.93798">
        <ele>2071.3</ele>
        <time>2000-01-01T04:08:12.000Z</time>
      </trkpt>
      <trkpt lat="45.17251" lon="5.93805">
        <ele>2074</ele>
        <time>2000-01-01T04:08:22.000Z</time>
      </trkpt>
      <trkpt lat="45.17297" lon="5.93873">
        <ele>2084</ele>
        <time>2000-01-01T04:08:32.000Z</time>
      </trkpt>
      <trkpt lat="45.17328" lon="5.93905">
        <ele>2092</ele>
        <time>2000-01-01T04:08:42.000Z</time>
      </trkpt>
      <trkpt lat="45.17341" lon="5.93914">
        <ele>2100.6</ele>
        <time>2000-01-01T04:08:52.000Z</time>
      </trkpt>
      <trkpt lat="45.17345" lon="5.93925">
        <ele>2099</ele>
        <time>2000-01-01T04:09:02.000Z</time>
      </trkpt>
      <trkpt lat="45.17358" lon="5.93946">
        <ele>2102</ele>
        <time>2000-01-01T04:09:12.000Z</time>
      </trkpt>
      <trkpt lat="45.17364" lon="5.9399">
        <ele>2114</ele>
        <time>2000-01-01T04:09:22.000Z</time>
      </trkpt>
      <trkpt lat="45.17376" lon="5.94077">
        <ele>2133</ele>
        <time>2000-01-01T04:09:32.000Z</time>
      </trkpt>
      <trkpt lat="45.1739" lon="5.94124">
        <ele>2144</ele>
        <time>2000-01-01T04:09:42.000Z</time>
      </trkpt>
      <trkpt lat="45.17393" lon="5.94144">
        <ele>2150.7</ele>
        <time>2000-01-01T04:09:52.000Z</time>
      </trkpt>
      <trkpt lat="45.17383" lon="5.94197">
        <ele>2152</ele>
        <time>2000-01-01T04:10:02.000Z</time>
      </trkpt>
      <trkpt lat="45.17384" lon="5.94231">
        <ele>2159</ele>
        <time>2000-01-01T04:10:12.000Z</time>
      </trkpt>
      <trkpt lat="45.17386" lon="5.94265">
        <ele>2170</ele>
        <time>2000-01-01T04:10:22.000Z</time>
      </trkpt>
      <trkpt lat="45.17376" lon="5.94278">
        <ele>2179.4</ele>
        <time>2000-01-01T04:10:32.000Z</time>
      </trkpt>
      <trkpt lat="45.17387" lon="5.94296">
        <ele>2180</ele>
        <time>2000-01-01T04:10:42.000Z</time>
      </trkpt>
      <trkpt lat="45.1739" lon="5.94312">
        <ele>2184.4</ele>
        <time>2000-01-01T04:10:52.000Z</time>
      </trkpt>
      <trkpt lat="45.17387" lon="5.94336">
        <ele>2186</ele>
        <time>2000-01-01T04:11:02.000Z</time>
      </trkpt>
      <trkpt lat="45.17393" lon="5.94358">
        <ele>2194.3</ele>
        <time>2000-01-01T04:11:12.000Z</time>
      </trkpt>
      <trkpt lat="45.17394" lon="5.9438">
        <ele>2195</ele>
        <time>2000-01-01T04:11:22.000Z</time>
      </trkpt>
      <trkpt lat="45.17391" lon="5.944">
        <ele>2199.7</ele>
        <time>2000-01-01T04:11:32.000Z</time>
      </trkpt>
      <trkpt lat="45.17389" lon="5.94405">
        <ele>2199.9</ele>
        <time>2000-01-01T04:11:42.000Z</time>
      </trkpt>
      <trkpt lat="45.17374" lon="5.94397">
        <ele>2200</ele>
        <time>2000-01-01T04:11:52.000Z</time>
      </trkpt>
      <trkpt lat="45.17362" lon="5.94394">
        <ele>2202.6</ele>
        <time>2000-01-01T04:12:02.000Z</time>
      </trkpt>
      <trkpt lat="45.17336" lon="5.94408">
        <ele>2210</ele>
        <time>2000-01-01T04:12:12.000Z</time>
      </trkpt>
      <trkpt lat="45.17321" lon="5.94394">
        <ele>2216</ele>
        <time>2000-01-01T04:12:22.000Z</time>
      </trkpt>
      <trkpt lat="45.17315" lon="5.94378">
        <ele>2221</ele>
        <time>2000-01-01T04:12:32.000Z</time>
      </trkpt>
      <trkpt lat="45.17308" lon="5.94373">
        <ele>2222.8</ele>
        <time>2000-01-01T04:12:42.000Z</time>
      </trkpt>
      <trkpt lat="45.173" lon="5.94357">
        <ele>2232</ele>
        <time>2000-01-01T04:12:52.000Z</time>
      </trkpt>
      <trkpt lat="45.17284" lon="5.94337">
        <ele>2235</ele>
        <time>2000-01-01T04:13:02.000Z</time>
      </trkpt>
      <trkpt lat="45.17277" lon="5.94346">
        <ele>2237.1</ele>
        <time>2000-01-01T04:13:12.000Z</time>
      </trkpt>
      <trkpt lat="45.17273" lon="5.94361">
        <ele>2239</ele>
        <time>2000-01-01T04:13:22.000Z</time>
      </trkpt>
      <trkpt lat="45.17267" lon="5.94363">
        <ele>2240.4</ele>
        <time>2000-01-01T04:13:32.000Z</time>
      </trkpt>
      <trkpt lat="45.17258" lon="5.94394">
        <ele>2245</ele>
        <time>2000-01-01T04:13:42.000Z</time>
      </trkpt>
      <trkpt lat="45.17248" lon="5.94401">
        <ele>2246.4</ele>
        <time>2000-01-01T04:13:52.000Z</time>
      </trkpt>
      <trkpt lat="45.17248" lon="5.94403">
        <ele>2246.4</ele>
        <time>2000-01-01T04:14:02.000Z</time>
      </trkpt>
      <trkpt lat="45.17257" lon="5.94402">
        <ele>2245</ele>
        <time>2000-01-01T04:14:12.000Z</time>
      </trkpt>
      <trkpt lat="45.17255" lon="5.94393">
        <ele>2244.7</ele>
        <time>2000-01-01T04:14:22.000Z</time>
      </trkpt>
      <trkpt lat="45.17235" lon="5.94424">
        <ele>2250</ele>
        <time>2000-01-01T04:14:32.000Z</time>
      </trkpt>
      <trkpt lat="45.17216" lon="5.94448">
        <ele>2250</ele>
        <time>2000-01-01T04:14:42.000Z</time>
      </trkpt>
      <trkpt lat="45.17215" lon="5.94453">
        <ele>2254.9</ele>
        <time>2000-01-01T04:14:52.000Z</time>
      </trkpt>
      <trkpt lat="45.17219" lon="5.9446">
        <ele>2254.7</ele>
        <time>2000-01-01T04:15:02.000Z</time>
      </trkpt>
      <trkpt lat="45.17226" lon="5.94463">
        <ele>2253.5</ele>
        <time>2000-01-01T04:15:12.000Z</time>
      </trkpt>
      <trkpt lat="45.17241" lon="5.9448">
        <ele>2251</ele>
        <time>2000-01-01T04:15:22.000Z</time>
      </trkpt>
      <trkpt lat="45.17266" lon="5.94518">
        <ele>2252</ele>
        <time>2000-01-01T04:15:32.000Z</time>
      </trkpt>
      <trkpt lat="45.17268" lon="5.94532">
        <ele>2256.5</ele>
        <time>2000-01-01T04:15:42.000Z</time>
      </trkpt>
      <trkpt lat="45.1728" lon="5.94551">
        <ele>2262</ele>
        <time>2000-01-01T04:15:52.000Z</time>
      </trkpt>
      <trkpt lat="45.17286" lon="5.9457">
        <ele>2267.7</ele>
        <time>2000-01-01T04:16:02.000Z</time>
      </trkpt>
      <trkpt lat="45.17287" lon="5.94583">
        <ele>2272</ele>
        <time>2000-01-01T04:16:12.000Z</time>
      </trkpt>
      <trkpt lat="45.17291" lon="5.94591">
        <ele>2275.9</ele>
        <time>2000-01-01T04:16:22.000Z</time>
      </trkpt>
      <trkpt lat="45.17289" lon="5.94598">
        <ele>2279</ele>
        <time>2000-01-01T04:16:32.000Z</time>
      </trkpt>
      <trkpt lat="45.17292" lon="5.94605">
        <ele>2281.8</ele>
        <time>2000-01-01T04:16:42.000Z</time>
      </trkpt>
      <trkpt lat="45.17298" lon="5.94607">
        <ele>2279</ele>
        <time>2000-01-01T04:16:52.000Z</time>
      </trkpt>
      <trkpt lat="45.1731" lon="5.94623">
        <ele>2289.2</ele>
        <time>2000-01-01T04:17:02.000Z</time>
      </trkpt>
      <trkpt lat="45.17323" lon="5.94632">
        <ele>2291</ele>
        <time>2000-01-01T04:17:12.000Z</time>
      </trkpt>
      <trkpt lat="45.17321" lon="5.94637">
        <ele>2296.7</ele>
        <time>2000-01-01T04:17:22.000Z</time>
      </trkpt>
      <trkpt lat="45.17331" lon="5.94672">
        <ele>2316</ele>
        <time>2000-01-01T04:17:32.000Z</time>
      </trkpt>
      <trkpt lat="45.17339" lon="5.94676">
        <ele>2320.2</ele>
        <time>2000-01-01T04:17:42.000Z</time>
      </trkpt>
      <trkpt lat="45.17343" lon="5.94686">
        <ele>2326.4</ele>
        <time>2000-01-01T04:17:52.000Z</time>
      </trkpt>
      <trkpt lat="45.17349" lon="5.94691">
        <ele>2326</ele>
        <time>2000-01-01T04:18:02.000Z</time>
      </trkpt>
      <trkpt lat="45.17354" lon="5.9471">
        <ele>2340.1</ele>
        <time>2000-01-01T04:18:12.000Z</time>
      </trkpt>
      <trkpt lat="45.17366" lon="5.94711">
        <ele>2343</ele>
        <time>2000-01-01T04:18:22.000Z</time>
      </trkpt>
      <trkpt lat="45.17365" lon="5.94714">
        <ele>2345</ele>
        <time>2000-01-01T04:18:32.000Z</time>
      </trkpt>
      <trkpt lat="45.1737" lon="5.94717">
        <ele>2347.8</ele>
        <time>2000-01-01T04:18:42.000Z</time>
      </trkpt>
      <trkpt lat="45.17376" lon="5.9474">
        <ele>2354</ele>
        <time>2000-01-01T04:18:52.000Z</time>
      </trkpt>
      <trkpt lat="45.17375" lon="5.94751">
        <ele>2357.6</ele>
        <time>2000-01-01T04:19:02.000Z</time>
      </trkpt>
      <trkpt lat="45.17381" lon="5.94797">
        <ele>2354</ele>
        <time>2000-01-01T04:19:12.000Z</time>
      </trkpt>
      <trkpt lat="45.1742" lon="5.94825">
        <ele>2350</ele>
        <time>2000-01-01T04:19:22.000Z</time>
      </trkpt>
      <trkpt lat="45.17427" lon="5.94834">
        <ele>2350.2</ele>
        <time>2000-01-01T04:19:32.000Z</time>
      </trkpt>
      <trkpt lat="45.17435" lon="5.94853">
        <ele>2346</ele>
        <time>2000-01-01T04:19:42.000Z</time>
      </trkpt>
      <trkpt lat="45.17446" lon="5.94866">
        <ele>2336.5</ele>
        <time>2000-01-01T04:19:52.000Z</time>
      </trkpt>
      <trkpt lat="45.17439" lon="5.94876">
        <ele>2346</ele>
        <time>2000-01-01T04:20:02.000Z</time>
      </trkpt>
      <trkpt lat="45.17429" lon="5.94877">
        <ele>2341.8</ele>
        <time>2000-01-01T04:20:12.000Z</time>
      </trkpt>
      <trkpt lat="45.17423" lon="5.94885">
        <ele>2342.6</ele>
        <time>2000-01-01T04:20:22.000Z</time>
      </trkpt>
      <trkpt lat="45.17417" lon="5.94887">
        <ele>2340</ele>
        <time>2000-01-01T04:20:32.000Z</time>
      </trkpt>
      <trkpt lat="45.17414" lon="5.94896">
        <ele>2344</ele>
        <time>2000-01-01T04:20:42.000Z</time>
      </trkpt>
      <trkpt lat="45.17414" lon="5.94907">
        <ele>2342.1</ele>
        <time>2000-01-01T04:20:52.000Z</time>
      </trkpt>
      <trkpt lat="45.17423" lon="5.94943">
        <ele>2334</ele>
        <time>2000-01-01T04:21:02.000Z</time>
      </trkpt>
      <trkpt lat="45.17427" lon="5.94945">
        <ele>2331.7</ele>
        <time>2000-01-01T04:21:12.000Z</time>
      </trkpt>
      <trkpt lat="45.17431" lon="5.9494">
        <ele>2330.6</ele>
        <time>2000-01-01T04:21:22.000Z</time>
      </trkpt>
      <trkpt lat="45.17439" lon="5.94973">
        <ele>2326</ele>
        <time>2000-01-01T04:21:32.000Z</time>
      </trkpt>
      <trkpt lat="45.17439" lon="5.94999">
        <ele>2315.1</ele>
        <time>2000-01-01T04:21:42.000Z</time>
      </trkpt>
      <trkpt lat="45.17443" lon="5.95005">
        <ele>2314</ele>
        <time>2000-01-01T04:21:52.000Z</time>
      </trkpt>
      <trkpt lat="45.17446" lon="5.95019">
        <ele>2306.7</ele>
        <time>2000-01-01T04:22:02.000Z</time>
      </trkpt>
      <trkpt lat="45.17454" lon="5.95033">
        <ele>2300</ele>
        <time>2000-01-01T04:22:12.000Z</time>
      </trkpt>
      <trkpt lat="45.17456" lon="5.95051">
        <ele>2298.7</ele>
        <time>2000-01-01T04:22:22.000Z</time>
      </trkpt>
      <trkpt lat="45.17465" lon="5.9506">
        <ele>2292</ele>
        <time>2000-01-01T04:22:32.000Z</time>
      </trkpt>
      <trkpt lat="45.17463" lon="5.95067">
        <ele>2295.2</ele>
        <time>2000-01-01T04:22:42.000Z</time>
      </trkpt>
      <trkpt lat="45.17469" lon="5.95084">
        <ele>2293.5</ele>
        <time>2000-01-01T04:22:52.000Z</time>
      </trkpt>
      <trkpt lat="45.17486" lon="5.95116">
        <ele>2290</ele>
        <time>2000-01-01T04:23:02.000Z</time>
      </trkpt>
      <trkpt lat="45.17489" lon="5.95116">
        <ele>2287.6</ele>
        <time>2000-01-01T04:23:12.000Z</time>
      </trkpt>
      <trkpt lat="45.17494" lon="5.95125">
        <ele>2285.9</ele>
        <time>2000-01-01T04:23:22.000Z</time>
      </trkpt>
      <trkpt lat="45.17508" lon="5.95137">
        <ele>2284</ele>
        <time>2000-01-01T04:23:32.000Z</time>
      </trkpt>
      <trkpt lat="45.17513" lon="5.95135">
        <ele>2277.6</ele>
        <time>2000-01-01T04:23:42.000Z</time>
      </trkpt>
      <trkpt lat="45.1752" lon="5.95154">
        <ele>2279</ele>
        <time>2000-01-01T04:23:52.000Z</time>
      </trkpt>
      <trkpt lat="45.17531" lon="5.95156">
        <ele>2270</ele>
        <time>2000-01-01T04:24:02.000Z</time>
      </trkpt>
      <trkpt lat="45.17535" lon="5.9516">
        <ele>2268.1</ele>
        <time>2000-01-01T04:24:12.000Z</time>
      </trkpt>
      <trkpt lat="45.17549" lon="5.95162">
        <ele>2265</ele>
        <time>2000-01-01T04:24:22.000Z</time>
      </trkpt>
      <trkpt lat="45.17552" lon="5.95165">
        <ele>2259.7</ele>
        <time>2000-01-01T04:24:32.000Z</time>
      </trkpt>
      <trkpt lat="45.1756" lon="5.95161">
        <ele>2255.6</ele>
        <time>2000-01-01T04:24:42.000Z</time>
      </trkpt>
      <trkpt lat="45.17562" lon="5.9517">
        <ele>2255.3</ele>
        <time>2000-01-01T04:24:52.000Z</time>
      </trkpt>
      <trkpt lat="45.17596" lon="5.952">
        <ele>2249</ele>
        <time>2000-01-01T04:25:02.000Z</time>
      </trkpt>
      <trkpt lat="45.17634" lon="5.95238">
        <ele>2238</ele>
        <time>2000-01-01T04:25:12.000Z</time>
      </trkpt>
      <trkpt lat="45.17639" lon="5.9524">
        <ele>2237.8</ele>
        <time>2000-01-01T04:25:22.000Z</time>
      </trkpt>
      <trkpt lat="45.17658" lon="5.95266">
        <ele>2236</ele>
        <time>2000-01-01T04:25:32.000Z</time>
      </trkpt>
      <trkpt lat="45.17663" lon="5.95268">
        <ele>2231.1</ele>
        <time>2000-01-01T04:25:42.000Z</time>
      </trkpt>
      <trkpt lat="45.17666" lon="5.95278">
        <ele>2231.4</ele>
        <time>2000-01-01T04:25:52.000Z</time>
      </trkpt>
      <trkpt lat="45.17675" lon="5.95292">
        <ele>2230</ele>
        <time>2000-01-01T04:26:02.000Z</time>
      </trkpt>
      <trkpt lat="45.17693" lon="5.95314">
        <ele>2223</ele>
        <time>2000-01-01T04:26:12.000Z</time>
      </trkpt>
      <trkpt lat="45.177" lon="5.95314">
        <ele>2220.2</ele>
        <time>2000-01-01T04:26:22.000Z</time>
      </trkpt>
      <trkpt lat="45.17703" lon="5.95311">
        <ele>2217.8</ele>
        <time>2000-01-01T04:26:32.000Z</time>
      </trkpt>
      <trkpt lat="45.17707" lon="5.95314">
        <ele>2216.5</ele>
        <time>2000-01-01T04:26:42.000Z</time>
      </trkpt>
      <trkpt lat="45.17735" lon="5.95346">
        <ele>2213</ele>
        <time>2000-01-01T04:26:52.000Z</time>
      </trkpt>
      <trkpt lat="45.17744" lon="5.95351">
        <ele>2214</ele>
        <time>2000-01-01T04:27:02.000Z</time>
      </trkpt>
      <trkpt lat="45.17782" lon="5.95344">
        <ele>2200</ele>
        <time>2000-01-01T04:27:12.000Z</time>
      </trkpt>
      <trkpt lat="45.17814" lon="5.95346">
        <ele>2196</ele>
        <time>2000-01-01T04:27:22.000Z</time>
      </trkpt>
      <trkpt lat="45.17834" lon="5.95355">
        <ele>2192</ele>
        <time>2000-01-01T04:27:32.000Z</time>
      </trkpt>
      <trkpt lat="45.1785" lon="5.95357">
        <ele>2195.1</ele>
        <time>2000-01-01T04:27:42.000Z</time>
      </trkpt>
      <trkpt lat="45.17856" lon="5.95355">
        <ele>2187</ele>
        <time>2000-01-01T04:27:52.000Z</time>
      </trkpt>
      <trkpt lat="45.17869" lon="5.95357">
        <ele>2194.3</ele>
        <time>2000-01-01T04:28:02.000Z</time>
      </trkpt>
      <trkpt lat="45.17883" lon="5.95354">
        <ele>2185</ele>
        <time>2000-01-01T04:28:12.000Z</time>
      </trkpt>
      <trkpt lat="45.17899" lon="5.95342">
        <ele>2182.9</ele>
        <time>2000-01-01T04:28:22.000Z</time>
      </trkpt>
      <trkpt lat="45.17908" lon="5.95339">
        <ele>2167</ele>
        <time>2000-01-01T04:28:32.000Z</time>
      </trkpt>
      <trkpt lat="45.17922" lon="5.95325">
        <ele>2172.1</ele>
        <time>2000-01-01T04:28:42.000Z</time>
      </trkpt>
      <trkpt lat="45.1793" lon="5.95321">
        <ele>2165</ele>
        <time>2000-01-01T04:28:52.000Z</time>
      </trkpt>
      <trkpt lat="45.17943" lon="5.95305">
        <ele>2164.1</ele>
        <time>2000-01-01T04:29:02.000Z</time>
      </trkpt>
      <trkpt lat="45.17975" lon="5.95275">
        <ele>2154</ele>
        <time>2000-01-01T04:29:12.000Z</time>
      </trkpt>
      <trkpt lat="45.18006" lon="5.95236">
        <ele>2153</ele>
        <time>2000-01-01T04:29:22.000Z</time>
      </trkpt>
      <trkpt lat="45.18016" lon="5.95212">
        <ele>2149</ele>
        <time>2000-01-01T04:29:32.000Z</time>
      </trkpt>
      <trkpt lat="45.18024" lon="5.95201">
        <ele>2150.8</ele>
        <time>2000-01-01T04:29:42.000Z</time>
      </trkpt>
      <trkpt lat="45.18029" lon="5.95185">
        <ele>2140</ele>
        <time>2000-01-01T04:29:52.000Z</time>
      </trkpt>
      <trkpt lat="45.18071" lon="5.95164">
        <ele>2132</ele>
        <time>2000-01-01T04:30:02.000Z</time>
      </trkpt>
      <trkpt lat="45.18083" lon="5.95162">
        <ele>2133</ele>
        <time>2000-01-01T04:30:12.000Z</time>
      </trkpt>
      <trkpt lat="45.18095" lon="5.95165">
        <ele>2139</ele>
        <time>2000-01-01T04:30:22.000Z</time>
      </trkpt>
      <trkpt lat="45.18103" lon="5.95173">
        <ele>2139.7</ele>
        <time>2000-01-01T04:30:32.000Z</time>
      </trkpt>
      <trkpt lat="45.18106" lon="5.95181">
        <ele>2144.5</ele>
        <time>2000-01-01T04:30:42.000Z</time>
      </trkpt>
      <trkpt lat="45.18113" lon="5.9518">
        <ele>2131</ele>
        <time>2000-01-01T04:30:52.000Z</time>
      </trkpt>
      <trkpt lat="45.18122" lon="5.95158">
        <ele>2128.2</ele>
        <time>2000-01-01T04:31:02.000Z</time>
      </trkpt>
      <trkpt lat="45.18128" lon="5.95157">
        <ele>2124</ele>
        <time>2000-01-01T04:31:12.000Z</time>
      </trkpt>
      <trkpt lat="45.18134" lon="5.95151">
        <ele>2124.1</ele>
        <time>2000-01-01T04:31:22.000Z</time>
      </trkpt>
      <trkpt lat="45.18148" lon="5.95126">
        <ele>2110</ele>
        <time>2000-01-01T04:31:32.000Z</time>
      </trkpt>
      <trkpt lat="45.18158" lon="5.95114">
        <ele>2113</ele>
        <time>2000-01-01T04:31:42.000Z</time>
      </trkpt>
      <trkpt lat="45.18175" lon="5.951">
        <ele>2110</ele>
        <time>2000-01-01T04:31:52.000Z</time>
      </trkpt>
      <trkpt lat="45.18201" lon="5.95071">
        <ele>2110</ele>
        <time>2000-01-01T04:32:02.000Z</time>
      </trkpt>
      <trkpt lat="45.18201" lon="5.95064">
        <ele>2114.5</ele>
        <time>2000-01-01T04:32:12.000Z</time>
      </trkpt>
      <trkpt lat="45.18208" lon="5.95059">
        <ele>2116.9</ele>
        <time>2000-01-01T04:32:22.000Z</time>
      </trkpt>
      <trkpt lat="45.18215" lon="5.95021">
        <ele>2109</ele>
        <time>2000-01-01T04:32:32.000Z</time>
      </trkpt>
      <trkpt lat="45.18216" lon="5.94968">
        <ele>2109</ele>
        <time>2000-01-01T04:32:42.000Z</time>
      </trkpt>
      <trkpt lat="45.18219" lon="5.94952">
        <ele>2112.9</ele>
        <time>2000-01-01T04:32:52.000Z</time>
      </trkpt>
      <trkpt lat="45.18219" lon="5.94931">
        <ele>2102</ele>
        <time>2000-01-01T04:33:02.000Z</time>
      </trkpt>
      <trkpt lat="45.18217" lon="5.94926">
        <ele>2105.2</ele>
        <time>2000-01-01T04:33:12.000Z</time>
      </trkpt>
      <trkpt lat="45.18219" lon="5.94901">
        <ele>2094</ele>
        <time>2000-01-01T04:33:22.000Z</time>
      </trkpt>
      <trkpt lat="45.18224" lon="5.94886">
        <ele>2096.6</ele>
        <time>2000-01-01T04:33:32.000Z</time>
      </trkpt>
      <trkpt lat="45.18239" lon="5.94867">
        <ele>2087</ele>
        <time>2000-01-01T04:33:42.000Z</time>
      </trkpt>
      <trkpt lat="45.18267" lon="5.94849">
        <ele>2084</ele>
        <time>2000-01-01T04:33:52.000Z</time>
      </trkpt>
      <trkpt lat="45.18317" lon="5.94818">
        <ele>2078</ele>
        <time>2000-01-01T04:34:02.000Z</time>
      </trkpt>
      <trkpt lat="45.18343" lon="5.9482">
        <ele>2077</ele>
        <time>2000-01-01T04:34:12.000Z</time>
      </trkpt>
      <trkpt lat="45.18356" lon="5.94833">
        <ele>2073.6</ele>
        <time>2000-01-01T04:34:22.000Z</time>
      </trkpt>
      <trkpt lat="45.18356" lon="5.9484">
        <ele>2078</ele>
        <time>2000-01-01T04:34:32.000Z</time>
      </trkpt>
      <trkpt lat="45.18372" lon="5.94862">
        <ele>2073</ele>
        <time>2000-01-01T04:34:42.000Z</time>
      </trkpt>
      <trkpt lat="45.18409" lon="5.94871">
        <ele>2068</ele>
        <time>2000-01-01T04:34:52.000Z</time>
      </trkpt>
      <trkpt lat="45.18442" lon="5.94872">
        <ele>2054</ele>
        <time>2000-01-01T04:35:02.000Z</time>
      </trkpt>
      <trkpt lat="45.18474" lon="5.94843">
        <ele>2039</ele>
        <time>2000-01-01T04:35:12.000Z</time>
      </trkpt>
      <trkpt lat="45.18493" lon="5.94821">
        <ele>2035</ele>
        <time>2000-01-01T04:35:22.000Z</time>
      </trkpt>
      <trkpt lat="45.18512" lon="5.94794">
        <ele>2027</ele>
        <time>2000-01-01T04:35:32.000Z</time>
      </trkpt>
      <trkpt lat="45.18538" lon="5.94757">
        <ele>2017</ele>
        <time>2000-01-01T04:35:42.000Z</time>
      </trkpt>
      <trkpt lat="45.18546" lon="5.94729">
        <ele>2017</ele>
        <time>2000-01-01T04:35:52.000Z</time>
      </trkpt>
      <trkpt lat="45.18564" lon="5.94711">
        <ele>2017</ele>
        <time>2000-01-01T04:36:02.000Z</time>
      </trkpt>
      <trkpt lat="45.18567" lon="5.94711">
        <ele>2013.9</ele>
        <time>2000-01-01T04:36:12.000Z</time>
      </trkpt>
      <trkpt lat="45.18567" lon="5.94702">
        <ele>2012.4</ele>
        <time>2000-01-01T04:36:22.000Z</time>
      </trkpt>
      <trkpt lat="45.18577" lon="5.94658">
        <ele>2012</ele>
        <time>2000-01-01T04:36:32.000Z</time>
      </trkpt>
      <trkpt lat="45.18595" lon="5.94615">
        <ele>2011</ele>
        <time>2000-01-01T04:36:42.000Z</time>
      </trkpt>
      <trkpt lat="45.18612" lon="5.94589">
        <ele>2012</ele>
        <time>2000-01-01T04:36:52.000Z</time>
      </trkpt>
      <trkpt lat="45.18622" lon="5.94552">
        <ele>2012</ele>
        <time>2000-01-01T04:37:02.000Z</time>
      </trkpt>
      <trkpt lat="45.18627" lon="5.94551">
        <ele>2009.8</ele>
        <time>2000-01-01T04:37:12.000Z</time>
      </trkpt>
      <trkpt lat="45.18645" lon="5.94533">
        <ele>2012</ele>
        <time>2000-01-01T04:37:22.000Z</time>
      </trkpt>
      <trkpt lat="45.1866" lon="5.94529">
        <ele>2005.6</ele>
        <time>2000-01-01T04:37:32.000Z</time>
      </trkpt>
      <trkpt lat="45.18695" lon="5.94507">
        <ele>2007</ele>
        <time>2000-01-01T04:37:42.000Z</time>
      </trkpt>
      <trkpt lat="45.18709" lon="5.94482">
        <ele>2006</ele>
        <time>2000-01-01T04:37:52.000Z</time>
      </trkpt>
      <trkpt lat="45.18717" lon="5.94454">
        <ele>2006</ele>
        <time>2000-01-01T04:38:02.000Z</time>
      </trkpt>
      <trkpt lat="45.18742" lon="5.94442">
        <ele>2002</ele>
        <time>2000-01-01T04:38:12.000Z</time>
      </trkpt>
      <trkpt lat="45.18756" lon="5.94442">
        <ele>1997.3</ele>
        <time>2000-01-01T04:38:22.000Z</time>
      </trkpt>
      <trkpt lat="45.1877" lon="5.94435">
        <ele>1999</ele>
        <time>2000-01-01T04:38:32.000Z</time>
      </trkpt>
      <trkpt lat="45.18788" lon="5.94402">
        <ele>1992</ele>
        <time>2000-01-01T04:38:42.000Z</time>
      </trkpt>
      <trkpt lat="45.18795" lon="5.94415">
        <ele>1984</ele>
        <time>2000-01-01T04:38:52.000Z</time>
      </trkpt>
      <trkpt lat="45.18799" lon="5.94436">
        <ele>1985</ele>
        <time>2000-01-01T04:39:02.000Z</time>
      </trkpt>
      <trkpt lat="45.18796" lon="5.94445">
        <ele>1981</ele>
        <time>2000-01-01T04:39:12.000Z</time>
      </trkpt>
      <trkpt lat="45.18796" lon="5.94463">
        <ele>1977</ele>
        <time>2000-01-01T04:39:22.000Z</time>
      </trkpt>
      <trkpt lat="45.18793" lon="5.94475">
        <ele>1973.7</ele>
        <time>2000-01-01T04:39:32.000Z</time>
      </trkpt>
      <trkpt lat="45.1879" lon="5.94478">
        <ele>1973.6</ele>
        <time>2000-01-01T04:39:42.000Z</time>
      </trkpt>
      <trkpt lat="45.18793" lon="5.9449">
        <ele>1968</ele>
        <time>2000-01-01T04:39:52.000Z</time>
      </trkpt>
      <trkpt lat="45.18805" lon="5.94488">
        <ele>1967.1</ele>
        <time>2000-01-01T04:40:02.000Z</time>
      </trkpt>
      <trkpt lat="45.18813" lon="5.94504">
        <ele>1963</ele>
        <time>2000-01-01T04:40:12.000Z</time>
      </trkpt>
      <trkpt lat="45.18827" lon="5.94516">
        <ele>1957.4</ele>
        <time>2000-01-01T04:40:22.000Z</time>
      </trkpt>
      <trkpt lat="45.18841" lon="5.94517">
        <ele>1957</ele>
        <time>2000-01-01T04:40:32.000Z</time>
      </trkpt>
      <trkpt lat="45.18852" lon="5.94511">
        <ele>1951.5</ele>
        <time>2000-01-01T04:40:42.000Z</time>
      </trkpt>
      <trkpt lat="45.18848" lon="5.94534">
        <ele>1952</ele>
        <time>2000-01-01T04:40:52.000Z</time>
      </trkpt>
      <trkpt lat="45.18833" lon="5.94552">
        <ele>1945</ele>
        <time>2000-01-01T04:41:02.000Z</time>
      </trkpt>
      <trkpt lat="45.18821" lon="5.94557">
        <ele>1942.4</ele>
        <time>2000-01-01T04:41:12.000Z</time>
      </trkpt>
      <trkpt lat="45.18807" lon="5.94567">
        <ele>1940</ele>
        <time>2000-01-01T04:41:22.000Z</time>
      </trkpt>
      <trkpt lat="45.1881" lon="5.94574">
        <ele>1935</ele>
        <time>2000-01-01T04:41:32.000Z</time>
      </trkpt>
      <trkpt lat="45.1882" lon="5.94582">
        <ele>1931.6</ele>
        <time>2000-01-01T04:41:42.000Z</time>
      </trkpt>
      <trkpt lat="45.18827" lon="5.94593">
        <ele>1928</ele>
        <time>2000-01-01T04:41:52.000Z</time>
      </trkpt>
      <trkpt lat="45.18836" lon="5.94598">
        <ele>1926.8</ele>
        <time>2000-01-01T04:42:02.000Z</time>
      </trkpt>
      <trkpt lat="45.18838" lon="5.94602">
        <ele>1925.4</ele>
        <time>2000-01-01T04:42:12.000Z</time>
      </trkpt>
      <trkpt lat="45.18853" lon="5.94608">
        <ele>1923</ele>
        <time>2000-01-01T04:42:22.000Z</time>
      </trkpt>
      <trkpt lat="45.18857" lon="5.94626">
        <ele>1919</ele>
        <time>2000-01-01T04:42:32.000Z</time>
      </trkpt>
      <trkpt lat="45.18862" lon="5.94628">
        <ele>1918.1</ele>
        <time>2000-01-01T04:42:42.000Z</time>
      </trkpt>
      <trkpt lat="45.18874" lon="5.94623">
        <ele>1915</ele>
        <time>2000-01-01T04:42:52.000Z</time>
      </trkpt>
      <trkpt lat="45.18893" lon="5.94614">
        <ele>1912</ele>
        <time>2000-01-01T04:43:02.000Z</time>
      </trkpt>
      <trkpt lat="45.18903" lon="5.94605">
        <ele>1907.6</ele>
        <time>2000-01-01T04:43:12.000Z</time>
      </trkpt>
      <trkpt lat="45.18909" lon="5.94605">
        <ele>1905.2</ele>
        <time>2000-01-01T04:43:22.000Z</time>
      </trkpt>
      <trkpt lat="45.18918" lon="5.946">
        <ele>1907</ele>
        <time>2000-01-01T04:43:32.000Z</time>
      </trkpt>
      <trkpt lat="45.18924" lon="5.94605">
        <ele>1898.7</ele>
        <time>2000-01-01T04:43:42.000Z</time>
      </trkpt>
      <trkpt lat="45.18933" lon="5.94607">
        <ele>1894.2</ele>
        <time>2000-01-01T04:43:52.000Z</time>
      </trkpt>
      <trkpt lat="45.18943" lon="5.94601">
        <ele>1892</ele>
        <time>2000-01-01T04:44:02.000Z</time>
      </trkpt>
      <trkpt lat="45.18969" lon="5.94606">
        <ele>1885</ele>
        <time>2000-01-01T04:44:12.000Z</time>
      </trkpt>
      <trkpt lat="45.18988" lon="5.94603">
        <ele>1877</ele>
        <time>2000-01-01T04:44:22.000Z</time>
      </trkpt>
      <trkpt lat="45.19001" lon="5.94609">
        <ele>1869.9</ele>
        <time>2000-01-01T04:44:32.000Z</time>
      </trkpt>
      <trkpt lat="45.19024" lon="5.94614">
        <ele>1872</ele>
        <time>2000-01-01T04:44:42.000Z</time>
      </trkpt>
      <trkpt lat="45.19024" lon="5.94611">
        <ele>1867.4</ele>
        <time>2000-01-01T04:44:52.000Z</time>
      </trkpt>
      <trkpt lat="45.1903" lon="5.94614">
        <ele>1865.6</ele>
        <time>2000-01-01T04:45:02.000Z</time>
      </trkpt>
      <trkpt lat="45.19028" lon="5.94605">
        <ele>1865.6</ele>
        <time>2000-01-01T04:45:12.000Z</time>
      </trkpt>
      <trkpt lat="45.1902" lon="5.94598">
        <ele>1868</ele>
        <time>2000-01-01T04:45:22.000Z</time>
      </trkpt>
      <trkpt lat="45.19018" lon="5.94588">
        <ele>1864.8</ele>
        <time>2000-01-01T04:45:32.000Z</time>
      </trkpt>
      <trkpt lat="45.19021" lon="5.94583">
        <ele>1863</ele>
        <time>2000-01-01T04:45:42.000Z</time>
      </trkpt>
      <trkpt lat="45.19013" lon="5.94567">
        <ele>1857</ele>
        <time>2000-01-01T04:45:52.000Z</time>
      </trkpt>
      <trkpt lat="45.19006" lon="5.94533">
        <ele>1850</ele>
        <time>2000-01-01T04:46:02.000Z</time>
      </trkpt>
      <trkpt lat="45.19005" lon="5.94514">
        <ele>1844.1</ele>
        <time>2000-01-01T04:46:12.000Z</time>
      </trkpt>
      <trkpt lat="45.1901" lon="5.94441">
        <ele>1832</ele>
        <time>2000-01-01T04:46:22.000Z</time>
      </trkpt>
      <trkpt lat="45.19016" lon="5.9441">
        <ele>1825</ele>
        <time>2000-01-01T04:46:32.000Z</time>
      </trkpt>
      <trkpt lat="45.19023" lon="5.9439">
        <ele>1817.1</ele>
        <time>2000-01-01T04:46:42.000Z</time>
      </trkpt>
      <trkpt lat="45.19025" lon="5.94332">
        <ele>1816</ele>
        <time>2000-01-01T04:46:52.000Z</time>
      </trkpt>
      <trkpt lat="45.19033" lon="5.94305">
        <ele>1808</ele>
        <time>2000-01-01T04:47:02.000Z</time>
      </trkpt>
      <trkpt lat="45.19046" lon="5.94273">
        <ele>1808</ele>
        <time>2000-01-01T04:47:12.000Z</time>
      </trkpt>
      <trkpt lat="45.19059" lon="5.94227">
        <ele>1805</ele>
        <time>2000-01-01T04:47:22.000Z</time>
      </trkpt>
      <trkpt lat="45.19067" lon="5.94216">
        <ele>1796.2</ele>
        <time>2000-01-01T04:47:32.000Z</time>
      </trkpt>
      <trkpt lat="45.19074" lon="5.94182">
        <ele>1804</ele>
        <time>2000-01-01T04:47:42.000Z</time>
      </trkpt>
      <trkpt lat="45.19077" lon="5.94157">
        <ele>1801.8</ele>
        <time>2000-01-01T04:47:52.000Z</time>
      </trkpt>
      <trkpt lat="45.19074" lon="5.9412">
        <ele>1803</ele>
        <time>2000-01-01T04:48:02.000Z</time>
      </trkpt>
      <trkpt lat="45.19066" lon="5.94078">
        <ele>1802</ele>
        <time>2000-01-01T04:48:12.000Z</time>
      </trkpt>
      <trkpt lat="45.19056" lon="5.94068">
        <ele>1797.3</ele>
        <time>2000-01-01T04:48:22.000Z</time>
      </trkpt>
      <trkpt lat="45.19049" lon="5.94044">
        <ele>1801</ele>
        <time>2000-01-01T04:48:32.000Z</time>
      </trkpt>
      <trkpt lat="45.19048" lon="5.94032">
        <ele>1792.3</ele>
        <time>2000-01-01T04:48:42.000Z</time>
      </trkpt>
      <trkpt lat="45.19044" lon="5.94022">
        <ele>1792</ele>
        <time>2000-01-01T04:48:52.000Z</time>
      </trkpt>
      <trkpt lat="45.19036" lon="5.94013">
        <ele>1797</ele>
        <time>2000-01-01T04:49:02.000Z</time>
      </trkpt>
      <trkpt lat="45.19033" lon="5.94">
        <ele>1792.4</ele>
        <time>2000-01-01T04:49:12.000Z</time>
      </trkpt>
      <trkpt lat="45.19021" lon="5.93975">
        <ele>1793</ele>
        <time>2000-01-01T04:49:22.000Z</time>
      </trkpt>
      <trkpt lat="45.19013" lon="5.93944">
        <ele>1793</ele>
        <time>2000-01-01T04:49:32.000Z</time>
      </trkpt>
      <trkpt lat="45.19013" lon="5.93924">
        <ele>1786.6</ele>
        <time>2000-01-01T04:49:42.000Z</time>
      </trkpt>
      <trkpt lat="45.19" lon="5.93883">
        <ele>1788</ele>
        <time>2000-01-01T04:49:52.000Z</time>
      </trkpt>
      <trkpt lat="45.18993" lon="5.93834">
        <ele>1786</ele>
        <time>2000-01-01T04:50:02.000Z</time>
      </trkpt>
      <trkpt lat="45.18974" lon="5.93811">
        <ele>1785</ele>
        <time>2000-01-01T04:50:12.000Z</time>
      </trkpt>
      <trkpt lat="45.18954" lon="5.93796">
        <ele>1781</ele>
        <time>2000-01-01T04:50:22.000Z</time>
      </trkpt>
      <trkpt lat="45.18957" lon="5.93774">
        <ele>1777.5</ele>
        <time>2000-01-01T04:50:32.000Z</time>
      </trkpt>
      <trkpt lat="45.18965" lon="5.93755">
        <ele>1772</ele>
        <time>2000-01-01T04:50:42.000Z</time>
      </trkpt>
      <trkpt lat="45.18961" lon="5.93737">
        <ele>1769.9</ele>
        <time>2000-01-01T04:50:52.000Z</time>
      </trkpt>
      <trkpt lat="45.18956" lon="5.93726">
        <ele>1762</ele>
        <time>2000-01-01T04:51:02.000Z</time>
      </trkpt>
      <trkpt lat="45.18957" lon="5.93704">
        <ele>1761.3</ele>
        <time>2000-01-01T04:51:12.000Z</time>
      </trkpt>
      <trkpt lat="45.1895" lon="5.93653">
        <ele>1750</ele>
        <time>2000-01-01T04:51:22.000Z</time>
      </trkpt>
      <trkpt lat="45.18942" lon="5.93617">
        <ele>1747</ele>
        <time>2000-01-01T04:51:32.000Z</time>
      </trkpt>
      <trkpt lat="45.1893" lon="5.9359">
        <ele>1741</ele>
        <time>2000-01-01T04:51:42.000Z</time>
      </trkpt>
      <trkpt lat="45.18931" lon="5.93584">
        <ele>1740.7</ele>
        <time>2000-01-01T04:51:52.000Z</time>
      </trkpt>
      <trkpt lat="45.18924" lon="5.93549">
        <ele>1731</ele>
        <time>2000-01-01T04:52:02.000Z</time>
      </trkpt>
      <trkpt lat="45.18928" lon="5.93547">
        <ele>1734.7</ele>
        <time>2000-01-01T04:52:12.000Z</time>
      </trkpt>
      <trkpt lat="45.18928" lon="5.93542">
        <ele>1733.8</ele>
        <time>2000-01-01T04:52:22.000Z</time>
      </trkpt>
      <trkpt lat="45.18929" lon="5.93545">
        <ele>1734.7</ele>
        <time>2000-01-01T04:52:32.000Z</time>
      </trkpt>
      <trkpt lat="45.18927" lon="5.9354">
        <ele>1733.2</ele>
        <time>2000-01-01T04:52:42.000Z</time>
      </trkpt>
      <trkpt lat="45.18924" lon="5.93543">
        <ele>1732.9</ele>
        <time>2000-01-01T04:52:52.000Z</time>
      </trkpt>
      <trkpt lat="45.18924" lon="5.93541">
        <ele>1731</ele>
        <time>2000-01-01T04:53:02.000Z</time>
      </trkpt>
      <trkpt lat="45.18926" lon="5.93539">
        <ele>1732.7</ele>
        <time>2000-01-01T04:53:12.000Z</time>
      </trkpt>
      <trkpt lat="45.18929" lon="5.93541">
        <ele>1733.9</ele>
        <time>2000-01-01T04:53:22.000Z</time>
      </trkpt>
      <trkpt lat="45.18964" lon="5.93528">
        <ele>1736</ele>
        <time>2000-01-01T04:53:32.000Z</time>
      </trkpt>
      <trkpt lat="45.1899" lon="5.93532">
        <ele>1732</ele>
        <time>2000-01-01T04:53:42.000Z</time>
      </trkpt>
      <trkpt lat="45.19006" lon="5.93528">
        <ele>1732.3</ele>
        <time>2000-01-01T04:53:52.000Z</time>
      </trkpt>
      <trkpt lat="45.19028" lon="5.93533">
        <ele>1729</ele>
        <time>2000-01-01T04:54:02.000Z</time>
      </trkpt>
      <trkpt lat="45.19045" lon="5.9355">
        <ele>1723</ele>
        <time>2000-01-01T04:54:12.000Z</time>
      </trkpt>
      <trkpt lat="45.1906" lon="5.9358">
        <ele>1723</ele>
        <time>2000-01-01T04:54:22.000Z</time>
      </trkpt>
      <trkpt lat="45.19078" lon="5.93615">
        <ele>1723</ele>
        <time>2000-01-01T04:54:32.000Z</time>
      </trkpt>
      <trkpt lat="45.1909" lon="5.93616">
        <ele>1711.5</ele>
        <time>2000-01-01T04:54:42.000Z</time>
      </trkpt>
      <trkpt lat="45.19087" lon="5.93557">
        <ele>1705</ele>
        <time>2000-01-01T04:54:52.000Z</time>
      </trkpt>
      <trkpt lat="45.19079" lon="5.93521">
        <ele>1704</ele>
        <time>2000-01-01T04:55:02.000Z</time>
      </trkpt>
      <trkpt lat="45.19068" lon="5.93476">
        <ele>1696</ele>
        <time>2000-01-01T04:55:12.000Z</time>
      </trkpt>
      <trkpt lat="45.19059" lon="5.9342">
        <ele>1686</ele>
        <time>2000-01-01T04:55:22.000Z</time>
      </trkpt>
      <trkpt lat="45.19054" lon="5.93404">
        <ele>1679.4</ele>
        <time>2000-01-01T04:55:32.000Z</time>
      </trkpt>
      <trkpt lat="45.19047" lon="5.9339">
        <ele>1678</ele>
        <time>2000-01-01T04:55:42.000Z</time>
      </trkpt>
      <trkpt lat="45.19029" lon="5.93369">
        <ele>1671</ele>
        <time>2000-01-01T04:55:52.000Z</time>
      </trkpt>
      <trkpt lat="45.19021" lon="5.93363">
        <ele>1673.2</ele>
        <time>2000-01-01T04:56:02.000Z</time>
      </trkpt>
      <trkpt lat="45.19" lon="5.93356">
        <ele>1669</ele>
        <time>2000-01-01T04:56:12.000Z</time>
      </trkpt>
      <trkpt lat="45.18988" lon="5.93356">
        <ele>1671.2</ele>
        <time>2000-01-01T04:56:22.000Z</time>
      </trkpt>
      <trkpt lat="45.18992" lon="5.93346">
        <ele>1665</ele>
        <time>2000-01-01T04:56:32.000Z</time>
      </trkpt>
      <trkpt lat="45.19004" lon="5.93341">
        <ele>1666.5</ele>
        <time>2000-01-01T04:56:42.000Z</time>
      </trkpt>
      <trkpt lat="45.19028" lon="5.93321">
        <ele>1658</ele>
        <time>2000-01-01T04:56:52.000Z</time>
      </trkpt>
      <trkpt lat="45.19051" lon="5.93317">
        <ele>1651</ele>
        <time>2000-01-01T04:57:02.000Z</time>
      </trkpt>
      <trkpt lat="45.19069" lon="5.93318">
        <ele>1647</ele>
        <time>2000-01-01T04:57:12.000Z</time>
      </trkpt>
      <trkpt lat="45.19072" lon="5.93306">
        <ele>1641</ele>
        <time>2000-01-01T04:57:22.000Z</time>
      </trkpt>
      <trkpt lat="45.19057" lon="5.9327">
        <ele>1638</ele>
        <time>2000-01-01T04:57:32.000Z</time>
      </trkpt>
      <trkpt lat="45.19041" lon="5.93261">
        <ele>1636.7</ele>
        <time>2000-01-01T04:57:42.000Z</time>
      </trkpt>
      <trkpt lat="45.18999" lon="5.93248">
        <ele>1633</ele>
        <time>2000-01-01T04:57:52.000Z</time>
      </trkpt>
      <trkpt lat="45.18972" lon="5.93251">
        <ele>1628</ele>
        <time>2000-01-01T04:58:02.000Z</time>
      </trkpt>
      <trkpt lat="45.18938" lon="5.93255">
        <ele>1615</ele>
        <time>2000-01-01T04:58:12.000Z</time>
      </trkpt>
      <trkpt lat="45.18914" lon="5.93266">
        <ele>1610</ele>
        <time>2000-01-01T04:58:22.000Z</time>
      </trkpt>
      <trkpt lat="45.18915" lon="5.93257">
        <ele>1611.5</ele>
        <time>2000-01-01T04:58:32.000Z</time>
      </trkpt>
      <trkpt lat="45.18947" lon="5.93222">
        <ele>1605</ele>
        <time>2000-01-01T04:58:42.000Z</time>
      </trkpt>
      <trkpt lat="45.18967" lon="5.9319">
        <ele>1599</ele>
        <time>2000-01-01T04:58:52.000Z</time>
      </trkpt>
      <trkpt lat="45.18974" lon="5.93147">
        <ele>1582</ele>
        <time>2000-01-01T04:59:02.000Z</time>
      </trkpt>
      <trkpt lat="45.1899" lon="5.93122">
        <ele>1578</ele>
        <time>2000-01-01T04:59:12.000Z</time>
      </trkpt>
      <trkpt lat="45.19007" lon="5.93097">
        <ele>1567</ele>
        <time>2000-01-01T04:59:22.000Z</time>
      </trkpt>
      <trkpt lat="45.19021" lon="5.93084">
        <ele>1569.1</ele>
        <time>2000-01-01T04:59:32.000Z</time>
      </trkpt>
      <trkpt lat="45.19062" lon="5.93061">
        <ele>1561</ele>
        <time>2000-01-01T04:59:42.000Z</time>
      </trkpt>
      <trkpt lat="45.19077" lon="5.93057">
        <ele>1557.9</ele>
        <time>2000-01-01T04:59:52.000Z</time>
      </trkpt>
      <trkpt lat="45.1913" lon="5.9305">
        <ele>1547</ele>
        <time>2000-01-01T05:00:02.000Z</time>
      </trkpt>
      <trkpt lat="45.19159" lon="5.93053">
        <ele>1542</ele>
        <time>2000-01-01T05:00:12.000Z</time>
      </trkpt>
      <trkpt lat="45.19182" lon="5.93059">
        <ele>1535</ele>
        <time>2000-01-01T05:00:22.000Z</time>
      </trkpt>
      <trkpt lat="45.19216" lon="5.93064">
        <ele>1530</ele>
        <time>2000-01-01T05:00:32.000Z</time>
      </trkpt>
      <trkpt lat="45.19235" lon="5.93063">
        <ele>1525</ele>
        <time>2000-01-01T05:00:42.000Z</time>
      </trkpt>
      <trkpt lat="45.19263" lon="5.93049">
        <ele>1516</ele>
        <time>2000-01-01T05:00:52.000Z</time>
      </trkpt>
      <trkpt lat="45.19285" lon="5.93042">
        <ele>1512</ele>
        <time>2000-01-01T05:01:02.000Z</time>
      </trkpt>
      <trkpt lat="45.19315" lon="5.93037">
        <ele>1508</ele>
        <time>2000-01-01T05:01:12.000Z</time>
      </trkpt>
      <trkpt lat="45.19347" lon="5.93026">
        <ele>1506</ele>
        <time>2000-01-01T05:01:22.000Z</time>
      </trkpt>
      <trkpt lat="45.19357" lon="5.93016">
        <ele>1505.6</ele>
        <time>2000-01-01T05:01:32.000Z</time>
      </trkpt>
      <trkpt lat="45.19372" lon="5.93031">
        <ele>1502</ele>
        <time>2000-01-01T05:01:42.000Z</time>
      </trkpt>
      <trkpt lat="45.19378" lon="5.93032">
        <ele>1502.5</ele>
        <time>2000-01-01T05:01:52.000Z</time>
      </trkpt>
      <trkpt lat="45.19385" lon="5.93042">
        <ele>1500.1</ele>
        <time>2000-01-01T05:02:02.000Z</time>
      </trkpt>
      <trkpt lat="45.19389" lon="5.93054">
        <ele>1499</ele>
        <time>2000-01-01T05:02:12.000Z</time>
      </trkpt>
      <trkpt lat="45.19387" lon="5.9306">
        <ele>1496.2</ele>
        <time>2000-01-01T05:02:22.000Z</time>
      </trkpt>
      <trkpt lat="45.19388" lon="5.93067">
        <ele>1494.6</ele>
        <time>2000-01-01T05:02:32.000Z</time>
      </trkpt>
      <trkpt lat="45.19405" lon="5.93088">
        <ele>1490</ele>
        <time>2000-01-01T05:02:42.000Z</time>
      </trkpt>
      <trkpt lat="45.19401" lon="5.93094">
        <ele>1486.6</ele>
        <time>2000-01-01T05:02:52.000Z</time>
      </trkpt>
      <trkpt lat="45.19395" lon="5.93096">
        <ele>1486.7</ele>
        <time>2000-01-01T05:03:02.000Z</time>
      </trkpt>
      <trkpt lat="45.19396" lon="5.93099">
        <ele>1485.7</ele>
        <time>2000-01-01T05:03:12.000Z</time>
      </trkpt>
      <trkpt lat="45.19392" lon="5.93107">
        <ele>1485</ele>
        <time>2000-01-01T05:03:22.000Z</time>
      </trkpt>
      <trkpt lat="45.19375" lon="5.93134">
        <ele>1480</ele>
        <time>2000-01-01T05:03:32.000Z</time>
      </trkpt>
      <trkpt lat="45.19373" lon="5.9314">
        <ele>1477.6</ele>
        <time>2000-01-01T05:03:42.000Z</time>
      </trkpt>
      <trkpt lat="45.19374" lon="5.93147">
        <ele>1476.1</ele>
        <time>2000-01-01T05:03:52.000Z</time>
      </trkpt>
      <trkpt lat="45.19372" lon="5.93149">
        <ele>1476.1</ele>
        <time>2000-01-01T05:04:02.000Z</time>
      </trkpt>
      <trkpt lat="45.19374" lon="5.93154">
        <ele>1474.7</ele>
        <time>2000-01-01T05:04:12.000Z</time>
      </trkpt>
      <trkpt lat="45.19375" lon="5.9315">
        <ele>1477</ele>
        <time>2000-01-01T05:04:22.000Z</time>
      </trkpt>
      <trkpt lat="45.19372" lon="5.9315">
        <ele>1475.9</ele>
        <time>2000-01-01T05:04:32.000Z</time>
      </trkpt>
      <trkpt lat="45.1937" lon="5.93146">
        <ele>1477</ele>
        <time>2000-01-01T05:04:42.000Z</time>
      </trkpt>
      <trkpt lat="45.19373" lon="5.93166">
        <ele>1473</ele>
        <time>2000-01-01T05:04:52.000Z</time>
      </trkpt>
      <trkpt lat="45.19386" lon="5.9318">
        <ele>1467.3</ele>
        <time>2000-01-01T05:05:02.000Z</time>
      </trkpt>
      <trkpt lat="45.19386" lon="5.9319">
        <ele>1467</ele>
        <time>2000-01-01T05:05:12.000Z</time>
      </trkpt>
      <trkpt lat="45.1939" lon="5.93197">
        <ele>1463.5</ele>
        <time>2000-01-01T05:05:22.000Z</time>
      </trkpt>
      <trkpt lat="45.19402" lon="5.93203">
        <ele>1461</ele>
        <time>2000-01-01T05:05:32.000Z</time>
      </trkpt>
      <trkpt lat="45.19407" lon="5.93202">
        <ele>1459.1</ele>
        <time>2000-01-01T05:05:42.000Z</time>
      </trkpt>
      <trkpt lat="45.19426" lon="5.93222">
        <ele>1452</ele>
        <time>2000-01-01T05:05:52.000Z</time>
      </trkpt>
      <trkpt lat="45.19436" lon="5.93224">
        <ele>1448.2</ele>
        <time>2000-01-01T05:06:02.000Z</time>
      </trkpt>
      <trkpt lat="45.19443" lon="5.93221">
        <ele>1446.7</ele>
        <time>2000-01-01T05:06:12.000Z</time>
      </trkpt>
      <trkpt lat="45.19454" lon="5.93222">
        <ele>1444</ele>
        <time>2000-01-01T05:06:22.000Z</time>
      </trkpt>
      <trkpt lat="45.19469" lon="5.93213">
        <ele>1441.8</ele>
        <time>2000-01-01T05:06:32.000Z</time>
      </trkpt>
      <trkpt lat="45.19486" lon="5.93217">
        <ele>1440</ele>
        <time>2000-01-01T05:06:42.000Z</time>
      </trkpt>
      <trkpt lat="45.19504" lon="5.93227">
        <ele>1433</ele>
        <time>2000-01-01T05:06:52.000Z</time>
      </trkpt>
      <trkpt lat="45.19511" lon="5.93233">
        <ele>1427.3</ele>
        <time>2000-01-01T05:07:02.000Z</time>
      </trkpt>
      <trkpt lat="45.19513" lon="5.93238">
        <ele>1425.9</ele>
        <time>2000-01-01T05:07:12.000Z</time>
      </trkpt>
      <trkpt lat="45.19523" lon="5.93235">
        <ele>1425</ele>
        <time>2000-01-01T05:07:22.000Z</time>
      </trkpt>
      <trkpt lat="45.19542" lon="5.93254">
        <ele>1415</ele>
        <time>2000-01-01T05:07:32.000Z</time>
      </trkpt>
      <trkpt lat="45.19555" lon="5.93252">
        <ele>1410.7</ele>
        <time>2000-01-01T05:07:42.000Z</time>
      </trkpt>
      <trkpt lat="45.19559" lon="5.93253">
        <ele>1409.1</ele>
        <time>2000-01-01T05:07:52.000Z</time>
      </trkpt>
      <trkpt lat="45.1956" lon="5.93257">
        <ele>1409</ele>
        <time>2000-01-01T05:08:02.000Z</time>
      </trkpt>
      <trkpt lat="45.1956" lon="5.93253">
        <ele>1408.7</ele>
        <time>2000-01-01T05:08:12.000Z</time>
      </trkpt>
      <trkpt lat="45.1956" lon="5.93259">
        <ele>1407.4</ele>
        <time>2000-01-01T05:08:22.000Z</time>
      </trkpt>
      <trkpt lat="45.19563" lon="5.93255">
        <ele>1407.2</ele>
        <time>2000-01-01T05:08:32.000Z</time>
      </trkpt>
      <trkpt lat="45.19575" lon="5.93255">
        <ele>1405</ele>
        <time>2000-01-01T05:08:42.000Z</time>
      </trkpt>
      <trkpt lat="45.19591" lon="5.93246">
        <ele>1399</ele>
        <time>2000-01-01T05:08:52.000Z</time>
      </trkpt>
      <trkpt lat="45.19595" lon="5.93241">
        <ele>1402</ele>
        <time>2000-01-01T05:09:02.000Z</time>
      </trkpt>
      <trkpt lat="45.19601" lon="5.9324">
        <ele>1396.8</ele>
        <time>2000-01-01T05:09:12.000Z</time>
      </trkpt>
      <trkpt lat="45.19628" lon="5.9322">
        <ele>1395</ele>
        <time>2000-01-01T05:09:22.000Z</time>
      </trkpt>
      <trkpt lat="45.19638" lon="5.93216">
        <ele>1389.1</ele>
        <time>2000-01-01T05:09:32.000Z</time>
      </trkpt>
      <trkpt lat="45.19652" lon="5.93219">
        <ele>1386</ele>
        <time>2000-01-01T05:09:42.000Z</time>
      </trkpt>
      <trkpt lat="45.19673" lon="5.93208">
        <ele>1380</ele>
        <time>2000-01-01T05:09:52.000Z</time>
      </trkpt>
      <trkpt lat="45.19677" lon="5.93201">
        <ele>1377.9</ele>
        <time>2000-01-01T05:10:02.000Z</time>
      </trkpt>
      <trkpt lat="45.19687" lon="5.93192">
        <ele>1376.8</ele>
        <time>2000-01-01T05:10:12.000Z</time>
      </trkpt>
      <trkpt lat="45.19697" lon="5.93189">
        <ele>1379</ele>
        <time>2000-01-01T05:10:22.000Z</time>
      </trkpt>
      <trkpt lat="45.19704" lon="5.9318">
        <ele>1374.6</ele>
        <time>2000-01-01T05:10:32.000Z</time>
      </trkpt>
      <trkpt lat="45.19714" lon="5.93175">
        <ele>1376</ele>
        <time>2000-01-01T05:10:42.000Z</time>
      </trkpt>
      <trkpt lat="45.19736" lon="5.93154">
        <ele>1376</ele>
        <time>2000-01-01T05:10:52.000Z</time>
      </trkpt>
      <trkpt lat="45.19741" lon="5.93152">
        <ele>1371.4</ele>
        <time>2000-01-01T05:11:02.000Z</time>
      </trkpt>
      <trkpt lat="45.19758" lon="5.93152">
        <ele>1369</ele>
        <time>2000-01-01T05:11:12.000Z</time>
      </trkpt>
      <trkpt lat="45.19769" lon="5.93147">
        <ele>1365.5</ele>
        <time>2000-01-01T05:11:22.000Z</time>
      </trkpt>
      <trkpt lat="45.19785" lon="5.93144">
        <ele>1364</ele>
        <time>2000-01-01T05:11:32.000Z</time>
      </trkpt>
      <trkpt lat="45.19812" lon="5.93149">
        <ele>1359</ele>
        <time>2000-01-01T05:11:42.000Z</time>
      </trkpt>
      <trkpt lat="45.19818" lon="5.93152">
        <ele>1356.5</ele>
        <time>2000-01-01T05:11:52.000Z</time>
      </trkpt>
      <trkpt lat="45.19827" lon="5.93145">
        <ele>1357.9</ele>
        <time>2000-01-01T05:12:02.000Z</time>
      </trkpt>
      <trkpt lat="45.1984" lon="5.93148">
        <ele>1359</ele>
        <time>2000-01-01T05:12:12.000Z</time>
      </trkpt>
      <trkpt lat="45.19847" lon="5.93154">
        <ele>1355.4</ele>
        <time>2000-01-01T05:12:22.000Z</time>
      </trkpt>
      <trkpt lat="45.19856" lon="5.93156">
        <ele>1355</ele>
        <time>2000-01-01T05:12:32.000Z</time>
      </trkpt>
      <trkpt lat="45.19862" lon="5.93177">
        <ele>1351</ele>
        <time>2000-01-01T05:12:42.000Z</time>
      </trkpt>
      <trkpt lat="45.19879" lon="5.93188">
        <ele>1345.5</ele>
        <time>2000-01-01T05:12:52.000Z</time>
      </trkpt>
      <trkpt lat="45.19885" lon="5.93185">
        <ele>1348</ele>
        <time>2000-01-01T05:13:02.000Z</time>
      </trkpt>
      <trkpt lat="45.19903" lon="5.93183">
        <ele>1344.8</ele>
        <time>2000-01-01T05:13:12.000Z</time>
      </trkpt>
      <trkpt lat="45.19929" lon="5.93171">
        <ele>1346</ele>
        <time>2000-01-01T05:13:22.000Z</time>
      </trkpt>
      <trkpt lat="45.19939" lon="5.93171">
        <ele>1342.6</ele>
        <time>2000-01-01T05:13:32.000Z</time>
      </trkpt>
      <trkpt lat="45.1995" lon="5.93162">
        <ele>1345</ele>
        <time>2000-01-01T05:13:42.000Z</time>
      </trkpt>
      <trkpt lat="45.19969" lon="5.93152">
        <ele>1344</ele>
        <time>2000-01-01T05:13:52.000Z</time>
      </trkpt>
      <trkpt lat="45.19992" lon="5.93134">
        <ele>1340</ele>
        <time>2000-01-01T05:14:02.000Z</time>
      </trkpt>
      <trkpt lat="45.20013" lon="5.93116">
        <ele>1340</ele>
        <time>2000-01-01T05:14:12.000Z</time>
      </trkpt>
      <trkpt lat="45.20027" lon="5.93099">
        <ele>1336.8</ele>
        <time>2000-01-01T05:14:22.000Z</time>
      </trkpt>
      <trkpt lat="45.20042" lon="5.9307">
        <ele>1339</ele>
        <time>2000-01-01T05:14:32.000Z</time>
      </trkpt>
      <trkpt lat="45.20047" lon="5.93065">
        <ele>1339.1</ele>
        <time>2000-01-01T05:14:42.000Z</time>
      </trkpt>
      <trkpt lat="45.2005" lon="5.93065">
        <ele>1338</ele>
        <time>2000-01-01T05:14:52.000Z</time>
      </trkpt>
      <trkpt lat="45.20062" lon="5.93052">
        <ele>1339</ele>
        <time>2000-01-01T05:15:02.000Z</time>
      </trkpt>
      <trkpt lat="45.20092" lon="5.93005">
        <ele>1336</ele>
        <time>2000-01-01T05:15:12.000Z</time>
      </trkpt>
      <trkpt lat="45.20103" lon="5.92999">
        <ele>1337.1</ele>
        <time>2000-01-01T05:15:22.000Z</time>
      </trkpt>
      <trkpt lat="45.20115" lon="5.93001">
        <ele>1334</ele>
        <time>2000-01-01T05:15:32.000Z</time>
      </trkpt>
      <trkpt lat="45.20129" lon="5.92997">
        <ele>1328.2</ele>
        <time>2000-01-01T05:15:42.000Z</time>
      </trkpt>
      <trkpt lat="45.20141" lon="5.93">
        <ele>1324</ele>
        <time>2000-01-01T05:15:52.000Z</time>
      </trkpt>
      <trkpt lat="45.20153" lon="5.92997">
        <ele>1319.1</ele>
        <time>2000-01-01T05:16:02.000Z</time>
      </trkpt>
      <trkpt lat="45.20162" lon="5.92982">
        <ele>1322</ele>
        <time>2000-01-01T05:16:12.000Z</time>
      </trkpt>
      <trkpt lat="45.20172" lon="5.92972">
        <ele>1316.5</ele>
        <time>2000-01-01T05:16:22.000Z</time>
      </trkpt>
      <trkpt lat="45.20176" lon="5.92957">
        <ele>1321</ele>
        <time>2000-01-01T05:16:32.000Z</time>
      </trkpt>
      <trkpt lat="45.20193" lon="5.92947">
        <ele>1310.3</ele>
        <time>2000-01-01T05:16:42.000Z</time>
      </trkpt>
      <trkpt lat="45.20196" lon="5.92941">
        <ele>1320</ele>
        <time>2000-01-01T05:16:52.000Z</time>
      </trkpt>
      <trkpt lat="45.20197" lon="5.92933">
        <ele>1309</ele>
        <time>2000-01-01T05:17:02.000Z</time>
      </trkpt>
      <trkpt lat="45.20174" lon="5.92864">
        <ele>1320</ele>
        <time>2000-01-01T05:17:12.000Z</time>
      </trkpt>
      <trkpt lat="45.20174" lon="5.92842">
        <ele>1313.9</ele>
        <time>2000-01-01T05:17:22.000Z</time>
      </trkpt>
      <trkpt lat="45.20178" lon="5.9283">
        <ele>1314</ele>
        <time>2000-01-01T05:17:32.000Z</time>
      </trkpt>
      <trkpt lat="45.20173" lon="5.92818">
        <ele>1309.1</ele>
        <time>2000-01-01T05:17:42.000Z</time>
      </trkpt>
      <trkpt lat="45.20173" lon="5.92809">
        <ele>1306.9</ele>
        <time>2000-01-01T05:17:52.000Z</time>
      </trkpt>
      <trkpt lat="45.20165" lon="5.92774">
        <ele>1302</ele>
        <time>2000-01-01T05:18:02.000Z</time>
      </trkpt>
      <trkpt lat="45.20152" lon="5.92742">
        <ele>1297</ele>
        <time>2000-01-01T05:18:12.000Z</time>
      </trkpt>
      <trkpt lat="45.20145" lon="5.92712">
        <ele>1294</ele>
        <time>2000-01-01T05:18:22.000Z</time>
      </trkpt>
      <trkpt lat="45.20138" lon="5.92699">
        <ele>1292.3</ele>
        <time>2000-01-01T05:18:32.000Z</time>
      </trkpt>
      <trkpt lat="45.20125" lon="5.92663">
        <ele>1290</ele>
        <time>2000-01-01T05:18:42.000Z</time>
      </trkpt>
      <trkpt lat="45.20122" lon="5.92647">
        <ele>1287.8</ele>
        <time>2000-01-01T05:18:52.000Z</time>
      </trkpt>
      <trkpt lat="45.20129" lon="5.9264">
        <ele>1288</ele>
        <time>2000-01-01T05:19:02.000Z</time>
      </trkpt>
      <trkpt lat="45.20124" lon="5.92632">
        <ele>1285.1</ele>
        <time>2000-01-01T05:19:12.000Z</time>
      </trkpt>
      <trkpt lat="45.20127" lon="5.92626">
        <ele>1283.5</ele>
        <time>2000-01-01T05:19:22.000Z</time>
      </trkpt>
      <trkpt lat="45.20119" lon="5.92608">
        <ele>1286</ele>
        <time>2000-01-01T05:19:32.000Z</time>
      </trkpt>
      <trkpt lat="45.20115" lon="5.92577">
        <ele>1285</ele>
        <time>2000-01-01T05:19:42.000Z</time>
      </trkpt>
      <trkpt lat="45.20116" lon="5.92574">
        <ele>1283.1</ele>
        <time>2000-01-01T05:19:52.000Z</time>
      </trkpt>
      <trkpt lat="45.20135" lon="5.92565">
        <ele>1278</ele>
        <time>2000-01-01T05:20:02.000Z</time>
      </trkpt>
      <trkpt lat="45.20137" lon="5.9256">
        <ele>1275.8</ele>
        <time>2000-01-01T05:20:12.000Z</time>
      </trkpt>
      <trkpt lat="45.2015" lon="5.92552">
        <ele>1271.3</ele>
        <time>2000-01-01T05:20:22.000Z</time>
      </trkpt>
      <trkpt lat="45.20152" lon="5.92546">
        <ele>1270</ele>
        <time>2000-01-01T05:20:32.000Z</time>
      </trkpt>
      <trkpt lat="45.20161" lon="5.92546">
        <ele>1267.5</ele>
        <time>2000-01-01T05:20:42.000Z</time>
      </trkpt>
      <trkpt lat="45.20177" lon="5.92537">
        <ele>1264</ele>
        <time>2000-01-01T05:20:52.000Z</time>
      </trkpt>
      <trkpt lat="45.20179" lon="5.92532">
        <ele>1260.3</ele>
        <time>2000-01-01T05:21:02.000Z</time>
      </trkpt>
      <trkpt lat="45.20177" lon="5.92489">
        <ele>1262</ele>
        <time>2000-01-01T05:21:12.000Z</time>
      </trkpt>
      <trkpt lat="45.20185" lon="5.92487">
        <ele>1256</ele>
        <time>2000-01-01T05:21:22.000Z</time>
      </trkpt>
      <trkpt lat="45.20185" lon="5.92476">
        <ele>1255.3</ele>
        <time>2000-01-01T05:21:32.000Z</time>
      </trkpt>
      <trkpt lat="45.20192" lon="5.92457">
        <ele>1252</ele>
        <time>2000-01-01T05:21:42.000Z</time>
      </trkpt>
      <trkpt lat="45.20191" lon="5.92451">
        <ele>1251.7</ele>
        <time>2000-01-01T05:21:52.000Z</time>
      </trkpt>
      <trkpt lat="45.20193" lon="5.92446">
        <ele>1250.7</ele>
        <time>2000-01-01T05:22:02.000Z</time>
      </trkpt>
      <trkpt lat="45.202" lon="5.92442">
        <ele>1246.8</ele>
        <time>2000-01-01T05:22:12.000Z</time>
      </trkpt>
      <trkpt lat="45.20211" lon="5.92445">
        <ele>1240</ele>
        <time>2000-01-01T05:22:22.000Z</time>
      </trkpt>
      <trkpt lat="45.20209" lon="5.92437">
        <ele>1241.7</ele>
        <time>2000-01-01T05:22:32.000Z</time>
      </trkpt>
      <trkpt lat="45.20215" lon="5.9241">
        <ele>1239</ele>
        <time>2000-01-01T05:22:42.000Z</time>
      </trkpt>
      <trkpt lat="45.20213" lon="5.92404">
        <ele>1237.9</ele>
        <time>2000-01-01T05:22:52.000Z</time>
      </trkpt>
      <trkpt lat="45.2022" lon="5.92392">
        <ele>1233.4</ele>
        <time>2000-01-01T05:23:02.000Z</time>
      </trkpt>
      <trkpt lat="45.20222" lon="5.92371">
        <ele>1232</ele>
        <time>2000-01-01T05:23:12.000Z</time>
      </trkpt>
      <trkpt lat="45.20231" lon="5.9234">
        <ele>1227</ele>
        <time>2000-01-01T05:23:22.000Z</time>
      </trkpt>
      <trkpt lat="45.20227" lon="5.92321">
        <ele>1227.3</ele>
        <time>2000-01-01T05:23:32.000Z</time>
      </trkpt>
      <trkpt lat="45.20232" lon="5.92303">
        <ele>1226</ele>
        <time>2000-01-01T05:23:42.000Z</time>
      </trkpt>
      <trkpt lat="45.20234" lon="5.92302">
        <ele>1223.2</ele>
        <time>2000-01-01T05:23:52.000Z</time>
      </trkpt>
      <trkpt lat="45.20233" lon="5.92282">
        <ele>1223.5</ele>
        <time>2000-01-01T05:24:02.000Z</time>
      </trkpt>
      <trkpt lat="45.20236" lon="5.92276">
        <ele>1226</ele>
        <time>2000-01-01T05:24:12.000Z</time>
      </trkpt>
      <trkpt lat="45.20231" lon="5.92262">
        <ele>1224.6</ele>
        <time>2000-01-01T05:24:22.000Z</time>
      </trkpt>
      <trkpt lat="45.20234" lon="5.92263">
        <ele>1222.8</ele>
        <time>2000-01-01T05:24:32.000Z</time>
      </trkpt>
      <trkpt lat="45.20237" lon="5.9225">
        <ele>1226</ele>
        <time>2000-01-01T05:24:42.000Z</time>
      </trkpt>
      <trkpt lat="45.20252" lon="5.92227">
        <ele>1213</ele>
        <time>2000-01-01T05:24:52.000Z</time>
      </trkpt>
      <trkpt lat="45.20262" lon="5.92187">
        <ele>1212</ele>
        <time>2000-01-01T05:25:02.000Z</time>
      </trkpt>
      <trkpt lat="45.20271" lon="5.92166">
        <ele>1206.2</ele>
        <time>2000-01-01T05:25:12.000Z</time>
      </trkpt>
      <trkpt lat="45.20272" lon="5.92153">
        <ele>1211</ele>
        <time>2000-01-01T05:25:22.000Z</time>
      </trkpt>
      <trkpt lat="45.20278" lon="5.92142">
        <ele>1204.5</ele>
        <time>2000-01-01T05:25:32.000Z</time>
      </trkpt>
      <trkpt lat="45.2028" lon="5.92129">
        <ele>1210</ele>
        <time>2000-01-01T05:25:42.000Z</time>
      </trkpt>
      <trkpt lat="45.20293" lon="5.92101">
        <ele>1201</ele>
        <time>2000-01-01T05:25:52.000Z</time>
      </trkpt>
      <trkpt lat="45.20307" lon="5.92073">
        <ele>1196</ele>
        <time>2000-01-01T05:26:02.000Z</time>
      </trkpt>
      <trkpt lat="45.2031" lon="5.92029">
        <ele>1196</ele>
        <time>2000-01-01T05:26:12.000Z</time>
      </trkpt>
      <trkpt lat="45.20303" lon="5.91992">
        <ele>1195</ele>
        <time>2000-01-01T05:26:22.000Z</time>
      </trkpt>
      <trkpt lat="45.20294" lon="5.91942">
        <ele>1194</ele>
        <time>2000-01-01T05:26:32.000Z</time>
      </trkpt>
      <trkpt lat="45.20293" lon="5.91919">
        <ele>1190</ele>
        <time>2000-01-01T05:26:42.000Z</time>
      </trkpt>
      <trkpt lat="45.20273" lon="5.91888">
        <ele>1189</ele>
        <time>2000-01-01T05:26:52.000Z</time>
      </trkpt>
      <trkpt lat="45.20271" lon="5.91879">
        <ele>1189</ele>
        <time>2000-01-01T05:27:02.000Z</time>
      </trkpt>
      <trkpt lat="45.20269" lon="5.9186">
        <ele>1187</ele>
        <time>2000-01-01T05:27:12.000Z</time>
      </trkpt>
      <trkpt lat="45.20271" lon="5.91857">
        <ele>1186.1</ele>
        <time>2000-01-01T05:27:22.000Z</time>
      </trkpt>
      <trkpt lat="45.20271" lon="5.91835">
        <ele>1185.8</ele>
        <time>2000-01-01T05:27:32.000Z</time>
      </trkpt>
      <trkpt lat="45.20274" lon="5.91825">
        <ele>1185</ele>
        <time>2000-01-01T05:27:42.000Z</time>
      </trkpt>
      <trkpt lat="45.20271" lon="5.91821">
        <ele>1186</ele>
        <time>2000-01-01T05:27:52.000Z</time>
      </trkpt>
      <trkpt lat="45.20269" lon="5.91824">
        <ele>1186.1</ele>
        <time>2000-01-01T05:28:02.000Z</time>
      </trkpt>
      <trkpt lat="45.20275" lon="5.91825">
        <ele>1185.5</ele>
        <time>2000-01-01T05:28:12.000Z</time>
      </trkpt>
      <trkpt lat="45.20285" lon="5.9182">
        <ele>1185</ele>
        <time>2000-01-01T05:28:22.000Z</time>
      </trkpt>
      <trkpt lat="45.20315" lon="5.91823">
        <ele>1184</ele>
        <time>2000-01-01T05:28:32.000Z</time>
      </trkpt>
      <trkpt lat="45.20321" lon="5.91815">
        <ele>1182.8</ele>
        <time>2000-01-01T05:28:42.000Z</time>
      </trkpt>
      <trkpt lat="45.2032" lon="5.91804">
        <ele>1183.7</ele>
        <time>2000-01-01T05:28:52.000Z</time>
      </trkpt>
      <trkpt lat="45.20332" lon="5.91802">
        <ele>1183</ele>
        <time>2000-01-01T05:29:02.000Z</time>
      </trkpt>
      <trkpt lat="45.20343" lon="5.91807">
        <ele>1182.9</ele>
        <time>2000-01-01T05:29:12.000Z</time>
      </trkpt>
      <trkpt lat="45.20353" lon="5.91808">
        <ele>1183</ele>
        <time>2000-01-01T05:29:22.000Z</time>
      </trkpt>
      <trkpt lat="45.20373" lon="5.91793">
        <ele>1184</ele>
        <time>2000-01-01T05:29:32.000Z</time>
      </trkpt>
      <trkpt lat="45.20376" lon="5.91793">
        <ele>1184.8</ele>
        <time>2000-01-01T05:29:42.000Z</time>
      </trkpt>
      <trkpt lat="45.20375" lon="5.9179">
        <ele>1185.2</ele>
        <time>2000-01-01T05:29:52.000Z</time>
      </trkpt>
      <trkpt lat="45.20377" lon="5.91791">
        <ele>1185.1</ele>
        <time>2000-01-01T05:30:02.000Z</time>
      </trkpt>
      <trkpt lat="45.20371" lon="5.91791">
        <ele>1185.1</ele>
        <time>2000-01-01T05:30:12.000Z</time>
      </trkpt>
      <trkpt lat="45.20368" lon="5.91783">
        <ele>1186</ele>
        <time>2000-01-01T05:30:22.000Z</time>
      </trkpt>
      <trkpt lat="45.20369" lon="5.91768">
        <ele>1188.9</ele>
        <time>2000-01-01T05:30:32.000Z</time>
      </trkpt>
      <trkpt lat="45.20367" lon="5.91762">
        <ele>1190</ele>
        <time>2000-01-01T05:30:42.000Z</time>
      </trkpt>
      <trkpt lat="45.20363" lon="5.91761">
        <ele>1189</ele>
        <time>2000-01-01T05:30:52.000Z</time>
      </trkpt>
      <trkpt lat="45.20363" lon="5.91742">
        <ele>1193.8</ele>
        <time>2000-01-01T05:31:02.000Z</time>
      </trkpt>
      <trkpt lat="45.20353" lon="5.91732">
        <ele>1195</ele>
        <time>2000-01-01T05:31:12.000Z</time>
      </trkpt>
      <trkpt lat="45.20353" lon="5.91722">
        <ele>1198.1</ele>
        <time>2000-01-01T05:31:22.000Z</time>
      </trkpt>
      <trkpt lat="45.20348" lon="5.91712">
        <ele>1200.6</ele>
        <time>2000-01-01T05:31:32.000Z</time>
      </trkpt>
      <trkpt lat="45.20353" lon="5.91693">
        <ele>1206</ele>
        <time>2000-01-01T05:31:42.000Z</time>
      </trkpt>
      <trkpt lat="45.20353" lon="5.91676">
        <ele>1209.6</ele>
        <time>2000-01-01T05:31:52.000Z</time>
      </trkpt>
      <trkpt lat="45.20363" lon="5.91659">
        <ele>1215</ele>
        <time>2000-01-01T05:32:02.000Z</time>
      </trkpt>
      <trkpt lat="45.2037" lon="5.91635">
        <ele>1219.8</ele>
        <time>2000-01-01T05:32:12.000Z</time>
      </trkpt>
      <trkpt lat="45.20376" lon="5.91628">
        <ele>1223</ele>
        <time>2000-01-01T05:32:22.000Z</time>
      </trkpt>
      <trkpt lat="45.20376" lon="5.91625">
        <ele>1222</ele>
        <time>2000-01-01T05:32:32.000Z</time>
      </trkpt>
      <trkpt lat="45.2038" lon="5.91625">
        <ele>1222</ele>
        <time>2000-01-01T05:32:42.000Z</time>
      </trkpt>
      <trkpt lat="45.20385" lon="5.91616">
        <ele>1223.9</ele>
        <time>2000-01-01T05:32:52.000Z</time>
      </trkpt>
      <trkpt lat="45.2039" lon="5.91596">
        <ele>1229</ele>
        <time>2000-01-01T05:33:02.000Z</time>
      </trkpt>
      <trkpt lat="45.20393" lon="5.91592">
        <ele>1228.5</ele>
        <time>2000-01-01T05:33:12.000Z</time>
      </trkpt>
      <trkpt lat="45.20413" lon="5.91583">
        <ele>1230</ele>
        <time>2000-01-01T05:33:22.000Z</time>
      </trkpt>
      <trkpt lat="45.20427" lon="5.91572">
        <ele>1231.7</ele>
        <time>2000-01-01T05:33:32.000Z</time>
      </trkpt>
      <trkpt lat="45.20428" lon="5.91569">
        <ele>1231.9</ele>
        <time>2000-01-01T05:33:42.000Z</time>
      </trkpt>
      <trkpt lat="45.20436" lon="5.91567">
        <ele>1232</ele>
        <time>2000-01-01T05:33:52.000Z</time>
      </trkpt>
      <trkpt lat="45.20445" lon="5.9156">
        <ele>1232.9</ele>
        <time>2000-01-01T05:34:02.000Z</time>
      </trkpt>
      <trkpt lat="45.20456" lon="5.91546">
        <ele>1234</ele>
        <time>2000-01-01T05:34:12.000Z</time>
      </trkpt>
      <trkpt lat="45.20462" lon="5.91544">
        <ele>1234.4</ele>
        <time>2000-01-01T05:34:22.000Z</time>
      </trkpt>
      <trkpt lat="45.20481" lon="5.91526">
        <ele>1234</ele>
        <time>2000-01-01T05:34:32.000Z</time>
      </trkpt>
      <trkpt lat="45.20516" lon="5.91484">
        <ele>1234</ele>
        <time>2000-01-01T05:34:42.000Z</time>
      </trkpt>
      <trkpt lat="45.20531" lon="5.91474">
        <ele>1235.6</ele>
        <time>2000-01-01T05:34:52.000Z</time>
      </trkpt>
      <trkpt lat="45.20566" lon="5.91467">
        <ele>1234</ele>
        <time>2000-01-01T05:35:02.000Z</time>
      </trkpt>
      <trkpt lat="45.20588" lon="5.91459">
        <ele>1235</ele>
        <time>2000-01-01T05:35:12.000Z</time>
      </trkpt>
      <trkpt lat="45.20603" lon="5.91449">
        <ele>1236.5</ele>
        <time>2000-01-01T05:35:22.000Z</time>
      </trkpt>
      <trkpt lat="45.20658" lon="5.91453">
        <ele>1235</ele>
        <time>2000-01-01T05:35:32.000Z</time>
      </trkpt>
      <trkpt lat="45.20689" lon="5.91449">
        <ele>1235</ele>
        <time>2000-01-01T05:35:42.000Z</time>
      </trkpt>
      <trkpt lat="45.20686" lon="5.9145">
        <ele>1236.8</ele>
        <time>2000-01-01T05:35:52.000Z</time>
      </trkpt>
      <trkpt lat="45.20692" lon="5.91454">
        <ele>1237.4</ele>
        <time>2000-01-01T05:36:02.000Z</time>
      </trkpt>
      <trkpt lat="45.20693" lon="5.91451">
        <ele>1236.9</ele>
        <time>2000-01-01T05:36:12.000Z</time>
      </trkpt>
      <trkpt lat="45.20695" lon="5.91458">
        <ele>1237.9</ele>
        <time>2000-01-01T05:36:22.000Z</time>
      </trkpt>
      <trkpt lat="45.20705" lon="5.91451">
        <ele>1232</ele>
        <time>2000-01-01T05:36:32.000Z</time>
      </trkpt>
      <trkpt lat="45.20718" lon="5.91435">
        <ele>1233.5</ele>
        <time>2000-01-01T05:36:42.000Z</time>
      </trkpt>
      <trkpt lat="45.20727" lon="5.91428">
        <ele>1230</ele>
        <time>2000-01-01T05:36:52.000Z</time>
      </trkpt>
      <trkpt lat="45.20728" lon="5.91422">
        <ele>1230.9</ele>
        <time>2000-01-01T05:37:02.000Z</time>
      </trkpt>
      <trkpt lat="45.20741" lon="5.91408">
        <ele>1227</ele>
        <time>2000-01-01T05:37:12.000Z</time>
      </trkpt>
      <trkpt lat="45.20781" lon="5.91412">
        <ele>1227</ele>
        <time>2000-01-01T05:37:22.000Z</time>
      </trkpt>
      <trkpt lat="45.2081" lon="5.91401">
        <ele>1225</ele>
        <time>2000-01-01T05:37:32.000Z</time>
      </trkpt>
      <trkpt lat="45.20826" lon="5.91403">
        <ele>1225.5</ele>
        <time>2000-01-01T05:37:42.000Z</time>
      </trkpt>
      <trkpt lat="45.20834" lon="5.914">
        <ele>1224</ele>
        <time>2000-01-01T05:37:52.000Z</time>
      </trkpt>
      <trkpt lat="45.20853" lon="5.91401">
        <ele>1224</ele>
        <time>2000-01-01T05:38:02.000Z</time>
      </trkpt>
      <trkpt lat="45.20869" lon="5.9139">
        <ele>1222.2</ele>
        <time>2000-01-01T05:38:12.000Z</time>
      </trkpt>
      <trkpt lat="45.20874" lon="5.9139">
        <ele>1220</ele>
        <time>2000-01-01T05:38:22.000Z</time>
      </trkpt>
      <trkpt lat="45.20883" lon="5.91381">
        <ele>1220.6</ele>
        <time>2000-01-01T05:38:32.000Z</time>
      </trkpt>
      <trkpt lat="45.20901" lon="5.91375">
        <ele>1218</ele>
        <time>2000-01-01T05:38:42.000Z</time>
      </trkpt>
      <trkpt lat="45.20907" lon="5.91371">
        <ele>1218.1</ele>
        <time>2000-01-01T05:38:52.000Z</time>
      </trkpt>
      <trkpt lat="45.20912" lon="5.91359">
        <ele>1215.9</ele>
        <time>2000-01-01T05:39:02.000Z</time>
      </trkpt>
      <trkpt lat="45.20917" lon="5.91358">
        <ele>1214</ele>
        <time>2000-01-01T05:39:12.000Z</time>
      </trkpt>
      <trkpt lat="45.20922" lon="5.91351">
        <ele>1214.4</ele>
        <time>2000-01-01T05:39:22.000Z</time>
      </trkpt>
      <trkpt lat="45.20935" lon="5.91341">
        <ele>1212</ele>
        <time>2000-01-01T05:39:32.000Z</time>
      </trkpt>
      <trkpt lat="45.2094" lon="5.91331">
        <ele>1210.8</ele>
        <time>2000-01-01T05:39:42.000Z</time>
      </trkpt>
      <trkpt lat="45.20939" lon="5.91321">
        <ele>1209.4</ele>
        <time>2000-01-01T05:39:52.000Z</time>
      </trkpt>
      <trkpt lat="45.20944" lon="5.91302">
        <ele>1205</ele>
        <time>2000-01-01T05:40:02.000Z</time>
      </trkpt>
      <trkpt lat="45.20951" lon="5.91292">
        <ele>1204.1</ele>
        <time>2000-01-01T05:40:12.000Z</time>
      </trkpt>
      <trkpt lat="45.2096" lon="5.91291">
        <ele>1203.3</ele>
        <time>2000-01-01T05:40:22.000Z</time>
      </trkpt>
      <trkpt lat="45.20964" lon="5.91279">
        <ele>1198</ele>
        <time>2000-01-01T05:40:32.000Z</time>
      </trkpt>
      <trkpt lat="45.20963" lon="5.9127">
        <ele>1199.2</ele>
        <time>2000-01-01T05:40:42.000Z</time>
      </trkpt>
      <trkpt lat="45.20968" lon="5.91269">
        <ele>1198.7</ele>
        <time>2000-01-01T05:40:52.000Z</time>
      </trkpt>
      <trkpt lat="45.20971" lon="5.91263">
        <ele>1197.4</ele>
        <time>2000-01-01T05:41:02.000Z</time>
      </trkpt>
      <trkpt lat="45.20978" lon="5.91259">
        <ele>1194</ele>
        <time>2000-01-01T05:41:12.000Z</time>
      </trkpt>
      <trkpt lat="45.20985" lon="5.91259">
        <ele>1195.4</ele>
        <time>2000-01-01T05:41:22.000Z</time>
      </trkpt>
      <trkpt lat="45.20994" lon="5.91249">
        <ele>1192.4</ele>
        <time>2000-01-01T05:41:32.000Z</time>
      </trkpt>
      <trkpt lat="45.21012" lon="5.91238">
        <ele>1186</ele>
        <time>2000-01-01T05:41:42.000Z</time>
      </trkpt>
      <trkpt lat="45.21019" lon="5.91238">
        <ele>1187.1</ele>
        <time>2000-01-01T05:41:52.000Z</time>
      </trkpt>
      <trkpt lat="45.21046" lon="5.9123">
        <ele>1182</ele>
        <time>2000-01-01T05:42:02.000Z</time>
      </trkpt>
      <trkpt lat="45.2106" lon="5.91238">
        <ele>1181.7</ele>
        <time>2000-01-01T05:42:12.000Z</time>
      </trkpt>
      <trkpt lat="45.21069" lon="5.91239">
        <ele>1182</ele>
        <time>2000-01-01T05:42:22.000Z</time>
      </trkpt>
      <trkpt lat="45.21071" lon="5.91245">
        <ele>1181.6</ele>
        <time>2000-01-01T05:42:32.000Z</time>
      </trkpt>
      <trkpt lat="45.21086" lon="5.91254">
        <ele>1182</ele>
        <time>2000-01-01T05:42:42.000Z</time>
      </trkpt>
      <trkpt lat="45.211" lon="5.91257">
        <ele>1180.2</ele>
        <time>2000-01-01T05:42:52.000Z</time>
      </trkpt>
      <trkpt lat="45.21106" lon="5.91266">
        <ele>1181</ele>
        <time>2000-01-01T05:43:02.000Z</time>
      </trkpt>
      <trkpt lat="45.21115" lon="5.91261">
        <ele>1178.7</ele>
        <time>2000-01-01T05:43:12.000Z</time>
      </trkpt>
      <trkpt lat="45.21135" lon="5.91262">
        <ele>1176</ele>
        <time>2000-01-01T05:43:22.000Z</time>
      </trkpt>
      <trkpt lat="45.21147" lon="5.91257">
        <ele>1172</ele>
        <time>2000-01-01T05:43:32.000Z</time>
      </trkpt>
      <trkpt lat="45.2116" lon="5.91262">
        <ele>1171</ele>
        <time>2000-01-01T05:43:42.000Z</time>
      </trkpt>
      <trkpt lat="45.21168" lon="5.91257">
        <ele>1167.4</ele>
        <time>2000-01-01T05:43:52.000Z</time>
      </trkpt>
      <trkpt lat="45.21169" lon="5.91259">
        <ele>1167.7</ele>
        <time>2000-01-01T05:44:02.000Z</time>
      </trkpt>
      <trkpt lat="45.21172" lon="5.91258">
        <ele>1166.7</ele>
        <time>2000-01-01T05:44:12.000Z</time>
      </trkpt>
      <trkpt lat="45.21173" lon="5.91255">
        <ele>1165.7</ele>
        <time>2000-01-01T05:44:22.000Z</time>
      </trkpt>
      <trkpt lat="45.21177" lon="5.91256">
        <ele>1165</ele>
        <time>2000-01-01T05:44:32.000Z</time>
      </trkpt>
      <trkpt lat="45.21188" lon="5.91253">
        <ele>1161.5</ele>
        <time>2000-01-01T05:44:42.000Z</time>
      </trkpt>
      <trkpt lat="45.21193" lon="5.91255">
        <ele>1160.8</ele>
        <time>2000-01-01T05:44:52.000Z</time>
      </trkpt>
      <trkpt lat="45.21224" lon="5.91249">
        <ele>1148</ele>
        <time>2000-01-01T05:45:02.000Z</time>
      </trkpt>
      <trkpt lat="45.2123" lon="5.91252">
        <ele>1150.6</ele>
        <time>2000-01-01T05:45:12.000Z</time>
      </trkpt>
      <trkpt lat="45.21241" lon="5.91249">
        <ele>1146.9</ele>
        <time>2000-01-01T05:45:22.000Z</time>
      </trkpt>
      <trkpt lat="45.21246" lon="5.91252">
        <ele>1147</ele>
        <time>2000-01-01T05:45:32.000Z</time>
      </trkpt>
      <trkpt lat="45.21258" lon="5.91248">
        <ele>1142.6</ele>
        <time>2000-01-01T05:45:42.000Z</time>
      </trkpt>
      <trkpt lat="45.21259" lon="5.91251">
        <ele>1143.3</ele>
        <time>2000-01-01T05:45:52.000Z</time>
      </trkpt>
      <trkpt lat="45.21277" lon="5.91248">
        <ele>1137</ele>
        <time>2000-01-01T05:46:02.000Z</time>
      </trkpt>
      <trkpt lat="45.21284" lon="5.91242">
        <ele>1135.6</ele>
        <time>2000-01-01T05:46:12.000Z</time>
      </trkpt>
      <trkpt lat="45.21286" lon="5.91244">
        <ele>1135.8</ele>
        <time>2000-01-01T05:46:22.000Z</time>
      </trkpt>
      <trkpt lat="45.21289" lon="5.91233">
        <ele>1132.1</ele>
        <time>2000-01-01T05:46:32.000Z</time>
      </trkpt>
      <trkpt lat="45.21294" lon="5.91229">
        <ele>1128</ele>
        <time>2000-01-01T05:46:42.000Z</time>
      </trkpt>
      <trkpt lat="45.21294" lon="5.91226">
        <ele>1129.2</ele>
        <time>2000-01-01T05:46:52.000Z</time>
      </trkpt>
      <trkpt lat="45.213" lon="5.91223">
        <ele>1127.2</ele>
        <time>2000-01-01T05:47:02.000Z</time>
      </trkpt>
      <trkpt lat="45.21307" lon="5.91224">
        <ele>1126.3</ele>
        <time>2000-01-01T05:47:12.000Z</time>
      </trkpt>
      <trkpt lat="45.21312" lon="5.91215">
        <ele>1121</ele>
        <time>2000-01-01T05:47:22.000Z</time>
      </trkpt>
      <trkpt lat="45.21322" lon="5.91212">
        <ele>1120.1</ele>
        <time>2000-01-01T05:47:32.000Z</time>
      </trkpt>
      <trkpt lat="45.21326" lon="5.91203">
        <ele>1116.8</ele>
        <time>2000-01-01T05:47:42.000Z</time>
      </trkpt>
      <trkpt lat="45.21348" lon="5.91194">
        <ele>1110</ele>
        <time>2000-01-01T05:47:52.000Z</time>
      </trkpt>
      <trkpt lat="45.21362" lon="5.91192">
        <ele>1106.1</ele>
        <time>2000-01-01T05:48:02.000Z</time>
      </trkpt>
      <trkpt lat="45.21366" lon="5.91185">
        <ele>1102</ele>
        <time>2000-01-01T05:48:12.000Z</time>
      </trkpt>
      <trkpt lat="45.21375" lon="5.9118">
        <ele>1100.3</ele>
        <time>2000-01-01T05:48:22.000Z</time>
      </trkpt>
      <trkpt lat="45.21375" lon="5.91176">
        <ele>1099.2</ele>
        <time>2000-01-01T05:48:32.000Z</time>
      </trkpt>
      <trkpt lat="45.21389" lon="5.91161">
        <ele>1093</ele>
        <time>2000-01-01T05:48:42.000Z</time>
      </trkpt>
      <trkpt lat="45.21401" lon="5.91161">
        <ele>1090.4</ele>
        <time>2000-01-01T05:48:52.000Z</time>
      </trkpt>
      <trkpt lat="45.2141" lon="5.91148">
        <ele>1083</ele>
        <time>2000-01-01T05:49:02.000Z</time>
      </trkpt>
      <trkpt lat="45.21407" lon="5.91141">
        <ele>1083.1</ele>
        <time>2000-01-01T05:49:12.000Z</time>
      </trkpt>
      <trkpt lat="45.21408" lon="5.91138">
        <ele>1082</ele>
        <time>2000-01-01T05:49:22.000Z</time>
      </trkpt>
      <trkpt lat="45.21406" lon="5.91137">
        <ele>1081.9</ele>
        <time>2000-01-01T05:49:32.000Z</time>
      </trkpt>
      <trkpt lat="45.2141" lon="5.9113">
        <ele>1079.1</ele>
        <time>2000-01-01T05:49:42.000Z</time>
      </trkpt>
      <trkpt lat="45.21423" lon="5.91134">
        <ele>1077</ele>
        <time>2000-01-01T05:49:52.000Z</time>
      </trkpt>
      <trkpt lat="45.21435" lon="5.91128">
        <ele>1074.8</ele>
        <time>2000-01-01T05:50:02.000Z</time>
      </trkpt>
      <trkpt lat="45.21437" lon="5.9113">
        <ele>1075.2</ele>
        <time>2000-01-01T05:50:12.000Z</time>
      </trkpt>
      <trkpt lat="45.21442" lon="5.91129">
        <ele>1071</ele>
        <time>2000-01-01T05:50:22.000Z</time>
      </trkpt>
      <trkpt lat="45.2145" lon="5.91121">
        <ele>1070.6</ele>
        <time>2000-01-01T05:50:32.000Z</time>
      </trkpt>
      <trkpt lat="45.21458" lon="5.91123">
        <ele>1070.4</ele>
        <time>2000-01-01T05:50:42.000Z</time>
      </trkpt>
      <trkpt lat="45.21473" lon="5.9112">
        <ele>1064</ele>
        <time>2000-01-01T05:50:52.000Z</time>
      </trkpt>
      <trkpt lat="45.21488" lon="5.91097">
        <ele>1055</ele>
        <time>2000-01-01T05:51:02.000Z</time>
      </trkpt>
      <trkpt lat="45.21488" lon="5.91084">
        <ele>1053.5</ele>
        <time>2000-01-01T05:51:12.000Z</time>
      </trkpt>
      <trkpt lat="45.21492" lon="5.91084">
        <ele>1053.1</ele>
        <time>2000-01-01T05:51:22.000Z</time>
      </trkpt>
      <trkpt lat="45.215" lon="5.91071">
        <ele>1047</ele>
        <time>2000-01-01T05:51:32.000Z</time>
      </trkpt>
      <trkpt lat="45.2151" lon="5.91065">
        <ele>1044.3</ele>
        <time>2000-01-01T05:51:42.000Z</time>
      </trkpt>
      <trkpt lat="45.21516" lon="5.91054">
        <ele>1039</ele>
        <time>2000-01-01T05:51:52.000Z</time>
      </trkpt>
      <trkpt lat="45.2152" lon="5.91025">
        <ele>1028</ele>
        <time>2000-01-01T05:52:02.000Z</time>
      </trkpt>
      <trkpt lat="45.21525" lon="5.9102">
        <ele>1026.6</ele>
        <time>2000-01-01T05:52:12.000Z</time>
      </trkpt>
      <trkpt lat="45.21524" lon="5.91018">
        <ele>1026</ele>
        <time>2000-01-01T05:52:22.000Z</time>
      </trkpt>
      <trkpt lat="45.21529" lon="5.91015">
        <ele>1024.2</ele>
        <time>2000-01-01T05:52:32.000Z</time>
      </trkpt>
      <trkpt lat="45.2153" lon="5.9101">
        <ele>1022.3</ele>
        <time>2000-01-01T05:52:42.000Z</time>
      </trkpt>
      <trkpt lat="45.2154" lon="5.91005">
        <ele>1018</ele>
        <time>2000-01-01T05:52:52.000Z</time>
      </trkpt>
      <trkpt lat="45.21553" lon="5.91003">
        <ele>1016.4</ele>
        <time>2000-01-01T05:53:02.000Z</time>
      </trkpt>
      <trkpt lat="45.21555" lon="5.91005">
        <ele>1016.9</ele>
        <time>2000-01-01T05:53:12.000Z</time>
      </trkpt>
      <trkpt lat="45.21575" lon="5.91002">
        <ele>1011</ele>
        <time>2000-01-01T05:53:22.000Z</time>
      </trkpt>
      <trkpt lat="45.21586" lon="5.91005">
        <ele>1010.4</ele>
        <time>2000-01-01T05:53:32.000Z</time>
      </trkpt>
      <trkpt lat="45.21592" lon="5.91001">
        <ele>1007.5</ele>
        <time>2000-01-01T05:53:42.000Z</time>
      </trkpt>
      <trkpt lat="45.2159" lon="5.90997">
        <ele>1006</ele>
        <time>2000-01-01T05:53:52.000Z</time>
      </trkpt>
      <trkpt lat="45.21608" lon="5.90995">
        <ele>1002.1</ele>
        <time>2000-01-01T05:54:02.000Z</time>
      </trkpt>
      <trkpt lat="45.21612" lon="5.90986">
        <ele>996</ele>
        <time>2000-01-01T05:54:12.000Z</time>
      </trkpt>
      <trkpt lat="45.21613" lon="5.90997">
        <ele>1001.5</ele>
        <time>2000-01-01T05:54:22.000Z</time>
      </trkpt>
      <trkpt lat="45.21625" lon="5.9099">
        <ele>994</ele>
        <time>2000-01-01T05:54:32.000Z</time>
      </trkpt>
      <trkpt lat="45.21635" lon="5.90972">
        <ele>987.9</ele>
        <time>2000-01-01T05:54:42.000Z</time>
      </trkpt>
      <trkpt lat="45.21633" lon="5.90944">
        <ele>980</ele>
        <time>2000-01-01T05:54:52.000Z</time>
      </trkpt>
      <trkpt lat="45.21617" lon="5.90919">
        <ele>978</ele>
        <time>2000-01-01T05:55:02.000Z</time>
      </trkpt>
      <trkpt lat="45.21611" lon="5.90905">
        <ele>976.9</ele>
        <time>2000-01-01T05:55:12.000Z</time>
      </trkpt>
      <trkpt lat="45.2161" lon="5.90883">
        <ele>974</ele>
        <time>2000-01-01T05:55:22.000Z</time>
      </trkpt>
      <trkpt lat="45.21604" lon="5.90879">
        <ele>973.5</ele>
        <time>2000-01-01T05:55:32.000Z</time>
      </trkpt>
      <trkpt lat="45.21586" lon="5.90849">
        <ele>973</ele>
        <time>2000-01-01T05:55:42.000Z</time>
      </trkpt>
      <trkpt lat="45.21568" lon="5.90835">
        <ele>972</ele>
        <time>2000-01-01T05:55:52.000Z</time>
      </trkpt>
      <trkpt lat="45.21557" lon="5.90817">
        <ele>969.9</ele>
        <time>2000-01-01T05:56:02.000Z</time>
      </trkpt>
      <trkpt lat="45.21556" lon="5.90811">
        <ele>969</ele>
        <time>2000-01-01T05:56:12.000Z</time>
      </trkpt>
      <trkpt lat="45.21548" lon="5.90801">
        <ele>967.9</ele>
        <time>2000-01-01T05:56:22.000Z</time>
      </trkpt>
      <trkpt lat="45.21549" lon="5.90796">
        <ele>966.7</ele>
        <time>2000-01-01T05:56:32.000Z</time>
      </trkpt>
      <trkpt lat="45.21546" lon="5.90783">
        <ele>964</ele>
        <time>2000-01-01T05:56:42.000Z</time>
      </trkpt>
      <trkpt lat="45.2155" lon="5.90775">
        <ele>962.3</ele>
        <time>2000-01-01T05:56:52.000Z</time>
      </trkpt>
      <trkpt lat="45.21541" lon="5.90745">
        <ele>956</ele>
        <time>2000-01-01T05:57:02.000Z</time>
      </trkpt>
      <trkpt lat="45.21538" lon="5.90726">
        <ele>953.7</ele>
        <time>2000-01-01T05:57:12.000Z</time>
      </trkpt>
      <trkpt lat="45.21538" lon="5.90709">
        <ele>949</ele>
        <time>2000-01-01T05:57:22.000Z</time>
      </trkpt>
      <trkpt lat="45.2154" lon="5.90711">
        <ele>950.4</ele>
        <time>2000-01-01T05:57:32.000Z</time>
      </trkpt>
      <trkpt lat="45.21543" lon="5.90706">
        <ele>949.2</ele>
        <time>2000-01-01T05:57:42.000Z</time>
      </trkpt>
      <trkpt lat="45.21544" lon="5.90668">
        <ele>940</ele>
        <time>2000-01-01T05:57:52.000Z</time>
      </trkpt>
      <trkpt lat="45.21535" lon="5.9066">
        <ele>941</ele>
        <time>2000-01-01T05:58:02.000Z</time>
      </trkpt>
      <trkpt lat="45.21529" lon="5.90638">
        <ele>935</ele>
        <time>2000-01-01T05:58:12.000Z</time>
      </trkpt>
      <trkpt lat="45.21508" lon="5.90607">
        <ele>932</ele>
        <time>2000-01-01T05:58:22.000Z</time>
      </trkpt>
      <trkpt lat="45.21515" lon="5.90597">
        <ele>929.8</ele>
        <time>2000-01-01T05:58:32.000Z</time>
      </trkpt>
      <trkpt lat="45.21524" lon="5.90593">
        <ele>929</ele>
        <time>2000-01-01T05:58:42.000Z</time>
      </trkpt>
      <trkpt lat="45.21528" lon="5.90584">
        <ele>929.1</ele>
        <time>2000-01-01T05:58:52.000Z</time>
      </trkpt>
      <trkpt lat="45.21545" lon="5.90562">
        <ele>926</ele>
        <time>2000-01-01T05:59:02.000Z</time>
      </trkpt>
      <trkpt lat="45.21557" lon="5.90553">
        <ele>926.6</ele>
        <time>2000-01-01T05:59:12.000Z</time>
      </trkpt>
      <trkpt lat="45.21566" lon="5.90554">
        <ele>926</ele>
        <time>2000-01-01T05:59:22.000Z</time>
      </trkpt>
      <trkpt lat="45.21571" lon="5.90551">
        <ele>926.3</ele>
        <time>2000-01-01T05:59:32.000Z</time>
      </trkpt>
      <trkpt lat="45.21571" lon="5.90541">
        <ele>924.9</ele>
        <time>2000-01-01T05:59:42.000Z</time>
      </trkpt>
      <trkpt lat="45.21563" lon="5.90529">
        <ele>921</ele>
        <time>2000-01-01T05:59:52.000Z</time>
      </trkpt>
      <trkpt lat="45.21564" lon="5.90501">
        <ele>917</ele>
        <time>2000-01-01T06:00:02.000Z</time>
      </trkpt>
      <trkpt lat="45.2156" lon="5.90493">
        <ele>915.9</ele>
        <time>2000-01-01T06:00:12.000Z</time>
      </trkpt>
      <trkpt lat="45.21565" lon="5.90492">
        <ele>915.8</ele>
        <time>2000-01-01T06:00:22.000Z</time>
      </trkpt>
      <trkpt lat="45.21581" lon="5.90475">
        <ele>911</ele>
        <time>2000-01-01T06:00:32.000Z</time>
      </trkpt>
      <trkpt lat="45.21585" lon="5.90466">
        <ele>910.5</ele>
        <time>2000-01-01T06:00:42.000Z</time>
      </trkpt>
      <trkpt lat="45.2158" lon="5.90448">
        <ele>905</ele>
        <time>2000-01-01T06:00:52.000Z</time>
      </trkpt>
      <trkpt lat="45.21553" lon="5.9043">
        <ele>902</ele>
        <time>2000-01-01T06:01:02.000Z</time>
      </trkpt>
      <trkpt lat="45.21549" lon="5.9042">
        <ele>900.5</ele>
        <time>2000-01-01T06:01:12.000Z</time>
      </trkpt>
      <trkpt lat="45.21539" lon="5.90409">
        <ele>895</ele>
        <time>2000-01-01T06:01:22.000Z</time>
      </trkpt>
      <trkpt lat="45.21529" lon="5.90389">
        <ele>893.1</ele>
        <time>2000-01-01T06:01:32.000Z</time>
      </trkpt>
      <trkpt lat="45.21526" lon="5.9039">
        <ele>892</ele>
        <time>2000-01-01T06:01:42.000Z</time>
      </trkpt>
      <trkpt lat="45.21521" lon="5.90386">
        <ele>891.9</ele>
        <time>2000-01-01T06:01:52.000Z</time>
      </trkpt>
      <trkpt lat="45.21517" lon="5.90387">
        <ele>891.8</ele>
        <time>2000-01-01T06:02:02.000Z</time>
      </trkpt>
      <trkpt lat="45.21515" lon="5.90381">
        <ele>890.4</ele>
        <time>2000-01-01T06:02:12.000Z</time>
      </trkpt>
      <trkpt lat="45.21503" lon="5.90369">
        <ele>884</ele>
        <time>2000-01-01T06:02:22.000Z</time>
      </trkpt>
      <trkpt lat="45.215" lon="5.90368">
        <ele>886.5</ele>
        <time>2000-01-01T06:02:32.000Z</time>
      </trkpt>
      <trkpt lat="45.21489" lon="5.90372">
        <ele>886.2</ele>
        <time>2000-01-01T06:02:42.000Z</time>
      </trkpt>
      <trkpt lat="45.21489" lon="5.90365">
        <ele>882</ele>
        <time>2000-01-01T06:02:52.000Z</time>
      </trkpt>
      <trkpt lat="45.21494" lon="5.90364">
        <ele>885</ele>
        <time>2000-01-01T06:03:02.000Z</time>
      </trkpt>
      <trkpt lat="45.21491" lon="5.9036">
        <ele>883.8</ele>
        <time>2000-01-01T06:03:12.000Z</time>
      </trkpt>
      <trkpt lat="45.21469" lon="5.9036">
        <ele>878</ele>
        <time>2000-01-01T06:03:22.000Z</time>
      </trkpt>
      <trkpt lat="45.21463" lon="5.90302">
        <ele>869</ele>
        <time>2000-01-01T06:03:32.000Z</time>
      </trkpt>
      <trkpt lat="45.21457" lon="5.90281">
        <ele>865.5</ele>
        <time>2000-01-01T06:03:42.000Z</time>
      </trkpt>
      <trkpt lat="45.21458" lon="5.90276">
        <ele>862</ele>
        <time>2000-01-01T06:03:52.000Z</time>
      </trkpt>
      <trkpt lat="45.21466" lon="5.90266">
        <ele>863.1</ele>
        <time>2000-01-01T06:04:02.000Z</time>
      </trkpt>
      <trkpt lat="45.21466" lon="5.9026">
        <ele>861.9</ele>
        <time>2000-01-01T06:04:12.000Z</time>
      </trkpt>
      <trkpt lat="45.21471" lon="5.90249">
        <ele>858</ele>
        <time>2000-01-01T06:04:22.000Z</time>
      </trkpt>
      <trkpt lat="45.21469" lon="5.90231">
        <ele>856.5</ele>
        <time>2000-01-01T06:04:32.000Z</time>
      </trkpt>
      <trkpt lat="45.21463" lon="5.90226">
        <ele>854</ele>
        <time>2000-01-01T06:04:42.000Z</time>
      </trkpt>
      <trkpt lat="45.21451" lon="5.90226">
        <ele>854.9</ele>
        <time>2000-01-01T06:04:52.000Z</time>
      </trkpt>
      <trkpt lat="45.21433" lon="5.90232">
        <ele>854</ele>
        <time>2000-01-01T06:05:02.000Z</time>
      </trkpt>
      <trkpt lat="45.21417" lon="5.90231">
        <ele>853.6</ele>
        <time>2000-01-01T06:05:12.000Z</time>
      </trkpt>
      <trkpt lat="45.2141" lon="5.90228">
        <ele>850</ele>
        <time>2000-01-01T06:05:22.000Z</time>
      </trkpt>
      <trkpt lat="45.21388" lon="5.90211">
        <ele>846</ele>
        <time>2000-01-01T06:05:32.000Z</time>
      </trkpt>
      <trkpt lat="45.21362" lon="5.90192">
        <ele>840</ele>
        <time>2000-01-01T06:05:42.000Z</time>
      </trkpt>
      <trkpt lat="45.2135" lon="5.90186">
        <ele>837.6</ele>
        <time>2000-01-01T06:05:52.000Z</time>
      </trkpt>
      <trkpt lat="45.21345" lon="5.90186">
        <ele>837</ele>
        <time>2000-01-01T06:06:02.000Z</time>
      </trkpt>
      <trkpt lat="45.21342" lon="5.90182">
        <ele>834</ele>
        <time>2000-01-01T06:06:12.000Z</time>
      </trkpt>
      <trkpt lat="45.21331" lon="5.90184">
        <ele>834.7</ele>
        <time>2000-01-01T06:06:22.000Z</time>
      </trkpt>
      <trkpt lat="45.21316" lon="5.90171">
        <ele>828</ele>
        <time>2000-01-01T06:06:32.000Z</time>
      </trkpt>
      <trkpt lat="45.21313" lon="5.90172">
        <ele>829.2</ele>
        <time>2000-01-01T06:06:42.000Z</time>
      </trkpt>
      <trkpt lat="45.21309" lon="5.90169">
        <ele>828</ele>
        <time>2000-01-01T06:06:52.000Z</time>
      </trkpt>
      <trkpt lat="45.21293" lon="5.90154">
        <ele>820</ele>
        <time>2000-01-01T06:07:02.000Z</time>
      </trkpt>
      <trkpt lat="45.21285" lon="5.9014">
        <ele>817.8</ele>
        <time>2000-01-01T06:07:12.000Z</time>
      </trkpt>
      <trkpt lat="45.21275" lon="5.90131">
        <ele>814</ele>
        <time>2000-01-01T06:07:22.000Z</time>
      </trkpt>
      <trkpt lat="45.21273" lon="5.90124">
        <ele>812.5</ele>
        <time>2000-01-01T06:07:32.000Z</time>
      </trkpt>
      <trkpt lat="45.21265" lon="5.90117">
        <ele>810.1</ele>
        <time>2000-01-01T06:07:42.000Z</time>
      </trkpt>
      <trkpt lat="45.21256" lon="5.90104">
        <ele>804</ele>
        <time>2000-01-01T06:07:52.000Z</time>
      </trkpt>
      <trkpt lat="45.21252" lon="5.901">
        <ele>804.1</ele>
        <time>2000-01-01T06:08:02.000Z</time>
      </trkpt>
      <trkpt lat="45.21244" lon="5.90104">
        <ele>805.3</ele>
        <time>2000-01-01T06:08:12.000Z</time>
      </trkpt>
      <trkpt lat="45.21241" lon="5.90101">
        <ele>804.2</ele>
        <time>2000-01-01T06:08:22.000Z</time>
      </trkpt>
      <trkpt lat="45.21241" lon="5.9009">
        <ele>801</ele>
        <time>2000-01-01T06:08:32.000Z</time>
      </trkpt>
      <trkpt lat="45.21248" lon="5.90081">
        <ele>797.3</ele>
        <time>2000-01-01T06:08:42.000Z</time>
      </trkpt>
      <trkpt lat="45.2127" lon="5.90081">
        <ele>798</ele>
        <time>2000-01-01T06:08:52.000Z</time>
      </trkpt>
      <trkpt lat="45.21276" lon="5.90079">
        <ele>798.5</ele>
        <time>2000-01-01T06:09:02.000Z</time>
      </trkpt>
      <trkpt lat="45.2127" lon="5.90062">
        <ele>791</ele>
        <time>2000-01-01T06:09:12.000Z</time>
      </trkpt>
      <trkpt lat="45.21264" lon="5.90056">
        <ele>790.6</ele>
        <time>2000-01-01T06:09:22.000Z</time>
      </trkpt>
      <trkpt lat="45.21251" lon="5.90051">
        <ele>790</ele>
        <time>2000-01-01T06:09:32.000Z</time>
      </trkpt>
      <trkpt lat="45.21221" lon="5.90027">
        <ele>789</ele>
        <time>2000-01-01T06:09:42.000Z</time>
      </trkpt>
      <trkpt lat="45.21207" lon="5.90022">
        <ele>788.6</ele>
        <time>2000-01-01T06:09:52.000Z</time>
      </trkpt>
      <trkpt lat="45.21192" lon="5.90019">
        <ele>784</ele>
        <time>2000-01-01T06:10:02.000Z</time>
      </trkpt>
      <trkpt lat="45.21186" lon="5.9002">
        <ele>786.4</ele>
        <time>2000-01-01T06:10:12.000Z</time>
      </trkpt>
      <trkpt lat="45.21184" lon="5.90018">
        <ele>785.8</ele>
        <time>2000-01-01T06:10:22.000Z</time>
      </trkpt>
      <trkpt lat="45.2115" lon="5.90023">
        <ele>783</ele>
        <time>2000-01-01T06:10:32.000Z</time>
      </trkpt>
      <trkpt lat="45.21109" lon="5.90004">
        <ele>777</ele>
        <time>2000-01-01T06:10:42.000Z</time>
      </trkpt>
      <trkpt lat="45.21103" lon="5.89998">
        <ele>777.5</ele>
        <time>2000-01-01T06:10:52.000Z</time>
      </trkpt>
      <trkpt lat="45.21091" lon="5.89992">
        <ele>775</ele>
        <time>2000-01-01T06:11:02.000Z</time>
      </trkpt>
      <trkpt lat="45.2105" lon="5.89982">
        <ele>774</ele>
        <time>2000-01-01T06:11:12.000Z</time>
      </trkpt>
      <trkpt lat="45.2104" lon="5.89976">
        <ele>773</ele>
        <time>2000-01-01T06:11:22.000Z</time>
      </trkpt>
      <trkpt lat="45.21038" lon="5.89971">
        <ele>772.2</ele>
        <time>2000-01-01T06:11:32.000Z</time>
      </trkpt>
      <trkpt lat="45.21036" lon="5.89954">
        <ele>769</ele>
        <time>2000-01-01T06:11:42.000Z</time>
      </trkpt>
      <trkpt lat="45.21037" lon="5.89946">
        <ele>769.2</ele>
        <time>2000-01-01T06:11:52.000Z</time>
      </trkpt>
      <trkpt lat="45.21042" lon="5.89938">
        <ele>768.4</ele>
        <time>2000-01-01T06:12:02.000Z</time>
      </trkpt>
      <trkpt lat="45.21055" lon="5.89926">
        <ele>766</ele>
        <time>2000-01-01T06:12:12.000Z</time>
      </trkpt>
      <trkpt lat="45.21068" lon="5.8992">
        <ele>765.9</ele>
        <time>2000-01-01T06:12:22.000Z</time>
      </trkpt>
      <trkpt lat="45.21091" lon="5.89901">
        <ele>763</ele>
        <time>2000-01-01T06:12:32.000Z</time>
      </trkpt>
      <trkpt lat="45.21097" lon="5.89911">
        <ele>763.6</ele>
        <time>2000-01-01T06:12:42.000Z</time>
      </trkpt>
      <trkpt lat="45.21108" lon="5.89782">
        <ele>754</ele>
        <time>2000-01-01T06:12:52.000Z</time>
      </trkpt>
      <trkpt lat="45.21109" lon="5.89742">
        <ele>749</ele>
        <time>2000-01-01T06:13:02.000Z</time>
      </trkpt>
      <trkpt lat="45.21092" lon="5.89715">
        <ele>744</ele>
        <time>2000-01-01T06:13:12.000Z</time>
      </trkpt>
      <trkpt lat="45.21072" lon="5.89685">
        <ele>740</ele>
        <time>2000-01-01T06:13:22.000Z</time>
      </trkpt>
      <trkpt lat="45.21076" lon="5.89649">
        <ele>740</ele>
        <time>2000-01-01T06:13:32.000Z</time>
      </trkpt>
      <trkpt lat="45.21097" lon="5.89625">
        <ele>737</ele>
        <time>2000-01-01T06:13:42.000Z</time>
      </trkpt>
      <trkpt lat="45.21125" lon="5.89592">
        <ele>735</ele>
        <time>2000-01-01T06:13:52.000Z</time>
      </trkpt>
      <trkpt lat="45.21146" lon="5.89554">
        <ele>734</ele>
        <time>2000-01-01T06:14:02.000Z</time>
      </trkpt>
      <trkpt lat="45.21167" lon="5.89517">
        <ele>734</ele>
        <time>2000-01-01T06:14:12.000Z</time>
      </trkpt>
      <trkpt lat="45.21199" lon="5.8946">
        <ele>733</ele>
        <time>2000-01-01T06:14:22.000Z</time>
      </trkpt>
      <trkpt lat="45.21235" lon="5.89443">
        <ele>729</ele>
        <time>2000-01-01T06:14:32.000Z</time>
      </trkpt>
      <trkpt lat="45.21271" lon="5.89427">
        <ele>728</ele>
        <time>2000-01-01T06:14:42.000Z</time>
      </trkpt>
      <trkpt lat="45.21307" lon="5.8941">
        <ele>728</ele>
        <time>2000-01-01T06:14:52.000Z</time>
      </trkpt>
      <trkpt lat="45.21377" lon="5.89378">
        <ele>728</ele>
        <time>2000-01-01T06:15:02.000Z</time>
      </trkpt>
      <trkpt lat="45.21397" lon="5.89348">
        <ele>728</ele>
        <time>2000-01-01T06:15:12.000Z</time>
      </trkpt>
      <trkpt lat="45.21429" lon="5.89302">
        <ele>728</ele>
        <time>2000-01-01T06:15:22.000Z</time>
      </trkpt>
      <trkpt lat="45.21435" lon="5.893">
        <ele>727.7</ele>
        <time>2000-01-01T06:15:32.000Z</time>
      </trkpt>
      <trkpt lat="45.21447" lon="5.893">
        <ele>726.7</ele>
        <time>2000-01-01T06:15:42.000Z</time>
      </trkpt>
      <trkpt lat="45.21491" lon="5.89313">
        <ele>722</ele>
        <time>2000-01-01T06:15:52.000Z</time>
      </trkpt>
      <trkpt lat="45.21517" lon="5.89312">
        <ele>720</ele>
        <time>2000-01-01T06:16:02.000Z</time>
      </trkpt>
      <trkpt lat="45.21546" lon="5.89329">
        <ele>715</ele>
        <time>2000-01-01T06:16:12.000Z</time>
      </trkpt>
      <trkpt lat="45.21553" lon="5.89328">
        <ele>713.1</ele>
        <time>2000-01-01T06:16:22.000Z</time>
      </trkpt>
      <trkpt lat="45.21556" lon="5.8933">
        <ele>712.4</ele>
        <time>2000-01-01T06:16:32.000Z</time>
      </trkpt>
      <trkpt lat="45.21573" lon="5.89324">
        <ele>711</ele>
        <time>2000-01-01T06:16:42.000Z</time>
      </trkpt>
      <trkpt lat="45.21589" lon="5.89311">
        <ele>710</ele>
        <time>2000-01-01T06:16:52.000Z</time>
      </trkpt>
      <trkpt lat="45.21603" lon="5.8931">
        <ele>707</ele>
        <time>2000-01-01T06:17:02.000Z</time>
      </trkpt>
      <trkpt lat="45.21621" lon="5.89301">
        <ele>706</ele>
        <time>2000-01-01T06:17:12.000Z</time>
      </trkpt>
      <trkpt lat="45.21641" lon="5.89301">
        <ele>702</ele>
        <time>2000-01-01T06:17:22.000Z</time>
      </trkpt>
      <trkpt lat="45.2165" lon="5.89304">
        <ele>699.8</ele>
        <time>2000-01-01T06:17:32.000Z</time>
      </trkpt>
      <trkpt lat="45.21677" lon="5.89287">
        <ele>699</ele>
        <time>2000-01-01T06:17:42.000Z</time>
      </trkpt>
      <trkpt lat="45.21696" lon="5.89284">
        <ele>695</ele>
        <time>2000-01-01T06:17:52.000Z</time>
      </trkpt>
      <trkpt lat="45.21718" lon="5.89285">
        <ele>691</ele>
        <time>2000-01-01T06:18:02.000Z</time>
      </trkpt>
      <trkpt lat="45.21721" lon="5.89287">
        <ele>688.3</ele>
        <time>2000-01-01T06:18:12.000Z</time>
      </trkpt>
      <trkpt lat="45.21745" lon="5.89287">
        <ele>685</ele>
        <time>2000-01-01T06:18:22.000Z</time>
      </trkpt>
      <trkpt lat="45.21765" lon="5.89291">
        <ele>678</ele>
        <time>2000-01-01T06:18:32.000Z</time>
      </trkpt>
      <trkpt lat="45.21794" lon="5.89313">
        <ele>669</ele>
        <time>2000-01-01T06:18:42.000Z</time>
      </trkpt>
      <trkpt lat="45.21818" lon="5.89323">
        <ele>666</ele>
        <time>2000-01-01T06:18:52.000Z</time>
      </trkpt>
      <trkpt lat="45.21858" lon="5.89322">
        <ele>664</ele>
        <time>2000-01-01T06:19:02.000Z</time>
      </trkpt>
      <trkpt lat="45.21871" lon="5.89321">
        <ele>661.8</ele>
        <time>2000-01-01T06:19:12.000Z</time>
      </trkpt>
      <trkpt lat="45.21894" lon="5.89303">
        <ele>663</ele>
        <time>2000-01-01T06:19:22.000Z</time>
      </trkpt>
      <trkpt lat="45.21919" lon="5.89289">
        <ele>663</ele>
        <time>2000-01-01T06:19:32.000Z</time>
      </trkpt>
      <trkpt lat="45.2195" lon="5.89286">
        <ele>661</ele>
        <time>2000-01-01T06:19:42.000Z</time>
      </trkpt>
      <trkpt lat="45.21963" lon="5.89287">
        <ele>660.1</ele>
        <time>2000-01-01T06:19:52.000Z</time>
      </trkpt>
      <trkpt lat="45.21991" lon="5.89282">
        <ele>659</ele>
        <time>2000-01-01T06:20:02.000Z</time>
      </trkpt>
      <trkpt lat="45.22008" lon="5.89285">
        <ele>658.3</ele>
        <time>2000-01-01T06:20:12.000Z</time>
      </trkpt>
      <trkpt lat="45.22022" lon="5.89293">
        <ele>656</ele>
        <time>2000-01-01T06:20:22.000Z</time>
      </trkpt>
      <trkpt lat="45.22034" lon="5.89306">
        <ele>652.2</ele>
        <time>2000-01-01T06:20:32.000Z</time>
      </trkpt>
      <trkpt lat="45.22053" lon="5.89312">
        <ele>653</ele>
        <time>2000-01-01T06:20:42.000Z</time>
      </trkpt>
      <trkpt lat="45.2208" lon="5.89306">
        <ele>650</ele>
        <time>2000-01-01T06:20:52.000Z</time>
      </trkpt>
      <trkpt lat="45.22115" lon="5.89299">
        <ele>645</ele>
        <time>2000-01-01T06:21:02.000Z</time>
      </trkpt>
      <trkpt lat="45.22134" lon="5.89299">
        <ele>643</ele>
        <time>2000-01-01T06:21:12.000Z</time>
      </trkpt>
      <trkpt lat="45.22157" lon="5.89292">
        <ele>639</ele>
        <time>2000-01-01T06:21:22.000Z</time>
      </trkpt>
      <trkpt lat="45.22181" lon="5.89286">
        <ele>635</ele>
        <time>2000-01-01T06:21:32.000Z</time>
      </trkpt>
      <trkpt lat="45.22192" lon="5.8928">
        <ele>633</ele>
        <time>2000-01-01T06:21:42.000Z</time>
      </trkpt>
      <trkpt lat="45.22214" lon="5.89258">
        <ele>633</ele>
        <time>2000-01-01T06:21:52.000Z</time>
      </trkpt>
      <trkpt lat="45.22231" lon="5.89245">
        <ele>631</ele>
        <time>2000-01-01T06:22:02.000Z</time>
      </trkpt>
      <trkpt lat="45.22246" lon="5.89221">
        <ele>631</ele>
        <time>2000-01-01T06:22:12.000Z</time>
      </trkpt>
      <trkpt lat="45.2229" lon="5.89198">
        <ele>625</ele>
        <time>2000-01-01T06:22:22.000Z</time>
      </trkpt>
      <trkpt lat="45.22302" lon="5.89195">
        <ele>622.5</ele>
        <time>2000-01-01T06:22:32.000Z</time>
      </trkpt>
      <trkpt lat="45.22343" lon="5.89189">
        <ele>621</ele>
        <time>2000-01-01T06:22:42.000Z</time>
      </trkpt>
      <trkpt lat="45.22368" lon="5.89195">
        <ele>617</ele>
        <time>2000-01-01T06:22:52.000Z</time>
      </trkpt>
      <trkpt lat="45.22396" lon="5.89201">
        <ele>613</ele>
        <time>2000-01-01T06:23:02.000Z</time>
      </trkpt>
      <trkpt lat="45.22421" lon="5.89202">
        <ele>612</ele>
        <time>2000-01-01T06:23:12.000Z</time>
      </trkpt>
      <trkpt lat="45.22449" lon="5.89204">
        <ele>612</ele>
        <time>2000-01-01T06:23:22.000Z</time>
      </trkpt>
      <trkpt lat="45.22466" lon="5.89212">
        <ele>609.1</ele>
        <time>2000-01-01T06:23:32.000Z</time>
      </trkpt>
      <trkpt lat="45.22531" lon="5.89227">
        <ele>608</ele>
        <time>2000-01-01T06:23:42.000Z</time>
      </trkpt>
      <trkpt lat="45.22559" lon="5.89237">
        <ele>603</ele>
        <time>2000-01-01T06:23:52.000Z</time>
      </trkpt>
      <trkpt lat="45.22588" lon="5.8924">
        <ele>603</ele>
        <time>2000-01-01T06:24:02.000Z</time>
      </trkpt>
      <trkpt lat="45.226" lon="5.89236">
        <ele>593.7</ele>
        <time>2000-01-01T06:24:12.000Z</time>
      </trkpt>
      <trkpt lat="45.22628" lon="5.89219">
        <ele>603</ele>
        <time>2000-01-01T06:24:22.000Z</time>
      </trkpt>
      <trkpt lat="45.22641" lon="5.89215">
        <ele>595.6</ele>
        <time>2000-01-01T06:24:32.000Z</time>
      </trkpt>
      <trkpt lat="45.22662" lon="5.89215">
        <ele>593</ele>
        <time>2000-01-01T06:24:42.000Z</time>
      </trkpt>
      <trkpt lat="45.22689" lon="5.89206">
        <ele>592</ele>
        <time>2000-01-01T06:24:52.000Z</time>
      </trkpt>
      <trkpt lat="45.2273" lon="5.89192">
        <ele>587</ele>
        <time>2000-01-01T06:25:02.000Z</time>
      </trkpt>
      <trkpt lat="45.22736" lon="5.89187">
        <ele>580.5</ele>
        <time>2000-01-01T06:25:12.000Z</time>
      </trkpt>
      <trkpt lat="45.22765" lon="5.89132">
        <ele>583</ele>
        <time>2000-01-01T06:25:22.000Z</time>
      </trkpt>
      <trkpt lat="45.22799" lon="5.89109">
        <ele>573</ele>
        <time>2000-01-01T06:25:32.000Z</time>
      </trkpt>
      <trkpt lat="45.22809" lon="5.89099">
        <ele>564.4</ele>
        <time>2000-01-01T06:25:42.000Z</time>
      </trkpt>
      <trkpt lat="45.22813" lon="5.89091">
        <ele>569</ele>
        <time>2000-01-01T06:25:52.000Z</time>
      </trkpt>
      <trkpt lat="45.22812" lon="5.89066">
        <ele>561</ele>
        <time>2000-01-01T06:26:02.000Z</time>
      </trkpt>
      <trkpt lat="45.22803" lon="5.89057">
        <ele>565</ele>
        <time>2000-01-01T06:26:12.000Z</time>
      </trkpt>
      <trkpt lat="45.22791" lon="5.89031">
        <ele>563</ele>
        <time>2000-01-01T06:26:22.000Z</time>
      </trkpt>
      <trkpt lat="45.22772" lon="5.89009">
        <ele>562</ele>
        <time>2000-01-01T06:26:32.000Z</time>
      </trkpt>
      <trkpt lat="45.22764" lon="5.88994">
        <ele>563.4</ele>
        <time>2000-01-01T06:26:42.000Z</time>
      </trkpt>
      <trkpt lat="45.22743" lon="5.88941">
        <ele>546</ele>
        <time>2000-01-01T06:26:52.000Z</time>
      </trkpt>
      <trkpt lat="45.22723" lon="5.88916">
        <ele>537</ele>
        <time>2000-01-01T06:27:02.000Z</time>
      </trkpt>
      <trkpt lat="45.2272" lon="5.889">
        <ele>533.9</ele>
        <time>2000-01-01T06:27:12.000Z</time>
      </trkpt>
      <trkpt lat="45.2271" lon="5.8888">
        <ele>526</ele>
        <time>2000-01-01T06:27:22.000Z</time>
      </trkpt>
      <trkpt lat="45.22706" lon="5.88866">
        <ele>521.9</ele>
        <time>2000-01-01T06:27:32.000Z</time>
      </trkpt>
      <trkpt lat="45.22686" lon="5.88842">
        <ele>520</ele>
        <time>2000-01-01T06:27:42.000Z</time>
      </trkpt>
      <trkpt lat="45.22678" lon="5.88828">
        <ele>515.4</ele>
        <time>2000-01-01T06:27:52.000Z</time>
      </trkpt>
      <trkpt lat="45.22642" lon="5.88791">
        <ele>516</ele>
        <time>2000-01-01T06:28:02.000Z</time>
      </trkpt>
      <trkpt lat="45.22625" lon="5.88762">
        <ele>510</ele>
        <time>2000-01-01T06:28:12.000Z</time>
      </trkpt>
      <trkpt lat="45.22602" lon="5.88724">
        <ele>499</ele>
        <time>2000-01-01T06:28:22.000Z</time>
      </trkpt>
      <trkpt lat="45.22594" lon="5.88704">
        <ele>497.4</ele>
        <time>2000-01-01T06:28:32.000Z</time>
      </trkpt>
      <trkpt lat="45.22571" lon="5.88672">
        <ele>494</ele>
        <time>2000-01-01T06:28:42.000Z</time>
      </trkpt>
      <trkpt lat="45.22551" lon="5.88637">
        <ele>491</ele>
        <time>2000-01-01T06:28:52.000Z</time>
      </trkpt>
      <trkpt lat="45.2252" lon="5.88612">
        <ele>489</ele>
        <time>2000-01-01T06:29:02.000Z</time>
      </trkpt>
      <trkpt lat="45.22498" lon="5.88581">
        <ele>487</ele>
        <time>2000-01-01T06:29:12.000Z</time>
      </trkpt>
      <trkpt lat="45.22477" lon="5.88562">
        <ele>487</ele>
        <time>2000-01-01T06:29:22.000Z</time>
      </trkpt>
      <trkpt lat="45.22457" lon="5.88525">
        <ele>479</ele>
        <time>2000-01-01T06:29:32.000Z</time>
      </trkpt>
      <trkpt lat="45.22453" lon="5.88482">
        <ele>466</ele>
        <time>2000-01-01T06:29:42.000Z</time>
      </trkpt>
      <trkpt lat="45.22472" lon="5.88506">
        <ele>466</ele>
        <time>2000-01-01T06:29:52.000Z</time>
      </trkpt>
      <trkpt lat="45.22494" lon="5.88535">
        <ele>466</ele>
        <time>2000-01-01T06:30:02.000Z</time>
      </trkpt>
      <trkpt lat="45.22528" lon="5.88569">
        <ele>464</ele>
        <time>2000-01-01T06:30:12.000Z</time>
      </trkpt>
      <trkpt lat="45.22558" lon="5.88578">
        <ele>464</ele>
        <time>2000-01-01T06:30:22.000Z</time>
      </trkpt>
      <trkpt lat="45.22593" lon="5.88595">
        <ele>464</ele>
        <time>2000-01-01T06:30:32.000Z</time>
      </trkpt>
      <trkpt lat="45.2262" lon="5.88621">
        <ele>463</ele>
        <time>2000-01-01T06:30:42.000Z</time>
      </trkpt>
      <trkpt lat="45.22648" lon="5.88646">
        <ele>463</ele>
        <time>2000-01-01T06:30:52.000Z</time>
      </trkpt>
      <trkpt lat="45.22682" lon="5.88678">
        <ele>462</ele>
        <time>2000-01-01T06:31:02.000Z</time>
      </trkpt>
      <trkpt lat="45.22704" lon="5.88694">
        <ele>462</ele>
        <time>2000-01-01T06:31:12.000Z</time>
      </trkpt>
      <trkpt lat="45.22728" lon="5.88711">
        <ele>462</ele>
        <time>2000-01-01T06:31:22.000Z</time>
      </trkpt>
      <trkpt lat="45.22754" lon="5.88737">
        <ele>460</ele>
        <time>2000-01-01T06:31:32.000Z</time>
      </trkpt>
      <trkpt lat="45.2278" lon="5.88763">
        <ele>460</ele>
        <time>2000-01-01T06:31:42.000Z</time>
      </trkpt>
      <trkpt lat="45.22809" lon="5.88792">
        <ele>461</ele>
        <time>2000-01-01T06:31:52.000Z</time>
      </trkpt>
      <trkpt lat="45.22833" lon="5.88805">
        <ele>462</ele>
        <time>2000-01-01T06:32:02.000Z</time>
      </trkpt>
      <trkpt lat="45.2286" lon="5.88821">
        <ele>452</ele>
        <time>2000-01-01T06:32:12.000Z</time>
      </trkpt>
      <trkpt lat="45.22885" lon="5.88787">
        <ele>442</ele>
        <time>2000-01-01T06:32:22.000Z</time>
      </trkpt>
      <trkpt lat="45.229" lon="5.88745">
        <ele>429</ele>
        <time>2000-01-01T06:32:32.000Z</time>
      </trkpt>
      <trkpt lat="45.22905" lon="5.88702">
        <ele>424</ele>
        <time>2000-01-01T06:32:42.000Z</time>
      </trkpt>
      <trkpt lat="45.2288" lon="5.88689">
        <ele>423</ele>
        <time>2000-01-01T06:32:52.000Z</time>
      </trkpt>
      <trkpt lat="45.22846" lon="5.88673">
        <ele>423</ele>
        <time>2000-01-01T06:33:02.000Z</time>
      </trkpt>
      <trkpt lat="45.22838" lon="5.88666">
        <ele>423</ele>
        <time>2000-01-01T06:33:12.000Z</time>
      </trkpt>
      <trkpt lat="45.2282" lon="5.88633">
        <ele>420</ele>
        <time>2000-01-01T06:33:22.000Z</time>
      </trkpt>
      <trkpt lat="45.22809" lon="5.88595">
        <ele>414</ele>
        <time>2000-01-01T06:33:32.000Z</time>
      </trkpt>
      <trkpt lat="45.22802" lon="5.88554">
        <ele>403</ele>
        <time>2000-01-01T06:33:42.000Z</time>
      </trkpt>
      <trkpt lat="45.22791" lon="5.88517">
        <ele>391</ele>
        <time>2000-01-01T06:33:52.000Z</time>
      </trkpt>
      <trkpt lat="45.22777" lon="5.88498">
        <ele>389</ele>
        <time>2000-01-01T06:34:02.000Z</time>
      </trkpt>
      <trkpt lat="45.22753" lon="5.88452">
        <ele>374</ele>
        <time>2000-01-01T06:34:12.000Z</time>
      </trkpt>
      <trkpt lat="45.22749" lon="5.8844">
        <ele>371.3</ele>
        <time>2000-01-01T06:34:22.000Z</time>
      </trkpt>
      <trkpt lat="45.22742" lon="5.88432">
        <ele>369.2</ele>
        <time>2000-01-01T06:34:32.000Z</time>
      </trkpt>
      <trkpt lat="45.22732" lon="5.88407">
        <ele>359</ele>
        <time>2000-01-01T06:34:42.000Z</time>
      </trkpt>
      <trkpt lat="45.22729" lon="5.88394">
        <ele>357.2</ele>
        <time>2000-01-01T06:34:52.000Z</time>
      </trkpt>
      <trkpt lat="45.22742" lon="5.88373">
        <ele>346</ele>
        <time>2000-01-01T06:35:02.000Z</time>
      </trkpt>
      <trkpt lat="45.2276" lon="5.88362">
        <ele>336</ele>
        <time>2000-01-01T06:35:12.000Z</time>
      </trkpt>
      <trkpt lat="45.2277" lon="5.88367">
        <ele>337.1</ele>
        <time>2000-01-01T06:35:22.000Z</time>
      </trkpt>
      <trkpt lat="45.2278" lon="5.88364">
        <ele>331</ele>
        <time>2000-01-01T06:35:32.000Z</time>
      </trkpt>
      <trkpt lat="45.22789" lon="5.88368">
        <ele>332.7</ele>
        <time>2000-01-01T06:35:42.000Z</time>
      </trkpt>
      <trkpt lat="45.22799" lon="5.88367">
        <ele>329</ele>
        <time>2000-01-01T06:35:52.000Z</time>
      </trkpt>
      <trkpt lat="45.22808" lon="5.88371">
        <ele>329</ele>
        <time>2000-01-01T06:36:02.000Z</time>
      </trkpt>
      <trkpt lat="45.22828" lon="5.88371">
        <ele>326</ele>
        <time>2000-01-01T06:36:12.000Z</time>
      </trkpt>
      <trkpt lat="45.22855" lon="5.88379">
        <ele>318</ele>
        <time>2000-01-01T06:36:22.000Z</time>
      </trkpt>
      <trkpt lat="45.22865" lon="5.88379">
        <ele>317.1</ele>
        <time>2000-01-01T06:36:32.000Z</time>
      </trkpt>
      <trkpt lat="45.22874" lon="5.88385">
        <ele>315</ele>
        <time>2000-01-01T06:36:42.000Z</time>
      </trkpt>
      <trkpt lat="45.22883" lon="5.88387">
        <ele>314.2</ele>
        <time>2000-01-01T06:36:52.000Z</time>
      </trkpt>
      <trkpt lat="45.22892" lon="5.88384">
        <ele>309.8</ele>
        <time>2000-01-01T06:37:02.000Z</time>
      </trkpt>
      <trkpt lat="45.22903" lon="5.88385">
        <ele>304</ele>
        <time>2000-01-01T06:37:12.000Z</time>
      </trkpt>
      <trkpt lat="45.22912" lon="5.88383">
        <ele>301.5</ele>
        <time>2000-01-01T06:37:22.000Z</time>
      </trkpt>
      <trkpt lat="45.22922" lon="5.88386">
        <ele>297</ele>
        <time>2000-01-01T06:37:32.000Z</time>
      </trkpt>
      <trkpt lat="45.22953" lon="5.88402">
        <ele>291</ele>
        <time>2000-01-01T06:37:42.000Z</time>
      </trkpt>
      <trkpt lat="45.22979" lon="5.88422">
        <ele>287</ele>
        <time>2000-01-01T06:37:52.000Z</time>
      </trkpt>
      <trkpt lat="45.22989" lon="5.88425">
        <ele>281.4</ele>
        <time>2000-01-01T06:38:02.000Z</time>
      </trkpt>
      <trkpt lat="45.23008" lon="5.88417">
        <ele>270</ele>
        <time>2000-01-01T06:38:12.000Z</time>
      </trkpt>
      <trkpt lat="45.23017" lon="5.88419">
        <ele>266.5</ele>
        <time>2000-01-01T06:38:22.000Z</time>
      </trkpt>
      <trkpt lat="45.23044" lon="5.88433">
        <ele>262</ele>
        <time>2000-01-01T06:38:32.000Z</time>
      </trkpt>
      <trkpt lat="45.2306" lon="5.88449">
        <ele>260</ele>
        <time>2000-01-01T06:38:42.000Z</time>
      </trkpt>
      <trkpt lat="45.2307" lon="5.88455">
        <ele>260.2</ele>
        <time>2000-01-01T06:38:52.000Z</time>
      </trkpt>
      <trkpt lat="45.2309" lon="5.8846">
        <ele>258</ele>
        <time>2000-01-01T06:39:02.000Z</time>
      </trkpt>
      <trkpt lat="45.231" lon="5.88467">
        <ele>255.5</ele>
        <time>2000-01-01T06:39:12.000Z</time>
      </trkpt>
      <trkpt lat="45.2312" lon="5.88472">
        <ele>253</ele>
        <time>2000-01-01T06:39:22.000Z</time>
      </trkpt>
      <trkpt lat="45.2315" lon="5.88473">
        <ele>247</ele>
        <time>2000-01-01T06:39:32.000Z</time>
      </trkpt>
      <trkpt lat="45.23156" lon="5.88483">
        <ele>248.2</ele>
        <time>2000-01-01T06:39:42.000Z</time>
      </trkpt>
      <trkpt lat="45.23159" lon="5.88495">
        <ele>248.9</ele>
        <time>2000-01-01T06:39:52.000Z</time>
      </trkpt>
      <trkpt lat="45.23279" lon="5.88544">
        <ele>246</ele>
        <time>2000-01-01T06:40:02.000Z</time>
      </trkpt>
      <trkpt lat="45.23291" lon="5.88518">
        <ele>244</ele>
        <time>2000-01-01T06:40:12.000Z</time>
      </trkpt>
      <trkpt lat="45.23291" lon="5.88488">
        <ele>243</ele>
        <time>2000-01-01T06:40:22.000Z</time>
      </trkpt>
      <trkpt lat="45.23283" lon="5.88463">
        <ele>242</ele>
        <time>2000-01-01T06:40:32.000Z</time>
      </trkpt>
      <trkpt lat="45.2328" lon="5.88437">
        <ele>240.4</ele>
        <time>2000-01-01T06:40:42.000Z</time>
      </trkpt>
      <trkpt lat="45.23281" lon="5.88408">
        <ele>239</ele>
        <time>2000-01-01T06:40:52.000Z</time>
      </trkpt>
      <trkpt lat="45.23265" lon="5.8837">
        <ele>237</ele>
        <time>2000-01-01T06:41:02.000Z</time>
      </trkpt>
      <trkpt lat="45.23239" lon="5.88318">
        <ele>235</ele>
        <time>2000-01-01T06:41:12.000Z</time>
      </trkpt>
      <trkpt lat="45.23234" lon="5.88288">
        <ele>235</ele>
        <time>2000-01-01T06:41:22.000Z</time>
      </trkpt>
      <trkpt lat="45.23229" lon="5.88276">
        <ele>234.9</ele>
        <time>2000-01-01T06:41:32.000Z</time>
      </trkpt>
      <trkpt lat="45.23163" lon="5.88247">
        <ele>234</ele>
        <time>2000-01-01T06:41:42.000Z</time>
      </trkpt>
      <trkpt lat="45.23143" lon="5.88231">
        <ele>233</ele>
        <time>2000-01-01T06:41:52.000Z</time>
      </trkpt>
      <trkpt lat="45.23117" lon="5.88206">
        <ele>232</ele>
        <time>2000-01-01T06:42:02.000Z</time>
      </trkpt>
      <trkpt lat="45.2309" lon="5.88181">
        <ele>231</ele>
        <time>2000-01-01T06:42:12.000Z</time>
      </trkpt>
      <trkpt lat="45.23063" lon="5.88155">
        <ele>230</ele>
        <time>2000-01-01T06:42:22.000Z</time>
      </trkpt>
      <trkpt lat="45.23064" lon="5.88141">
        <ele>230.4</ele>
        <time>2000-01-01T06:42:32.000Z</time>
      </trkpt>
      <trkpt lat="45.23083" lon="5.88116">
        <ele>229</ele>
        <time>2000-01-01T06:42:42.000Z</time>
      </trkpt>
      <trkpt lat="45.23104" lon="5.88076">
        <ele>229</ele>
        <time>2000-01-01T06:42:52.000Z</time>
      </trkpt>
      <trkpt lat="45.23125" lon="5.88037">
        <ele>228</ele>
        <time>2000-01-01T06:43:02.000Z</time>
      </trkpt>
      <trkpt lat="45.23161" lon="5.87968">
        <ele>227</ele>
        <time>2000-01-01T06:43:12.000Z</time>
      </trkpt>
      <trkpt lat="45.23164" lon="5.87954">
        <ele>228</ele>
        <time>2000-01-01T06:43:22.000Z</time>
      </trkpt>
      <trkpt lat="45.23154" lon="5.87946">
        <ele>227</ele>
        <time>2000-01-01T06:43:32.000Z</time>
      </trkpt>
      <trkpt lat="45.23154" lon="5.87931">
        <ele>227.5</ele>
        <time>2000-01-01T06:43:42.000Z</time>
      </trkpt>
      <trkpt lat="45.23181" lon="5.87884">
        <ele>226</ele>
        <time>2000-01-01T06:43:52.000Z</time>
      </trkpt>
      <trkpt lat="45.23198" lon="5.87864">
        <ele>225</ele>
        <time>2000-01-01T06:44:02.000Z</time>
      </trkpt>
      <trkpt lat="45.23228" lon="5.87835">
        <ele>225</ele>
        <time>2000-01-01T06:44:12.000Z</time>
      </trkpt>
      <trkpt lat="45.23238" lon="5.87832">
        <ele>225.6</ele>
        <time>2000-01-01T06:44:22.000Z</time>
      </trkpt>
      <trkpt lat="45.23245" lon="5.87844">
        <ele>225</ele>
        <time>2000-01-01T06:44:32.000Z</time>
      </trkpt>
      <trkpt lat="45.23243" lon="5.87832">
        <ele>225.7</ele>
        <time>2000-01-01T06:44:42.000Z</time>
      </trkpt>
      <trkpt lat="45.23278" lon="5.87788">
        <ele>225</ele>
        <time>2000-01-01T06:44:52.000Z</time>
      </trkpt>
      <trkpt lat="45.23291" lon="5.8781">
        <ele>225</ele>
        <time>2000-01-01T06:45:02.000Z</time>
      </trkpt>
      <trkpt lat="45.23279" lon="5.87789">
        <ele>225</ele>
        <time>2000-01-01T06:45:12.000Z</time>
      </trkpt>
      <trkpt lat="45.2328" lon="5.87774">
        <ele>225.7</ele>
        <time>2000-01-01T06:45:22.000Z</time>
      </trkpt>
      <trkpt lat="45.23295" lon="5.87748">
        <ele>224</ele>
        <time>2000-01-01T06:45:32.000Z</time>
      </trkpt>
      <trkpt lat="45.23308" lon="5.87717">
        <ele>223</ele>
        <time>2000-01-01T06:45:42.000Z</time>
      </trkpt>
      <trkpt lat="45.23324" lon="5.87682">
        <ele>222</ele>
        <time>2000-01-01T06:45:52.000Z</time>
      </trkpt>
      <trkpt lat="45.23307" lon="5.8764">
        <ele>222</ele>
        <time>2000-01-01T06:46:02.000Z</time>
      </trkpt>
      <trkpt lat="45.2329" lon="5.87597">
        <ele>222</ele>
        <time>2000-01-01T06:46:12.000Z</time>
      </trkpt>
      <trkpt lat="45.23261" lon="5.87527">
        <ele>222</ele>
        <time>2000-01-01T06:46:22.000Z</time>
      </trkpt>
      <trkpt lat="45.23251" lon="5.87515">
        <ele>222</ele>
        <time>2000-01-01T06:46:32.000Z</time>
      </trkpt>
      <trkpt lat="45.2324" lon="5.87509">
        <ele>222</ele>
        <time>2000-01-01T06:46:42.000Z</time>
      </trkpt>
      <trkpt lat="45.23215" lon="5.87502">
        <ele>221</ele>
        <time>2000-01-01T06:46:52.000Z</time>
      </trkpt>
      <trkpt lat="45.23178" lon="5.87486">
        <ele>221</ele>
        <time>2000-01-01T06:47:02.000Z</time>
      </trkpt>
      <trkpt lat="45.23175" lon="5.87473">
        <ele>222</ele>
        <time>2000-01-01T06:47:12.000Z</time>
      </trkpt>
      <trkpt lat="45.23185" lon="5.8742">
        <ele>221</ele>
        <time>2000-01-01T06:47:22.000Z</time>
      </trkpt>
      <trkpt lat="45.23186" lon="5.87401">
        <ele>222</ele>
        <time>2000-01-01T06:47:32.000Z</time>
      </trkpt>
      <trkpt lat="45.23182" lon="5.87384">
        <ele>221</ele>
        <time>2000-01-01T06:47:42.000Z</time>
      </trkpt>
      <trkpt lat="45.23147" lon="5.87354">
        <ele>221</ele>
        <time>2000-01-01T06:47:52.000Z</time>
      </trkpt>
      <trkpt lat="45.2314" lon="5.87342">
        <ele>222</ele>
        <time>2000-01-01T06:48:02.000Z</time>
      </trkpt>
      <trkpt lat="45.23137" lon="5.87326">
        <ele>221</ele>
        <time>2000-01-01T06:48:12.000Z</time>
      </trkpt>
      <trkpt lat="45.23137" lon="5.87283">
        <ele>221</ele>
        <time>2000-01-01T06:48:22.000Z</time>
      </trkpt>
      <trkpt lat="45.23136" lon="5.8721">
        <ele>222</ele>
        <time>2000-01-01T06:48:32.000Z</time>
      </trkpt>
      <trkpt lat="45.23129" lon="5.87165">
        <ele>222</ele>
        <time>2000-01-01T06:48:42.000Z</time>
      </trkpt>
      <trkpt lat="45.23128" lon="5.87126">
        <ele>222</ele>
        <time>2000-01-01T06:48:52.000Z</time>
      </trkpt>
      <trkpt lat="45.23127" lon="5.87073">
        <ele>221</ele>
        <time>2000-01-01T06:49:02.000Z</time>
      </trkpt>
      <trkpt lat="45.23129" lon="5.87059">
        <ele>222</ele>
        <time>2000-01-01T06:49:12.000Z</time>
      </trkpt>
      <trkpt lat="45.23202" lon="5.86919">
        <ele>221</ele>
        <time>2000-01-01T06:49:22.000Z</time>
      </trkpt>
      <trkpt lat="45.23209" lon="5.86908">
        <ele>222</ele>
        <time>2000-01-01T06:49:32.000Z</time>
      </trkpt>
      <trkpt lat="45.23217" lon="5.86912">
        <ele>222</ele>
        <time>2000-01-01T06:49:42.000Z</time>
      </trkpt>
      <trkpt lat="45.23226" lon="5.86905">
        <ele>221</ele>
        <time>2000-01-01T06:49:52.000Z</time>
      </trkpt>
      <trkpt lat="45.23247" lon="5.86867">
        <ele>222</ele>
        <time>2000-01-01T06:50:02.000Z</time>
      </trkpt>
      <trkpt lat="45.23269" lon="5.86829">
        <ele>222</ele>
        <time>2000-01-01T06:50:12.000Z</time>
      </trkpt>
      <trkpt lat="45.23303" lon="5.86767">
        <ele>221</ele>
        <time>2000-01-01T06:50:22.000Z</time>
      </trkpt>
      <trkpt lat="45.23324" lon="5.86736">
        <ele>221</ele>
        <time>2000-01-01T06:50:32.000Z</time>
      </trkpt>
      <trkpt lat="45.23336" lon="5.86713">
        <ele>221</ele>
        <time>2000-01-01T06:50:42.000Z</time>
      </trkpt>
      <trkpt lat="45.23345" lon="5.86703">
        <ele>222</ele>
        <time>2000-01-01T06:50:52.000Z</time>
      </trkpt>
      <trkpt lat="45.23339" lon="5.86691">
        <ele>221</ele>
        <time>2000-01-01T06:51:02.000Z</time>
      </trkpt>
      <trkpt lat="45.23327" lon="5.86685">
        <ele>221.8</ele>
        <time>2000-01-01T06:51:12.000Z</time>
      </trkpt>
      <trkpt lat="45.2333" lon="5.86687">
        <ele>221.9</ele>
        <time>2000-01-01T06:51:22.000Z</time>
      </trkpt>
      <trkpt lat="45.23306" lon="5.86661">
        <ele>221</ele>
        <time>2000-01-01T06:51:32.000Z</time>
      </trkpt>
      <trkpt lat="45.233" lon="5.86646">
        <ele>221.8</ele>
        <time>2000-01-01T06:51:42.000Z</time>
      </trkpt>
      <trkpt lat="45.23267" lon="5.86469">
        <ele>221</ele>
        <time>2000-01-01T06:51:52.000Z</time>
      </trkpt>
      <trkpt lat="45.23262" lon="5.86453">
        <ele>221.1</ele>
        <time>2000-01-01T06:52:02.000Z</time>
      </trkpt>
      <trkpt lat="45.23242" lon="5.86418">
        <ele>221</ele>
        <time>2000-01-01T06:52:12.000Z</time>
      </trkpt>
      <trkpt lat="45.23215" lon="5.86385">
        <ele>221</ele>
        <time>2000-01-01T06:52:22.000Z</time>
      </trkpt>
      <trkpt lat="45.23203" lon="5.86361">
        <ele>221</ele>
        <time>2000-01-01T06:52:32.000Z</time>
      </trkpt>
      <trkpt lat="45.23197" lon="5.8636">
        <ele>221.1</ele>
        <time>2000-01-01T06:52:42.000Z</time>
      </trkpt>
      <trkpt lat="45.23189" lon="5.86364">
        <ele>221</ele>
        <time>2000-01-01T06:52:52.000Z</time>
      </trkpt>
      <trkpt lat="45.2317" lon="5.86356">
        <ele>221</ele>
        <time>2000-01-01T06:53:02.000Z</time>
      </trkpt>
      <trkpt lat="45.23139" lon="5.86362">
        <ele>221</ele>
        <time>2000-01-01T06:53:12.000Z</time>
      </trkpt>
      <trkpt lat="45.2308" lon="5.86373">
        <ele>221</ele>
        <time>2000-01-01T06:53:22.000Z</time>
      </trkpt>
      <trkpt lat="45.2305" lon="5.86375">
        <ele>221</ele>
        <time>2000-01-01T06:53:32.000Z</time>
      </trkpt>
      <trkpt lat="45.23041" lon="5.86371">
        <ele>221.7</ele>
        <time>2000-01-01T06:53:42.000Z</time>
      </trkpt>
      <trkpt lat="45.23015" lon="5.86384">
        <ele>222</ele>
        <time>2000-01-01T06:53:52.000Z</time>
      </trkpt>
      <trkpt lat="45.22995" lon="5.8636">
        <ele>222</ele>
        <time>2000-01-01T06:54:02.000Z</time>
      </trkpt>
      <trkpt lat="45.22993" lon="5.86351">
        <ele>224.3</ele>
        <time>2000-01-01T06:54:12.000Z</time>
      </trkpt>
      <trkpt lat="45.23003" lon="5.86306">
        <ele>222</ele>
        <time>2000-01-01T06:54:22.000Z</time>
      </trkpt>
      <trkpt lat="45.23" lon="5.86263">
        <ele>220</ele>
        <time>2000-01-01T06:54:32.000Z</time>
      </trkpt>
      <trkpt lat="45.22993" lon="5.86224">
        <ele>220</ele>
        <time>2000-01-01T06:54:42.000Z</time>
      </trkpt>
      <trkpt lat="45.22983" lon="5.86166">
        <ele>220</ele>
        <time>2000-01-01T06:54:52.000Z</time>
      </trkpt>
      <trkpt lat="45.22973" lon="5.86117">
        <ele>220</ele>
        <time>2000-01-01T06:55:02.000Z</time>
      </trkpt>
      <trkpt lat="45.22962" lon="5.86068">
        <ele>220</ele>
        <time>2000-01-01T06:55:12.000Z</time>
      </trkpt>
      <trkpt lat="45.22952" lon="5.86019">
        <ele>220</ele>
        <time>2000-01-01T06:55:22.000Z</time>
      </trkpt>
      <trkpt lat="45.22939" lon="5.8596">
        <ele>220</ele>
        <time>2000-01-01T06:55:32.000Z</time>
      </trkpt>
      <trkpt lat="45.22938" lon="5.85938">
        <ele>220.2</ele>
        <time>2000-01-01T06:55:42.000Z</time>
      </trkpt>
      <trkpt lat="45.22933" lon="5.85927">
        <ele>220</ele>
        <time>2000-01-01T06:55:52.000Z</time>
      </trkpt>
      <trkpt lat="45.22927" lon="5.85892">
        <ele>220</ele>
        <time>2000-01-01T06:56:02.000Z</time>
      </trkpt>
      <trkpt lat="45.22919" lon="5.85851">
        <ele>220</ele>
        <time>2000-01-01T06:56:12.000Z</time>
      </trkpt>
      <trkpt lat="45.22913" lon="5.85805">
        <ele>220</ele>
        <time>2000-01-01T06:56:22.000Z</time>
      </trkpt>
      <trkpt lat="45.22911" lon="5.85751">
        <ele>220</ele>
        <time>2000-01-01T06:56:32.000Z</time>
      </trkpt>
      <trkpt lat="45.22916" lon="5.85688">
        <ele>220</ele>
        <time>2000-01-01T06:56:42.000Z</time>
      </trkpt>
      <trkpt lat="45.22922" lon="5.85653">
        <ele>220</ele>
        <time>2000-01-01T06:56:52.000Z</time>
      </trkpt>
      <trkpt lat="45.22931" lon="5.85621">
        <ele>220</ele>
        <time>2000-01-01T06:57:02.000Z</time>
      </trkpt>
      <trkpt lat="45.2294" lon="5.85586">
        <ele>220</ele>
        <time>2000-01-01T06:57:12.000Z</time>
      </trkpt>
      <trkpt lat="45.22949" lon="5.85563">
        <ele>221</ele>
        <time>2000-01-01T06:57:22.000Z</time>
      </trkpt>
      <trkpt lat="45.2297" lon="5.85524">
        <ele>223</ele>
        <time>2000-01-01T06:57:32.000Z</time>
      </trkpt>
      <trkpt lat="45.22993" lon="5.85501">
        <ele>220</ele>
        <time>2000-01-01T06:57:42.000Z</time>
      </trkpt>
      <trkpt lat="45.23013" lon="5.85468">
        <ele>218</ele>
        <time>2000-01-01T06:57:52.000Z</time>
      </trkpt>
      <trkpt lat="45.23051" lon="5.85407">
        <ele>218</ele>
        <time>2000-01-01T06:58:02.000Z</time>
      </trkpt>
      <trkpt lat="45.23075" lon="5.85373">
        <ele>220</ele>
        <time>2000-01-01T06:58:12.000Z</time>
      </trkpt>
      <trkpt lat="45.2308" lon="5.8536">
        <ele>224.6</ele>
        <time>2000-01-01T06:58:22.000Z</time>
      </trkpt>
      <trkpt lat="45.23073" lon="5.85338">
        <ele>223</ele>
        <time>2000-01-01T06:58:32.000Z</time>
      </trkpt>
      <trkpt lat="45.23064" lon="5.85328">
        <ele>223.7</ele>
        <time>2000-01-01T06:58:42.000Z</time>
      </trkpt>
      <trkpt lat="45.23034" lon="5.85307">
        <ele>223</ele>
        <time>2000-01-01T06:58:52.000Z</time>
      </trkpt>
      <trkpt lat="45.23026" lon="5.85299">
        <ele>222.5</ele>
        <time>2000-01-01T06:59:02.000Z</time>
      </trkpt>
      <trkpt lat="45.23022" lon="5.85289">
        <ele>221.9</ele>
        <time>2000-01-01T06:59:12.000Z</time>
      </trkpt>
      <trkpt lat="45.23021" lon="5.85269">
        <ele>222</ele>
        <time>2000-01-01T06:59:22.000Z</time>
      </trkpt>
      <trkpt lat="45.23039" lon="5.85247">
        <ele>222</ele>
        <time>2000-01-01T06:59:32.000Z</time>
      </trkpt>
      <trkpt lat="45.23057" lon="5.85224">
        <ele>222</ele>
        <time>2000-01-01T06:59:42.000Z</time>
      </trkpt>
      <trkpt lat="45.23084" lon="5.85194">
        <ele>222</ele>
        <time>2000-01-01T06:59:52.000Z</time>
      </trkpt>
      <trkpt lat="45.23112" lon="5.85164">
        <ele>222</ele>
        <time>2000-01-01T07:00:02.000Z</time>
      </trkpt>
      <trkpt lat="45.2316" lon="5.85111">
        <ele>222</ele>
        <time>2000-01-01T07:00:12.000Z</time>
      </trkpt>
      <trkpt lat="45.23167" lon="5.85096">
        <ele>221.5</ele>
        <time>2000-01-01T07:00:22.000Z</time>
      </trkpt>
      <trkpt lat="45.23209" lon="5.85059">
        <ele>222</ele>
        <time>2000-01-01T07:00:32.000Z</time>
      </trkpt>
      <trkpt lat="45.23242" lon="5.85046">
        <ele>222</ele>
        <time>2000-01-01T07:00:42.000Z</time>
      </trkpt>
      <trkpt lat="45.23285" lon="5.85038">
        <ele>222</ele>
        <time>2000-01-01T07:00:52.000Z</time>
      </trkpt>
      <trkpt lat="45.23307" lon="5.85024">
        <ele>222</ele>
        <time>2000-01-01T07:01:02.000Z</time>
      </trkpt>
      <trkpt lat="45.23315" lon="5.85022">
        <ele>222</ele>
        <time>2000-01-01T07:01:12.000Z</time>
      </trkpt>
      <trkpt lat="45.23348" lon="5.84984">
        <ele>222</ele>
        <time>2000-01-01T07:01:22.000Z</time>
      </trkpt>
      <trkpt lat="45.23367" lon="5.84966">
        <ele>221</ele>
        <time>2000-01-01T07:01:32.000Z</time>
      </trkpt>
      <trkpt lat="45.2339" lon="5.84948">
        <ele>221</ele>
        <time>2000-01-01T07:01:42.000Z</time>
      </trkpt>
      <trkpt lat="45.2342" lon="5.84925">
        <ele>221</ele>
        <time>2000-01-01T07:01:52.000Z</time>
      </trkpt>
      <trkpt lat="45.2343" lon="5.84913">
        <ele>220.6</ele>
        <time>2000-01-01T07:02:02.000Z</time>
      </trkpt>
      <trkpt lat="45.23432" lon="5.84868">
        <ele>221</ele>
        <time>2000-01-01T07:02:12.000Z</time>
      </trkpt>
      <trkpt lat="45.23431" lon="5.84824">
        <ele>220</ele>
        <time>2000-01-01T07:02:22.000Z</time>
      </trkpt>
      <trkpt lat="45.23428" lon="5.8474">
        <ele>220</ele>
        <time>2000-01-01T07:02:32.000Z</time>
      </trkpt>
      <trkpt lat="45.23424" lon="5.84713">
        <ele>221</ele>
        <time>2000-01-01T07:02:42.000Z</time>
      </trkpt>
      <trkpt lat="45.23423" lon="5.84685">
        <ele>221</ele>
        <time>2000-01-01T07:02:52.000Z</time>
      </trkpt>
      <trkpt lat="45.23413" lon="5.84627">
        <ele>221</ele>
        <time>2000-01-01T07:03:02.000Z</time>
      </trkpt>
      <trkpt lat="45.23408" lon="5.84613">
        <ele>222</ele>
        <time>2000-01-01T07:03:12.000Z</time>
      </trkpt>
      <trkpt lat="45.23416" lon="5.84602">
        <ele>221</ele>
        <time>2000-01-01T07:03:22.000Z</time>
      </trkpt>
      <trkpt lat="45.23441" lon="5.84586">
        <ele>223</ele>
        <time>2000-01-01T07:03:32.000Z</time>
      </trkpt>
      <trkpt lat="45.23475" lon="5.84564">
        <ele>223</ele>
        <time>2000-01-01T07:03:42.000Z</time>
      </trkpt>
      <trkpt lat="45.23497" lon="5.84551">
        <ele>223</ele>
        <time>2000-01-01T07:03:52.000Z</time>
      </trkpt>
      <trkpt lat="45.2352" lon="5.84538">
        <ele>224</ele>
        <time>2000-01-01T07:04:02.000Z</time>
      </trkpt>
      <trkpt lat="45.23525" lon="5.84538">
        <ele>224.5</ele>
        <time>2000-01-01T07:04:12.000Z</time>
      </trkpt>
      <trkpt lat="45.23551" lon="5.84518">
        <ele>225</ele>
        <time>2000-01-01T07:04:22.000Z</time>
      </trkpt>
      <trkpt lat="45.23575" lon="5.84503">
        <ele>226</ele>
        <time>2000-01-01T07:04:32.000Z</time>
      </trkpt>
      <trkpt lat="45.23604" lon="5.84486">
        <ele>227</ele>
        <time>2000-01-01T07:04:42.000Z</time>
      </trkpt>
      <trkpt lat="45.23629" lon="5.84464">
        <ele>228</ele>
        <time>2000-01-01T07:04:52.000Z</time>
      </trkpt>
      <trkpt lat="45.23671" lon="5.84428">
        <ele>230</ele>
        <time>2000-01-01T07:05:02.000Z</time>
      </trkpt>
      <trkpt lat="45.23696" lon="5.84422">
        <ele>230</ele>
        <time>2000-01-01T07:05:12.000Z</time>
      </trkpt>
      <trkpt lat="45.23704" lon="5.84423">
        <ele>231.6</ele>
        <time>2000-01-01T07:05:22.000Z</time>
      </trkpt>
      <trkpt lat="45.23719" lon="5.84438">
        <ele>232</ele>
        <time>2000-01-01T07:05:32.000Z</time>
      </trkpt>
      <trkpt lat="45.2373" lon="5.84441">
        <ele>232.6</ele>
        <time>2000-01-01T07:05:42.000Z</time>
      </trkpt>
      <trkpt lat="45.23771" lon="5.84475">
        <ele>235</ele>
        <time>2000-01-01T07:05:52.000Z</time>
      </trkpt>
      <trkpt lat="45.23783" lon="5.84492">
        <ele>237.1</ele>
        <time>2000-01-01T07:06:02.000Z</time>
      </trkpt>
      <trkpt lat="45.23793" lon="5.84516">
        <ele>235</ele>
        <time>2000-01-01T07:06:12.000Z</time>
      </trkpt>
      <trkpt lat="45.2381" lon="5.8454">
        <ele>235</ele>
        <time>2000-01-01T07:06:22.000Z</time>
      </trkpt>
      <trkpt lat="45.23828" lon="5.84565">
        <ele>237</ele>
        <time>2000-01-01T07:06:32.000Z</time>
      </trkpt>
      <trkpt lat="45.23834" lon="5.84582">
        <ele>238.1</ele>
        <time>2000-01-01T07:06:42.000Z</time>
      </trkpt>
      <trkpt lat="45.23863" lon="5.84636">
        <ele>238</ele>
        <time>2000-01-01T07:06:52.000Z</time>
      </trkpt>
      <trkpt lat="45.23879" lon="5.84682">
        <ele>238</ele>
        <time>2000-01-01T07:07:02.000Z</time>
      </trkpt>
      <trkpt lat="45.23894" lon="5.84715">
        <ele>239</ele>
        <time>2000-01-01T07:07:12.000Z</time>
      </trkpt>
      <trkpt lat="45.23909" lon="5.84732">
        <ele>240</ele>
        <time>2000-01-01T07:07:22.000Z</time>
      </trkpt>
      <trkpt lat="45.23936" lon="5.84755">
        <ele>242</ele>
        <time>2000-01-01T07:07:32.000Z</time>
      </trkpt>
      <trkpt lat="45.23949" lon="5.84763">
        <ele>244.2</ele>
        <time>2000-01-01T07:07:42.000Z</time>
      </trkpt>
      <trkpt lat="45.2396" lon="5.84762">
        <ele>244</ele>
        <time>2000-01-01T07:07:52.000Z</time>
      </trkpt>
      <trkpt lat="45.23977" lon="5.84747">
        <ele>242</ele>
        <time>2000-01-01T07:08:02.000Z</time>
      </trkpt>
      <trkpt lat="45.24002" lon="5.8473">
        <ele>244</ele>
        <time>2000-01-01T07:08:12.000Z</time>
      </trkpt>
      <trkpt lat="45.24035" lon="5.84708">
        <ele>247</ele>
        <time>2000-01-01T07:08:22.000Z</time>
      </trkpt>
      <trkpt lat="45.24048" lon="5.84703">
        <ele>247.6</ele>
        <time>2000-01-01T07:08:32.000Z</time>
      </trkpt>
      <trkpt lat="45.24061" lon="5.84703">
        <ele>248</ele>
        <time>2000-01-01T07:08:42.000Z</time>
      </trkpt>
      <trkpt lat="45.24078" lon="5.84709">
        <ele>248.8</ele>
        <time>2000-01-01T07:08:52.000Z</time>
      </trkpt>
      <trkpt lat="45.2409" lon="5.84709">
        <ele>249</ele>
        <time>2000-01-01T07:09:02.000Z</time>
      </trkpt>
      <trkpt lat="45.24102" lon="5.84714">
        <ele>249.7</ele>
        <time>2000-01-01T07:09:12.000Z</time>
      </trkpt>
      <trkpt lat="45.24109" lon="5.84726">
        <ele>249</ele>
        <time>2000-01-01T07:09:22.000Z</time>
      </trkpt>
      <trkpt lat="45.24119" lon="5.8477">
        <ele>249</ele>
        <time>2000-01-01T07:09:32.000Z</time>
      </trkpt>
      <trkpt lat="45.24126" lon="5.8479">
        <ele>249.6</ele>
        <time>2000-01-01T07:09:42.000Z</time>
      </trkpt>
      <trkpt lat="45.24132" lon="5.84803">
        <ele>249</ele>
        <time>2000-01-01T07:09:52.000Z</time>
      </trkpt>
      <trkpt lat="45.24142" lon="5.84816">
        <ele>250</ele>
        <time>2000-01-01T07:10:02.000Z</time>
      </trkpt>
      <trkpt lat="45.24175" lon="5.8484">
        <ele>250</ele>
        <time>2000-01-01T07:10:12.000Z</time>
      </trkpt>
      <trkpt lat="45.2422" lon="5.84839">
        <ele>250</ele>
        <time>2000-01-01T07:10:22.000Z</time>
      </trkpt>
      <trkpt lat="45.24239" lon="5.8486">
        <ele>250</ele>
        <time>2000-01-01T07:10:32.000Z</time>
      </trkpt>
      <trkpt lat="45.24266" lon="5.84869">
        <ele>251</ele>
        <time>2000-01-01T07:10:42.000Z</time>
      </trkpt>
      <trkpt lat="45.24296" lon="5.84878">
        <ele>252</ele>
        <time>2000-01-01T07:10:52.000Z</time>
      </trkpt>
      <trkpt lat="45.24313" lon="5.8488">
        <ele>253.4</ele>
        <time>2000-01-01T07:11:02.000Z</time>
      </trkpt>
      <trkpt lat="45.24315" lon="5.84878">
        <ele>252</ele>
        <time>2000-01-01T07:11:12.000Z</time>
      </trkpt>
      <trkpt lat="45.24345" lon="5.84879">
        <ele>254</ele>
        <time>2000-01-01T07:11:22.000Z</time>
      </trkpt>
      <trkpt lat="45.24368" lon="5.84861">
        <ele>257</ele>
        <time>2000-01-01T07:11:32.000Z</time>
      </trkpt>
      <trkpt lat="45.24379" lon="5.84845">
        <ele>258.5</ele>
        <time>2000-01-01T07:11:42.000Z</time>
      </trkpt>
      <trkpt lat="45.2439" lon="5.84835">
        <ele>257</ele>
        <time>2000-01-01T07:11:52.000Z</time>
      </trkpt>
      <trkpt lat="45.24404" lon="5.84827">
        <ele>259</ele>
        <time>2000-01-01T07:12:02.000Z</time>
      </trkpt>
      <trkpt lat="45.2443" lon="5.84822">
        <ele>260</ele>
        <time>2000-01-01T07:12:12.000Z</time>
      </trkpt>
      <trkpt lat="45.24474" lon="5.84828">
        <ele>261</ele>
        <time>2000-01-01T07:12:22.000Z</time>
      </trkpt>
      <trkpt lat="45.24485" lon="5.84834">
        <ele>263.1</ele>
        <time>2000-01-01T07:12:32.000Z</time>
      </trkpt>
      <trkpt lat="45.24497" lon="5.84844">
        <ele>263</ele>
        <time>2000-01-01T07:12:42.000Z</time>
      </trkpt>
      <trkpt lat="45.24505" lon="5.84858">
        <ele>265.7</ele>
        <time>2000-01-01T07:12:52.000Z</time>
      </trkpt>
      <trkpt lat="45.24537" lon="5.84899">
        <ele>268</ele>
        <time>2000-01-01T07:13:02.000Z</time>
      </trkpt>
      <trkpt lat="45.2454" lon="5.84914">
        <ele>271.2</ele>
        <time>2000-01-01T07:13:12.000Z</time>
      </trkpt>
      <trkpt lat="45.24539" lon="5.8493">
        <ele>272</ele>
        <time>2000-01-01T07:13:22.000Z</time>
      </trkpt>
      <trkpt lat="45.24533" lon="5.84957">
        <ele>275</ele>
        <time>2000-01-01T07:13:32.000Z</time>
      </trkpt>
      <trkpt lat="45.24529" lon="5.84962">
        <ele>276.8</ele>
        <time>2000-01-01T07:13:42.000Z</time>
      </trkpt>
      <trkpt lat="45.24521" lon="5.84992">
        <ele>280</ele>
        <time>2000-01-01T07:13:52.000Z</time>
      </trkpt>
      <trkpt lat="45.24519" lon="5.85009">
        <ele>280.9</ele>
        <time>2000-01-01T07:14:02.000Z</time>
      </trkpt>
      <trkpt lat="45.24522" lon="5.85016">
        <ele>280.9</ele>
        <time>2000-01-01T07:14:12.000Z</time>
      </trkpt>
      <trkpt lat="45.24523" lon="5.85031">
        <ele>280</ele>
        <time>2000-01-01T07:14:22.000Z</time>
      </trkpt>
      <trkpt lat="45.24516" lon="5.85043">
        <ele>279.2</ele>
        <time>2000-01-01T07:14:32.000Z</time>
      </trkpt>
      <trkpt lat="45.24519" lon="5.85053">
        <ele>278.6</ele>
        <time>2000-01-01T07:14:42.000Z</time>
      </trkpt>
      <trkpt lat="45.24555" lon="5.85078">
        <ele>279</ele>
        <time>2000-01-01T07:14:52.000Z</time>
      </trkpt>
      <trkpt lat="45.24579" lon="5.85099">
        <ele>278</ele>
        <time>2000-01-01T07:15:02.000Z</time>
      </trkpt>
      <trkpt lat="45.24614" lon="5.8513">
        <ele>278</ele>
        <time>2000-01-01T07:15:12.000Z</time>
      </trkpt>
      <trkpt lat="45.24622" lon="5.85124">
        <ele>278.2</ele>
        <time>2000-01-01T07:15:22.000Z</time>
      </trkpt>
      <trkpt lat="45.2464" lon="5.85096">
        <ele>279</ele>
        <time>2000-01-01T07:15:32.000Z</time>
      </trkpt>
      <trkpt lat="45.24648" lon="5.85099">
        <ele>279.9</ele>
        <time>2000-01-01T07:15:42.000Z</time>
      </trkpt>
      <trkpt lat="45.24652" lon="5.85108">
        <ele>279.9</ele>
        <time>2000-01-01T07:15:52.000Z</time>
      </trkpt>
      <trkpt lat="45.24669" lon="5.85131">
        <ele>279</ele>
        <time>2000-01-01T07:16:02.000Z</time>
      </trkpt>
      <trkpt lat="45.24696" lon="5.85152">
        <ele>279</ele>
        <time>2000-01-01T07:16:12.000Z</time>
      </trkpt>
      <trkpt lat="45.24713" lon="5.85172">
        <ele>279</ele>
        <time>2000-01-01T07:16:22.000Z</time>
      </trkpt>
      <trkpt lat="45.24723" lon="5.85177">
        <ele>280</ele>
        <time>2000-01-01T07:16:32.000Z</time>
      </trkpt>
      <trkpt lat="45.24732" lon="5.85178">
        <ele>279</ele>
        <time>2000-01-01T07:16:42.000Z</time>
      </trkpt>
      <trkpt lat="45.24769" lon="5.85142">
        <ele>279</ele>
        <time>2000-01-01T07:16:52.000Z</time>
      </trkpt>
      <trkpt lat="45.24784" lon="5.85131">
        <ele>279.8</ele>
        <time>2000-01-01T07:17:02.000Z</time>
      </trkpt>
      <trkpt lat="45.24833" lon="5.85119">
        <ele>280</ele>
        <time>2000-01-01T07:17:12.000Z</time>
      </trkpt>
      <trkpt lat="45.24867" lon="5.85122">
        <ele>281</ele>
        <time>2000-01-01T07:17:22.000Z</time>
      </trkpt>
      <trkpt lat="45.24877" lon="5.85126">
        <ele>282.4</ele>
        <time>2000-01-01T07:17:32.000Z</time>
      </trkpt>
      <trkpt lat="45.24904" lon="5.85155">
        <ele>283</ele>
        <time>2000-01-01T07:17:42.000Z</time>
      </trkpt>
      <trkpt lat="45.24917" lon="5.85151">
        <ele>284</ele>
        <time>2000-01-01T07:17:52.000Z</time>
      </trkpt>
    </trkseg>
  </trk>
</gpx>